<?xml version="1.0" encoding="UTF-8" standalone="no" ?>
<gpx xmlns="http://www.topografix.com/GPX/1/1" xmlns:xsi="http://www.w3.org/2001/XMLSchema-instance" xsi:schemaLocation="http://www.topografix.com/GPX/1/1 http://www.topografix.com/GPX/1/1/gpx.xsd" version="1.1" creator="VisuGPX - https://www.visugpx.com">
  <metadata>
    <name>Le Tour de Chalain et ses belvédères</name>
  </metadata>
  <trk>
    <name><![CDATA[Le Tour de Chalain et ses belvédères_1]]></name>
    <extensions>
      <line xmlns="http://www.topografix.com/GPX/gpx_style/0/2">
        <color>0000FF</color>
        <width>4</width>
      </line>
    </extensions>
    <trkseg>
      <trkpt lat="46.67869" lon="5.77958">
        <ele>477.5</ele>
        <time>2021-09-12T07:40:53Z</time>
      </trkpt>
      <trkpt lat="46.67864" lon="5.77955">
        <ele>483.9</ele>
        <time>2021-09-12T07:41:00Z</time>
      </trkpt>
      <trkpt lat="46.6786" lon="5.77954">
        <ele>489.8</ele>
        <time>2021-09-12T07:41:12Z</time>
      </trkpt>
      <trkpt lat="46.67855" lon="5.77952">
        <ele>490.1</ele>
        <time>2021-09-12T07:41:34Z</time>
      </trkpt>
      <trkpt lat="46.67851" lon="5.77957">
        <ele>488.6</ele>
        <time>2021-09-12T07:42:12Z</time>
      </trkpt>
      <trkpt lat="46.67847" lon="5.77958">
        <ele>488.7</ele>
        <time>2021-09-12T07:42:18Z</time>
      </trkpt>
      <trkpt lat="46.67841" lon="5.77961">
        <ele>489.4</ele>
        <time>2021-09-12T07:42:24Z</time>
      </trkpt>
      <trkpt lat="46.67836" lon="5.77963">
        <ele>489.6</ele>
        <time>2021-09-12T07:42:29Z</time>
      </trkpt>
      <trkpt lat="46.67832" lon="5.77966">
        <ele>488.6</ele>
        <time>2021-09-12T07:42:35Z</time>
      </trkpt>
      <trkpt lat="46.67829" lon="5.77972">
        <ele>487.7</ele>
        <time>2021-09-12T07:42:40Z</time>
      </trkpt>
      <trkpt lat="46.67826" lon="5.77978">
        <ele>486.6</ele>
        <time>2021-09-12T07:42:45Z</time>
      </trkpt>
      <trkpt lat="46.67825" lon="5.77985">
        <ele>485.3</ele>
        <time>2021-09-12T07:42:51Z</time>
      </trkpt>
      <trkpt lat="46.67824" lon="5.77992">
        <ele>484</ele>
        <time>2021-09-12T07:42:56Z</time>
      </trkpt>
      <trkpt lat="46.678" lon="5.78037">
        <ele>468.7</ele>
        <time>2021-09-12T07:43:22Z</time>
      </trkpt>
      <trkpt lat="46.67802" lon="5.78043">
        <ele>472.7</ele>
        <time>2021-09-12T07:43:26Z</time>
      </trkpt>
      <trkpt lat="46.67798" lon="5.78038">
        <ele>478.7</ele>
        <time>2021-09-12T07:43:34Z</time>
      </trkpt>
      <trkpt lat="46.67795" lon="5.78032">
        <ele>480.3</ele>
        <time>2021-09-12T07:43:40Z</time>
      </trkpt>
      <trkpt lat="46.6779" lon="5.78033">
        <ele>480.5</ele>
        <time>2021-09-12T07:43:46Z</time>
      </trkpt>
      <trkpt lat="46.67785" lon="5.78033">
        <ele>480.7</ele>
        <time>2021-09-12T07:43:51Z</time>
      </trkpt>
      <trkpt lat="46.67781" lon="5.78033">
        <ele>481</ele>
        <time>2021-09-12T07:43:55Z</time>
      </trkpt>
      <trkpt lat="46.67776" lon="5.78033">
        <ele>481</ele>
        <time>2021-09-12T07:43:59Z</time>
      </trkpt>
      <trkpt lat="46.6777" lon="5.78033">
        <ele>481.1</ele>
        <time>2021-09-12T07:44:04Z</time>
      </trkpt>
      <trkpt lat="46.67765" lon="5.78035">
        <ele>481.5</ele>
        <time>2021-09-12T07:44:09Z</time>
      </trkpt>
      <trkpt lat="46.67759" lon="5.78035">
        <ele>481.7</ele>
        <time>2021-09-12T07:44:13Z</time>
      </trkpt>
      <trkpt lat="46.67754" lon="5.78036">
        <ele>482</ele>
        <time>2021-09-12T07:44:16Z</time>
      </trkpt>
      <trkpt lat="46.67749" lon="5.78034">
        <ele>482.6</ele>
        <time>2021-09-12T07:44:20Z</time>
      </trkpt>
      <trkpt lat="46.67744" lon="5.78032">
        <ele>483.7</ele>
        <time>2021-09-12T07:44:24Z</time>
      </trkpt>
      <trkpt lat="46.67739" lon="5.78028">
        <ele>484.9</ele>
        <time>2021-09-12T07:44:28Z</time>
      </trkpt>
      <trkpt lat="46.67736" lon="5.78022">
        <ele>486.4</ele>
        <time>2021-09-12T07:44:33Z</time>
      </trkpt>
      <trkpt lat="46.67736" lon="5.78015">
        <ele>487.4</ele>
        <time>2021-09-12T07:44:38Z</time>
      </trkpt>
      <trkpt lat="46.67737" lon="5.78009">
        <ele>487.8</ele>
        <time>2021-09-12T07:44:42Z</time>
      </trkpt>
      <trkpt lat="46.67737" lon="5.78001">
        <ele>487.3</ele>
        <time>2021-09-12T07:44:47Z</time>
      </trkpt>
      <trkpt lat="46.67734" lon="5.77994">
        <ele>486.8</ele>
        <time>2021-09-12T07:44:52Z</time>
      </trkpt>
      <trkpt lat="46.67731" lon="5.77988">
        <ele>486.7</ele>
        <time>2021-09-12T07:44:56Z</time>
      </trkpt>
      <trkpt lat="46.67731" lon="5.77982">
        <ele>487.1</ele>
        <time>2021-09-12T07:45:01Z</time>
      </trkpt>
      <trkpt lat="46.67728" lon="5.77975">
        <ele>487.3</ele>
        <time>2021-09-12T07:45:06Z</time>
      </trkpt>
      <trkpt lat="46.67725" lon="5.7797">
        <ele>487.5</ele>
        <time>2021-09-12T07:45:10Z</time>
      </trkpt>
      <trkpt lat="46.67722" lon="5.77964">
        <ele>487.7</ele>
        <time>2021-09-12T07:45:14Z</time>
      </trkpt>
      <trkpt lat="46.67721" lon="5.77958">
        <ele>487.8</ele>
        <time>2021-09-12T07:45:17Z</time>
      </trkpt>
      <trkpt lat="46.67719" lon="5.7795">
        <ele>487.1</ele>
        <time>2021-09-12T07:45:23Z</time>
      </trkpt>
      <trkpt lat="46.67716" lon="5.77944">
        <ele>486.5</ele>
        <time>2021-09-12T07:45:28Z</time>
      </trkpt>
      <trkpt lat="46.67713" lon="5.77937">
        <ele>486.3</ele>
        <time>2021-09-12T07:45:32Z</time>
      </trkpt>
      <trkpt lat="46.67712" lon="5.77931">
        <ele>486.6</ele>
        <time>2021-09-12T07:45:36Z</time>
      </trkpt>
      <trkpt lat="46.6771" lon="5.77923">
        <ele>486.7</ele>
        <time>2021-09-12T07:45:41Z</time>
      </trkpt>
      <trkpt lat="46.67708" lon="5.77917">
        <ele>486.7</ele>
        <time>2021-09-12T07:45:45Z</time>
      </trkpt>
      <trkpt lat="46.67708" lon="5.77909">
        <ele>486.2</ele>
        <time>2021-09-12T07:45:50Z</time>
      </trkpt>
      <trkpt lat="46.67706" lon="5.77902">
        <ele>485.7</ele>
        <time>2021-09-12T07:45:54Z</time>
      </trkpt>
      <trkpt lat="46.67705" lon="5.77894">
        <ele>485.8</ele>
        <time>2021-09-12T07:45:59Z</time>
      </trkpt>
      <trkpt lat="46.67702" lon="5.77887">
        <ele>486.8</ele>
        <time>2021-09-12T07:46:04Z</time>
      </trkpt>
      <trkpt lat="46.677" lon="5.77881">
        <ele>487.2</ele>
        <time>2021-09-12T07:46:08Z</time>
      </trkpt>
      <trkpt lat="46.67698" lon="5.77874">
        <ele>487.6</ele>
        <time>2021-09-12T07:46:12Z</time>
      </trkpt>
      <trkpt lat="46.67695" lon="5.77867">
        <ele>487.6</ele>
        <time>2021-09-12T07:46:16Z</time>
      </trkpt>
      <trkpt lat="46.67692" lon="5.7786">
        <ele>487.6</ele>
        <time>2021-09-12T07:46:20Z</time>
      </trkpt>
      <trkpt lat="46.6769" lon="5.77853">
        <ele>487.7</ele>
        <time>2021-09-12T07:46:25Z</time>
      </trkpt>
      <trkpt lat="46.67689" lon="5.77847">
        <ele>488</ele>
        <time>2021-09-12T07:46:29Z</time>
      </trkpt>
      <trkpt lat="46.67687" lon="5.7784">
        <ele>488.6</ele>
        <time>2021-09-12T07:46:34Z</time>
      </trkpt>
      <trkpt lat="46.67685" lon="5.77834">
        <ele>488.9</ele>
        <time>2021-09-12T07:46:39Z</time>
      </trkpt>
      <trkpt lat="46.67684" lon="5.77827">
        <ele>489.1</ele>
        <time>2021-09-12T07:46:44Z</time>
      </trkpt>
      <trkpt lat="46.67682" lon="5.7782">
        <ele>488.9</ele>
        <time>2021-09-12T07:46:49Z</time>
      </trkpt>
      <trkpt lat="46.67682" lon="5.77813">
        <ele>488.8</ele>
        <time>2021-09-12T07:46:54Z</time>
      </trkpt>
      <trkpt lat="46.6768" lon="5.77807">
        <ele>488.3</ele>
        <time>2021-09-12T07:46:58Z</time>
      </trkpt>
      <trkpt lat="46.67677" lon="5.77802">
        <ele>488.5</ele>
        <time>2021-09-12T07:47:03Z</time>
      </trkpt>
      <trkpt lat="46.67675" lon="5.77795">
        <ele>488.7</ele>
        <time>2021-09-12T07:47:08Z</time>
      </trkpt>
      <trkpt lat="46.67672" lon="5.77789">
        <ele>488.7</ele>
        <time>2021-09-12T07:47:12Z</time>
      </trkpt>
      <trkpt lat="46.67668" lon="5.77784">
        <ele>488.9</ele>
        <time>2021-09-12T07:47:17Z</time>
      </trkpt>
      <trkpt lat="46.67665" lon="5.77777">
        <ele>488.6</ele>
        <time>2021-09-12T07:47:22Z</time>
      </trkpt>
      <trkpt lat="46.67661" lon="5.77772">
        <ele>488</ele>
        <time>2021-09-12T07:47:26Z</time>
      </trkpt>
      <trkpt lat="46.67658" lon="5.77766">
        <ele>487.6</ele>
        <time>2021-09-12T07:47:30Z</time>
      </trkpt>
      <trkpt lat="46.67657" lon="5.7776">
        <ele>486.6</ele>
        <time>2021-09-12T07:47:35Z</time>
      </trkpt>
      <trkpt lat="46.67654" lon="5.77755">
        <ele>484.9</ele>
        <time>2021-09-12T07:47:40Z</time>
      </trkpt>
      <trkpt lat="46.67651" lon="5.77749">
        <ele>482.9</ele>
        <time>2021-09-12T07:47:44Z</time>
      </trkpt>
      <trkpt lat="46.67651" lon="5.77741">
        <ele>480.6</ele>
        <time>2021-09-12T07:47:50Z</time>
      </trkpt>
      <trkpt lat="46.67649" lon="5.77734">
        <ele>479.1</ele>
        <time>2021-09-12T07:47:54Z</time>
      </trkpt>
      <trkpt lat="46.67647" lon="5.77727">
        <ele>478.2</ele>
        <time>2021-09-12T07:47:57Z</time>
      </trkpt>
      <trkpt lat="46.67644" lon="5.7772">
        <ele>477.8</ele>
        <time>2021-09-12T07:48:01Z</time>
      </trkpt>
      <trkpt lat="46.67642" lon="5.77713">
        <ele>477.9</ele>
        <time>2021-09-12T07:48:05Z</time>
      </trkpt>
      <trkpt lat="46.6764" lon="5.77705">
        <ele>478.5</ele>
        <time>2021-09-12T07:48:09Z</time>
      </trkpt>
      <trkpt lat="46.67637" lon="5.77699">
        <ele>479.1</ele>
        <time>2021-09-12T07:48:14Z</time>
      </trkpt>
      <trkpt lat="46.67635" lon="5.77692">
        <ele>479.7</ele>
        <time>2021-09-12T07:48:20Z</time>
      </trkpt>
      <trkpt lat="46.67636" lon="5.77685">
        <ele>481.3</ele>
        <time>2021-09-12T07:48:26Z</time>
      </trkpt>
      <trkpt lat="46.67638" lon="5.77678">
        <ele>483.2</ele>
        <time>2021-09-12T07:48:32Z</time>
      </trkpt>
      <trkpt lat="46.67636" lon="5.7767">
        <ele>483.7</ele>
        <time>2021-09-12T07:48:36Z</time>
      </trkpt>
      <trkpt lat="46.67637" lon="5.77663">
        <ele>483.3</ele>
        <time>2021-09-12T07:48:40Z</time>
      </trkpt>
      <trkpt lat="46.67639" lon="5.77655">
        <ele>483</ele>
        <time>2021-09-12T07:48:44Z</time>
      </trkpt>
      <trkpt lat="46.67641" lon="5.77649">
        <ele>482.9</ele>
        <time>2021-09-12T07:48:48Z</time>
      </trkpt>
      <trkpt lat="46.67643" lon="5.77642">
        <ele>483.3</ele>
        <time>2021-09-12T07:48:52Z</time>
      </trkpt>
      <trkpt lat="46.67646" lon="5.77637">
        <ele>483.7</ele>
        <time>2021-09-12T07:48:56Z</time>
      </trkpt>
      <trkpt lat="46.67648" lon="5.7763">
        <ele>484.5</ele>
        <time>2021-09-12T07:49:02Z</time>
      </trkpt>
      <trkpt lat="46.67649" lon="5.77623">
        <ele>484.3</ele>
        <time>2021-09-12T07:49:07Z</time>
      </trkpt>
      <trkpt lat="46.67651" lon="5.77616">
        <ele>484.4</ele>
        <time>2021-09-12T07:49:12Z</time>
      </trkpt>
      <trkpt lat="46.67652" lon="5.77609">
        <ele>485</ele>
        <time>2021-09-12T07:49:16Z</time>
      </trkpt>
      <trkpt lat="46.67654" lon="5.77603">
        <ele>485.6</ele>
        <time>2021-09-12T07:49:20Z</time>
      </trkpt>
      <trkpt lat="46.67657" lon="5.77596">
        <ele>485.7</ele>
        <time>2021-09-12T07:49:25Z</time>
      </trkpt>
      <trkpt lat="46.67659" lon="5.77589">
        <ele>485.6</ele>
        <time>2021-09-12T07:49:30Z</time>
      </trkpt>
      <trkpt lat="46.67662" lon="5.77582">
        <ele>485.6</ele>
        <time>2021-09-12T07:49:35Z</time>
      </trkpt>
      <trkpt lat="46.67664" lon="5.77576">
        <ele>486</ele>
        <time>2021-09-12T07:49:40Z</time>
      </trkpt>
      <trkpt lat="46.67663" lon="5.77568">
        <ele>486</ele>
        <time>2021-09-12T07:49:44Z</time>
      </trkpt>
      <trkpt lat="46.67662" lon="5.77562">
        <ele>486</ele>
        <time>2021-09-12T07:49:49Z</time>
      </trkpt>
      <trkpt lat="46.67662" lon="5.77554">
        <ele>485.8</ele>
        <time>2021-09-12T07:50:16Z</time>
      </trkpt>
      <trkpt lat="46.67662" lon="5.77547">
        <ele>486.1</ele>
        <time>2021-09-12T07:50:23Z</time>
      </trkpt>
      <trkpt lat="46.67662" lon="5.77541">
        <ele>486.3</ele>
        <time>2021-09-12T07:50:28Z</time>
      </trkpt>
      <trkpt lat="46.6766" lon="5.77534">
        <ele>486.2</ele>
        <time>2021-09-12T07:50:32Z</time>
      </trkpt>
      <trkpt lat="46.67659" lon="5.77527">
        <ele>486.2</ele>
        <time>2021-09-12T07:50:36Z</time>
      </trkpt>
      <trkpt lat="46.67656" lon="5.77521">
        <ele>486.2</ele>
        <time>2021-09-12T07:50:40Z</time>
      </trkpt>
      <trkpt lat="46.67654" lon="5.77515">
        <ele>486.5</ele>
        <time>2021-09-12T07:50:46Z</time>
      </trkpt>
      <trkpt lat="46.67651" lon="5.77508">
        <ele>486.5</ele>
        <time>2021-09-12T07:50:50Z</time>
      </trkpt>
      <trkpt lat="46.6765" lon="5.77501">
        <ele>486.6</ele>
        <time>2021-09-12T07:50:54Z</time>
      </trkpt>
      <trkpt lat="46.6765" lon="5.77493">
        <ele>486.7</ele>
        <time>2021-09-12T07:50:59Z</time>
      </trkpt>
      <trkpt lat="46.67648" lon="5.77486">
        <ele>486.7</ele>
        <time>2021-09-12T07:51:03Z</time>
      </trkpt>
      <trkpt lat="46.67648" lon="5.77478">
        <ele>487.1</ele>
        <time>2021-09-12T07:51:08Z</time>
      </trkpt>
      <trkpt lat="46.67647" lon="5.77471">
        <ele>488.5</ele>
        <time>2021-09-12T07:51:13Z</time>
      </trkpt>
      <trkpt lat="46.67646" lon="5.77465">
        <ele>489.7</ele>
        <time>2021-09-12T07:51:17Z</time>
      </trkpt>
      <trkpt lat="46.67644" lon="5.77458">
        <ele>490.6</ele>
        <time>2021-09-12T07:51:21Z</time>
      </trkpt>
      <trkpt lat="46.67642" lon="5.77451">
        <ele>491</ele>
        <time>2021-09-12T07:51:25Z</time>
      </trkpt>
      <trkpt lat="46.67639" lon="5.77447">
        <ele>491.1</ele>
        <time>2021-09-12T07:51:29Z</time>
      </trkpt>
      <trkpt lat="46.67636" lon="5.77441">
        <ele>491.1</ele>
        <time>2021-09-12T07:51:34Z</time>
      </trkpt>
      <trkpt lat="46.67633" lon="5.77435">
        <ele>490.8</ele>
        <time>2021-09-12T07:51:38Z</time>
      </trkpt>
      <trkpt lat="46.6763" lon="5.7743">
        <ele>490.3</ele>
        <time>2021-09-12T07:51:42Z</time>
      </trkpt>
      <trkpt lat="46.67628" lon="5.77423">
        <ele>489.9</ele>
        <time>2021-09-12T07:51:46Z</time>
      </trkpt>
      <trkpt lat="46.67625" lon="5.77417">
        <ele>489.7</ele>
        <time>2021-09-12T07:51:50Z</time>
      </trkpt>
      <trkpt lat="46.67622" lon="5.77411">
        <ele>489.2</ele>
        <time>2021-09-12T07:51:55Z</time>
      </trkpt>
      <trkpt lat="46.67618" lon="5.77406">
        <ele>488.5</ele>
        <time>2021-09-12T07:51:59Z</time>
      </trkpt>
      <trkpt lat="46.67615" lon="5.77401">
        <ele>487.9</ele>
        <time>2021-09-12T07:52:03Z</time>
      </trkpt>
      <trkpt lat="46.67612" lon="5.77397">
        <ele>487.7</ele>
        <time>2021-09-12T07:52:07Z</time>
      </trkpt>
      <trkpt lat="46.67608" lon="5.77392">
        <ele>488.4</ele>
        <time>2021-09-12T07:52:11Z</time>
      </trkpt>
      <trkpt lat="46.67605" lon="5.77386">
        <ele>489.7</ele>
        <time>2021-09-12T07:52:16Z</time>
      </trkpt>
      <trkpt lat="46.67601" lon="5.77382">
        <ele>490.7</ele>
        <time>2021-09-12T07:52:20Z</time>
      </trkpt>
      <trkpt lat="46.67597" lon="5.77377">
        <ele>491.6</ele>
        <time>2021-09-12T07:52:25Z</time>
      </trkpt>
      <trkpt lat="46.67593" lon="5.77372">
        <ele>491.8</ele>
        <time>2021-09-12T07:52:30Z</time>
      </trkpt>
      <trkpt lat="46.6759" lon="5.77367">
        <ele>491.6</ele>
        <time>2021-09-12T07:52:34Z</time>
      </trkpt>
      <trkpt lat="46.67585" lon="5.77362">
        <ele>491.6</ele>
        <time>2021-09-12T07:52:39Z</time>
      </trkpt>
      <trkpt lat="46.67581" lon="5.77358">
        <ele>491.3</ele>
        <time>2021-09-12T07:52:44Z</time>
      </trkpt>
      <trkpt lat="46.67577" lon="5.77353">
        <ele>490.8</ele>
        <time>2021-09-12T07:52:49Z</time>
      </trkpt>
      <trkpt lat="46.67574" lon="5.77347">
        <ele>490.9</ele>
        <time>2021-09-12T07:52:54Z</time>
      </trkpt>
      <trkpt lat="46.6757" lon="5.77342">
        <ele>490.6</ele>
        <time>2021-09-12T07:52:58Z</time>
      </trkpt>
      <trkpt lat="46.67567" lon="5.77337">
        <ele>490.8</ele>
        <time>2021-09-12T07:53:03Z</time>
      </trkpt>
      <trkpt lat="46.67563" lon="5.77333">
        <ele>491.1</ele>
        <time>2021-09-12T07:53:09Z</time>
      </trkpt>
      <trkpt lat="46.67558" lon="5.77329">
        <ele>491.4</ele>
        <time>2021-09-12T07:53:13Z</time>
      </trkpt>
      <trkpt lat="46.67555" lon="5.77324">
        <ele>492</ele>
        <time>2021-09-12T07:53:17Z</time>
      </trkpt>
      <trkpt lat="46.67551" lon="5.77319">
        <ele>492.5</ele>
        <time>2021-09-12T07:53:21Z</time>
      </trkpt>
      <trkpt lat="46.67547" lon="5.77314">
        <ele>492.6</ele>
        <time>2021-09-12T07:53:25Z</time>
      </trkpt>
      <trkpt lat="46.67544" lon="5.77309">
        <ele>492.3</ele>
        <time>2021-09-12T07:53:29Z</time>
      </trkpt>
      <trkpt lat="46.67541" lon="5.77304">
        <ele>492.3</ele>
        <time>2021-09-12T07:53:33Z</time>
      </trkpt>
      <trkpt lat="46.67538" lon="5.773">
        <ele>491.9</ele>
        <time>2021-09-12T07:53:37Z</time>
      </trkpt>
      <trkpt lat="46.67533" lon="5.77296">
        <ele>491.5</ele>
        <time>2021-09-12T07:53:42Z</time>
      </trkpt>
      <trkpt lat="46.6753" lon="5.77291">
        <ele>491.4</ele>
        <time>2021-09-12T07:53:48Z</time>
      </trkpt>
      <trkpt lat="46.67526" lon="5.77287">
        <ele>491.2</ele>
        <time>2021-09-12T07:53:52Z</time>
      </trkpt>
      <trkpt lat="46.67522" lon="5.77281">
        <ele>491</ele>
        <time>2021-09-12T07:53:56Z</time>
      </trkpt>
      <trkpt lat="46.67519" lon="5.77276">
        <ele>491.4</ele>
        <time>2021-09-12T07:54:01Z</time>
      </trkpt>
      <trkpt lat="46.67515" lon="5.77271">
        <ele>491.1</ele>
        <time>2021-09-12T07:54:05Z</time>
      </trkpt>
      <trkpt lat="46.67512" lon="5.77266">
        <ele>491.1</ele>
        <time>2021-09-12T07:54:09Z</time>
      </trkpt>
      <trkpt lat="46.67508" lon="5.77261">
        <ele>491.1</ele>
        <time>2021-09-12T07:54:13Z</time>
      </trkpt>
      <trkpt lat="46.67504" lon="5.77256">
        <ele>491.1</ele>
        <time>2021-09-12T07:54:17Z</time>
      </trkpt>
      <trkpt lat="46.67501" lon="5.77251">
        <ele>491.5</ele>
        <time>2021-09-12T07:54:21Z</time>
      </trkpt>
      <trkpt lat="46.67498" lon="5.77246">
        <ele>491.9</ele>
        <time>2021-09-12T07:54:25Z</time>
      </trkpt>
      <trkpt lat="46.67493" lon="5.77244">
        <ele>492.3</ele>
        <time>2021-09-12T07:54:45Z</time>
      </trkpt>
      <trkpt lat="46.67489" lon="5.7724">
        <ele>492.1</ele>
        <time>2021-09-12T07:54:50Z</time>
      </trkpt>
      <trkpt lat="46.67485" lon="5.77236">
        <ele>491.8</ele>
        <time>2021-09-12T07:54:55Z</time>
      </trkpt>
      <trkpt lat="46.67482" lon="5.77229">
        <ele>491.7</ele>
        <time>2021-09-12T07:55:00Z</time>
      </trkpt>
      <trkpt lat="46.67478" lon="5.77225">
        <ele>491.8</ele>
        <time>2021-09-12T07:55:05Z</time>
      </trkpt>
      <trkpt lat="46.67474" lon="5.77221">
        <ele>491.8</ele>
        <time>2021-09-12T07:55:09Z</time>
      </trkpt>
      <trkpt lat="46.67471" lon="5.77217">
        <ele>491.6</ele>
        <time>2021-09-12T07:55:13Z</time>
      </trkpt>
      <trkpt lat="46.67468" lon="5.77212">
        <ele>491.4</ele>
        <time>2021-09-12T07:55:17Z</time>
      </trkpt>
      <trkpt lat="46.67464" lon="5.77206">
        <ele>490.9</ele>
        <time>2021-09-12T07:55:22Z</time>
      </trkpt>
      <trkpt lat="46.6746" lon="5.77201">
        <ele>490.5</ele>
        <time>2021-09-12T07:55:27Z</time>
      </trkpt>
      <trkpt lat="46.67457" lon="5.77195">
        <ele>490.4</ele>
        <time>2021-09-12T07:55:32Z</time>
      </trkpt>
      <trkpt lat="46.67453" lon="5.7719">
        <ele>490.2</ele>
        <time>2021-09-12T07:55:37Z</time>
      </trkpt>
      <trkpt lat="46.67449" lon="5.77185">
        <ele>490.2</ele>
        <time>2021-09-12T07:55:42Z</time>
      </trkpt>
      <trkpt lat="46.67446" lon="5.7718">
        <ele>489.8</ele>
        <time>2021-09-12T07:55:46Z</time>
      </trkpt>
      <trkpt lat="46.67442" lon="5.77176">
        <ele>489.9</ele>
        <time>2021-09-12T07:55:50Z</time>
      </trkpt>
      <trkpt lat="46.67438" lon="5.7717">
        <ele>489.8</ele>
        <time>2021-09-12T07:55:55Z</time>
      </trkpt>
      <trkpt lat="46.67435" lon="5.77165">
        <ele>490.1</ele>
        <time>2021-09-12T07:56:00Z</time>
      </trkpt>
      <trkpt lat="46.67431" lon="5.77161">
        <ele>490.6</ele>
        <time>2021-09-12T07:56:04Z</time>
      </trkpt>
      <trkpt lat="46.67427" lon="5.77157">
        <ele>490.6</ele>
        <time>2021-09-12T07:56:07Z</time>
      </trkpt>
      <trkpt lat="46.67423" lon="5.77152">
        <ele>490.7</ele>
        <time>2021-09-12T07:56:11Z</time>
      </trkpt>
      <trkpt lat="46.67419" lon="5.77147">
        <ele>490.5</ele>
        <time>2021-09-12T07:56:15Z</time>
      </trkpt>
      <trkpt lat="46.67415" lon="5.77142">
        <ele>490</ele>
        <time>2021-09-12T07:56:20Z</time>
      </trkpt>
      <trkpt lat="46.67412" lon="5.77137">
        <ele>490.1</ele>
        <time>2021-09-12T07:56:25Z</time>
      </trkpt>
      <trkpt lat="46.67409" lon="5.77132">
        <ele>492.8</ele>
        <time>2021-09-12T07:56:36Z</time>
      </trkpt>
      <trkpt lat="46.67406" lon="5.77127">
        <ele>493</ele>
        <time>2021-09-12T07:56:40Z</time>
      </trkpt>
      <trkpt lat="46.67402" lon="5.77123">
        <ele>492.7</ele>
        <time>2021-09-12T07:56:44Z</time>
      </trkpt>
      <trkpt lat="46.67398" lon="5.77119">
        <ele>491.9</ele>
        <time>2021-09-12T07:56:49Z</time>
      </trkpt>
      <trkpt lat="46.67394" lon="5.77113">
        <ele>490.9</ele>
        <time>2021-09-12T07:56:54Z</time>
      </trkpt>
      <trkpt lat="46.6739" lon="5.77109">
        <ele>489.8</ele>
        <time>2021-09-12T07:56:59Z</time>
      </trkpt>
      <trkpt lat="46.67386" lon="5.77103">
        <ele>489.2</ele>
        <time>2021-09-12T07:57:04Z</time>
      </trkpt>
      <trkpt lat="46.67383" lon="5.77098">
        <ele>488.7</ele>
        <time>2021-09-12T07:57:09Z</time>
      </trkpt>
      <trkpt lat="46.67379" lon="5.77093">
        <ele>488.5</ele>
        <time>2021-09-12T07:57:13Z</time>
      </trkpt>
      <trkpt lat="46.67374" lon="5.7709">
        <ele>488.5</ele>
        <time>2021-09-12T07:57:17Z</time>
      </trkpt>
      <trkpt lat="46.67371" lon="5.77084">
        <ele>488.7</ele>
        <time>2021-09-12T07:57:20Z</time>
      </trkpt>
      <trkpt lat="46.67368" lon="5.77077">
        <ele>489</ele>
        <time>2021-09-12T07:57:24Z</time>
      </trkpt>
      <trkpt lat="46.67365" lon="5.77072">
        <ele>490</ele>
        <time>2021-09-12T07:57:28Z</time>
      </trkpt>
      <trkpt lat="46.6736" lon="5.7707">
        <ele>491.2</ele>
        <time>2021-09-12T07:57:33Z</time>
      </trkpt>
      <trkpt lat="46.67356" lon="5.77064">
        <ele>492</ele>
        <time>2021-09-12T07:57:38Z</time>
      </trkpt>
      <trkpt lat="46.67353" lon="5.77059">
        <ele>492.2</ele>
        <time>2021-09-12T07:57:42Z</time>
      </trkpt>
      <trkpt lat="46.67349" lon="5.77055">
        <ele>492.3</ele>
        <time>2021-09-12T07:57:46Z</time>
      </trkpt>
      <trkpt lat="46.67345" lon="5.77051">
        <ele>492.5</ele>
        <time>2021-09-12T07:57:51Z</time>
      </trkpt>
      <trkpt lat="46.67341" lon="5.77046">
        <ele>492.4</ele>
        <time>2021-09-12T07:57:56Z</time>
      </trkpt>
      <trkpt lat="46.67338" lon="5.7704">
        <ele>492.6</ele>
        <time>2021-09-12T07:58:01Z</time>
      </trkpt>
      <trkpt lat="46.67334" lon="5.77036">
        <ele>492.8</ele>
        <time>2021-09-12T07:58:05Z</time>
      </trkpt>
      <trkpt lat="46.6733" lon="5.7703">
        <ele>492.5</ele>
        <time>2021-09-12T07:58:10Z</time>
      </trkpt>
      <trkpt lat="46.67327" lon="5.77025">
        <ele>492</ele>
        <time>2021-09-12T07:58:14Z</time>
      </trkpt>
      <trkpt lat="46.67324" lon="5.77019">
        <ele>492.1</ele>
        <time>2021-09-12T07:58:18Z</time>
      </trkpt>
      <trkpt lat="46.6732" lon="5.77012">
        <ele>492.8</ele>
        <time>2021-09-12T07:58:22Z</time>
      </trkpt>
      <trkpt lat="46.67316" lon="5.77007">
        <ele>494</ele>
        <time>2021-09-12T07:58:27Z</time>
      </trkpt>
      <trkpt lat="46.67312" lon="5.77003">
        <ele>494.6</ele>
        <time>2021-09-12T07:58:31Z</time>
      </trkpt>
      <trkpt lat="46.67308" lon="5.76999">
        <ele>494.8</ele>
        <time>2021-09-12T07:58:35Z</time>
      </trkpt>
      <trkpt lat="46.67305" lon="5.76994">
        <ele>494.7</ele>
        <time>2021-09-12T07:58:39Z</time>
      </trkpt>
      <trkpt lat="46.67301" lon="5.76989">
        <ele>494.8</ele>
        <time>2021-09-12T07:58:44Z</time>
      </trkpt>
      <trkpt lat="46.67296" lon="5.76984">
        <ele>495</ele>
        <time>2021-09-12T07:58:48Z</time>
      </trkpt>
      <trkpt lat="46.67292" lon="5.7698">
        <ele>495.1</ele>
        <time>2021-09-12T07:58:52Z</time>
      </trkpt>
      <trkpt lat="46.67288" lon="5.76976">
        <ele>494.9</ele>
        <time>2021-09-12T07:58:56Z</time>
      </trkpt>
      <trkpt lat="46.67284" lon="5.7697">
        <ele>494.6</ele>
        <time>2021-09-12T07:59:01Z</time>
      </trkpt>
      <trkpt lat="46.6728" lon="5.76965">
        <ele>494.4</ele>
        <time>2021-09-12T07:59:06Z</time>
      </trkpt>
      <trkpt lat="46.67276" lon="5.76962">
        <ele>494.1</ele>
        <time>2021-09-12T07:59:10Z</time>
      </trkpt>
      <trkpt lat="46.67272" lon="5.76958">
        <ele>493.9</ele>
        <time>2021-09-12T07:59:14Z</time>
      </trkpt>
      <trkpt lat="46.67267" lon="5.76955">
        <ele>493.6</ele>
        <time>2021-09-12T07:59:19Z</time>
      </trkpt>
      <trkpt lat="46.67263" lon="5.76952">
        <ele>493.7</ele>
        <time>2021-09-12T07:59:23Z</time>
      </trkpt>
      <trkpt lat="46.67258" lon="5.76948">
        <ele>493.6</ele>
        <time>2021-09-12T07:59:27Z</time>
      </trkpt>
      <trkpt lat="46.67254" lon="5.76944">
        <ele>493.6</ele>
        <time>2021-09-12T07:59:32Z</time>
      </trkpt>
      <trkpt lat="46.67249" lon="5.76941">
        <ele>493.2</ele>
        <time>2021-09-12T07:59:37Z</time>
      </trkpt>
      <trkpt lat="46.67245" lon="5.76939">
        <ele>493.1</ele>
        <time>2021-09-12T07:59:41Z</time>
      </trkpt>
      <trkpt lat="46.67239" lon="5.76938">
        <ele>493.5</ele>
        <time>2021-09-12T07:59:45Z</time>
      </trkpt>
      <trkpt lat="46.67234" lon="5.76936">
        <ele>493.9</ele>
        <time>2021-09-12T07:59:50Z</time>
      </trkpt>
      <trkpt lat="46.6723" lon="5.76934">
        <ele>493.9</ele>
        <time>2021-09-12T07:59:54Z</time>
      </trkpt>
      <trkpt lat="46.67225" lon="5.76932">
        <ele>493.6</ele>
        <time>2021-09-12T07:59:58Z</time>
      </trkpt>
      <trkpt lat="46.6722" lon="5.76931">
        <ele>493.4</ele>
        <time>2021-09-12T08:00:02Z</time>
      </trkpt>
      <trkpt lat="46.67215" lon="5.76931">
        <ele>493.1</ele>
        <time>2021-09-12T08:00:06Z</time>
      </trkpt>
      <trkpt lat="46.67211" lon="5.76929">
        <ele>493.2</ele>
        <time>2021-09-12T08:00:10Z</time>
      </trkpt>
      <trkpt lat="46.67206" lon="5.76927">
        <ele>493.8</ele>
        <time>2021-09-12T08:00:15Z</time>
      </trkpt>
      <trkpt lat="46.67202" lon="5.76925">
        <ele>493.9</ele>
        <time>2021-09-12T08:00:19Z</time>
      </trkpt>
      <trkpt lat="46.67197" lon="5.76921">
        <ele>493.4</ele>
        <time>2021-09-12T08:00:24Z</time>
      </trkpt>
      <trkpt lat="46.67192" lon="5.76918">
        <ele>492.1</ele>
        <time>2021-09-12T08:00:29Z</time>
      </trkpt>
      <trkpt lat="46.67186" lon="5.76917">
        <ele>491.1</ele>
        <time>2021-09-12T08:00:34Z</time>
      </trkpt>
      <trkpt lat="46.67182" lon="5.76914">
        <ele>491.1</ele>
        <time>2021-09-12T08:00:39Z</time>
      </trkpt>
      <trkpt lat="46.67177" lon="5.76911">
        <ele>491.6</ele>
        <time>2021-09-12T08:00:44Z</time>
      </trkpt>
      <trkpt lat="46.67173" lon="5.76908">
        <ele>492.1</ele>
        <time>2021-09-12T08:00:48Z</time>
      </trkpt>
      <trkpt lat="46.67167" lon="5.76907">
        <ele>492.5</ele>
        <time>2021-09-12T08:00:53Z</time>
      </trkpt>
      <trkpt lat="46.67162" lon="5.76906">
        <ele>492.8</ele>
        <time>2021-09-12T08:00:58Z</time>
      </trkpt>
      <trkpt lat="46.67157" lon="5.76904">
        <ele>493.4</ele>
        <time>2021-09-12T08:01:03Z</time>
      </trkpt>
      <trkpt lat="46.67151" lon="5.76902">
        <ele>494.2</ele>
        <time>2021-09-12T08:01:08Z</time>
      </trkpt>
      <trkpt lat="46.67146" lon="5.769">
        <ele>494.8</ele>
        <time>2021-09-12T08:01:13Z</time>
      </trkpt>
      <trkpt lat="46.67141" lon="5.76898">
        <ele>495.1</ele>
        <time>2021-09-12T08:01:17Z</time>
      </trkpt>
      <trkpt lat="46.67136" lon="5.76896">
        <ele>495.2</ele>
        <time>2021-09-12T08:01:21Z</time>
      </trkpt>
      <trkpt lat="46.67131" lon="5.76894">
        <ele>495.8</ele>
        <time>2021-09-12T08:01:25Z</time>
      </trkpt>
      <trkpt lat="46.67126" lon="5.76891">
        <ele>496.7</ele>
        <time>2021-09-12T08:01:29Z</time>
      </trkpt>
      <trkpt lat="46.6712" lon="5.7689">
        <ele>497.2</ele>
        <time>2021-09-12T08:01:33Z</time>
      </trkpt>
      <trkpt lat="46.67116" lon="5.7689">
        <ele>497.4</ele>
        <time>2021-09-12T08:01:37Z</time>
      </trkpt>
      <trkpt lat="46.67111" lon="5.76887">
        <ele>496.9</ele>
        <time>2021-09-12T08:01:42Z</time>
      </trkpt>
      <trkpt lat="46.67107" lon="5.76885">
        <ele>495.7</ele>
        <time>2021-09-12T08:01:47Z</time>
      </trkpt>
      <trkpt lat="46.67101" lon="5.76882">
        <ele>494.9</ele>
        <time>2021-09-12T08:01:52Z</time>
      </trkpt>
      <trkpt lat="46.67096" lon="5.76882">
        <ele>494.5</ele>
        <time>2021-09-12T08:01:56Z</time>
      </trkpt>
      <trkpt lat="46.67091" lon="5.76881">
        <ele>494.3</ele>
        <time>2021-09-12T08:02:00Z</time>
      </trkpt>
      <trkpt lat="46.67087" lon="5.76879">
        <ele>494.5</ele>
        <time>2021-09-12T08:02:04Z</time>
      </trkpt>
      <trkpt lat="46.67083" lon="5.76877">
        <ele>494.4</ele>
        <time>2021-09-12T08:02:08Z</time>
      </trkpt>
      <trkpt lat="46.67077" lon="5.76874">
        <ele>493.8</ele>
        <time>2021-09-12T08:02:13Z</time>
      </trkpt>
      <trkpt lat="46.67072" lon="5.76872">
        <ele>493</ele>
        <time>2021-09-12T08:02:17Z</time>
      </trkpt>
      <trkpt lat="46.67068" lon="5.76871">
        <ele>492.6</ele>
        <time>2021-09-12T08:02:21Z</time>
      </trkpt>
      <trkpt lat="46.67063" lon="5.7687">
        <ele>492.3</ele>
        <time>2021-09-12T08:02:26Z</time>
      </trkpt>
      <trkpt lat="46.67058" lon="5.76868">
        <ele>493.1</ele>
        <time>2021-09-12T08:02:31Z</time>
      </trkpt>
      <trkpt lat="46.67053" lon="5.76867">
        <ele>494</ele>
        <time>2021-09-12T08:02:35Z</time>
      </trkpt>
      <trkpt lat="46.67048" lon="5.76865">
        <ele>494.3</ele>
        <time>2021-09-12T08:02:40Z</time>
      </trkpt>
      <trkpt lat="46.67043" lon="5.76863">
        <ele>493.8</ele>
        <time>2021-09-12T08:02:45Z</time>
      </trkpt>
      <trkpt lat="46.67039" lon="5.7686">
        <ele>493.5</ele>
        <time>2021-09-12T08:02:49Z</time>
      </trkpt>
      <trkpt lat="46.67035" lon="5.76856">
        <ele>494.1</ele>
        <time>2021-09-12T08:02:56Z</time>
      </trkpt>
      <trkpt lat="46.6703" lon="5.76857">
        <ele>497.3</ele>
        <time>2021-09-12T08:05:45Z</time>
      </trkpt>
      <trkpt lat="46.67025" lon="5.76858">
        <ele>497.6</ele>
        <time>2021-09-12T08:05:50Z</time>
      </trkpt>
      <trkpt lat="46.6702" lon="5.76856">
        <ele>497.6</ele>
        <time>2021-09-12T08:05:55Z</time>
      </trkpt>
      <trkpt lat="46.67016" lon="5.76852">
        <ele>497.6</ele>
        <time>2021-09-12T08:05:59Z</time>
      </trkpt>
      <trkpt lat="46.67011" lon="5.76851">
        <ele>497.1</ele>
        <time>2021-09-12T08:06:04Z</time>
      </trkpt>
      <trkpt lat="46.67006" lon="5.7685">
        <ele>496.7</ele>
        <time>2021-09-12T08:06:09Z</time>
      </trkpt>
      <trkpt lat="46.67001" lon="5.76849">
        <ele>495.4</ele>
        <time>2021-09-12T08:06:14Z</time>
      </trkpt>
      <trkpt lat="46.66996" lon="5.76847">
        <ele>494.5</ele>
        <time>2021-09-12T08:06:19Z</time>
      </trkpt>
      <trkpt lat="46.66991" lon="5.76844">
        <ele>494.8</ele>
        <time>2021-09-12T08:06:24Z</time>
      </trkpt>
      <trkpt lat="46.66986" lon="5.76843">
        <ele>495.4</ele>
        <time>2021-09-12T08:06:29Z</time>
      </trkpt>
      <trkpt lat="46.66982" lon="5.76841">
        <ele>495.9</ele>
        <time>2021-09-12T08:06:33Z</time>
      </trkpt>
      <trkpt lat="46.66977" lon="5.7684">
        <ele>495.9</ele>
        <time>2021-09-12T08:06:37Z</time>
      </trkpt>
      <trkpt lat="46.66972" lon="5.76838">
        <ele>494.8</ele>
        <time>2021-09-12T08:06:42Z</time>
      </trkpt>
      <trkpt lat="46.66967" lon="5.76837">
        <ele>493.8</ele>
        <time>2021-09-12T08:06:46Z</time>
      </trkpt>
      <trkpt lat="46.66962" lon="5.76836">
        <ele>492.7</ele>
        <time>2021-09-12T08:06:50Z</time>
      </trkpt>
      <trkpt lat="46.66956" lon="5.76834">
        <ele>491.5</ele>
        <time>2021-09-12T08:06:55Z</time>
      </trkpt>
      <trkpt lat="46.66951" lon="5.76831">
        <ele>490.8</ele>
        <time>2021-09-12T08:07:00Z</time>
      </trkpt>
      <trkpt lat="46.66946" lon="5.7683">
        <ele>490.3</ele>
        <time>2021-09-12T08:07:04Z</time>
      </trkpt>
      <trkpt lat="46.66941" lon="5.76827">
        <ele>490.2</ele>
        <time>2021-09-12T08:07:08Z</time>
      </trkpt>
      <trkpt lat="46.66936" lon="5.76824">
        <ele>490.3</ele>
        <time>2021-09-12T08:07:13Z</time>
      </trkpt>
      <trkpt lat="46.66931" lon="5.76823">
        <ele>490.7</ele>
        <time>2021-09-12T08:07:17Z</time>
      </trkpt>
      <trkpt lat="46.66927" lon="5.76821">
        <ele>491.8</ele>
        <time>2021-09-12T08:07:21Z</time>
      </trkpt>
      <trkpt lat="46.66922" lon="5.7682">
        <ele>493.1</ele>
        <time>2021-09-12T08:07:25Z</time>
      </trkpt>
      <trkpt lat="46.66917" lon="5.7682">
        <ele>494.3</ele>
        <time>2021-09-12T08:07:30Z</time>
      </trkpt>
      <trkpt lat="46.66912" lon="5.76818">
        <ele>495.3</ele>
        <time>2021-09-12T08:07:35Z</time>
      </trkpt>
      <trkpt lat="46.66907" lon="5.76815">
        <ele>496.5</ele>
        <time>2021-09-12T08:07:40Z</time>
      </trkpt>
      <trkpt lat="46.66903" lon="5.76814">
        <ele>497.1</ele>
        <time>2021-09-12T08:07:44Z</time>
      </trkpt>
      <trkpt lat="46.66898" lon="5.76812">
        <ele>497.7</ele>
        <time>2021-09-12T08:07:49Z</time>
      </trkpt>
      <trkpt lat="46.66893" lon="5.76811">
        <ele>497.7</ele>
        <time>2021-09-12T08:07:54Z</time>
      </trkpt>
      <trkpt lat="46.66888" lon="5.7681">
        <ele>497.5</ele>
        <time>2021-09-12T08:07:58Z</time>
      </trkpt>
      <trkpt lat="46.66883" lon="5.76809">
        <ele>497.3</ele>
        <time>2021-09-12T08:08:02Z</time>
      </trkpt>
      <trkpt lat="46.66878" lon="5.76808">
        <ele>497.1</ele>
        <time>2021-09-12T08:08:07Z</time>
      </trkpt>
      <trkpt lat="46.66874" lon="5.76806">
        <ele>497.7</ele>
        <time>2021-09-12T08:08:11Z</time>
      </trkpt>
      <trkpt lat="46.66869" lon="5.76805">
        <ele>498.4</ele>
        <time>2021-09-12T08:08:16Z</time>
      </trkpt>
      <trkpt lat="46.66863" lon="5.76802">
        <ele>499.1</ele>
        <time>2021-09-12T08:08:21Z</time>
      </trkpt>
      <trkpt lat="46.66859" lon="5.76799">
        <ele>499</ele>
        <time>2021-09-12T08:08:25Z</time>
      </trkpt>
      <trkpt lat="46.66856" lon="5.76794">
        <ele>498.6</ele>
        <time>2021-09-12T08:08:30Z</time>
      </trkpt>
      <trkpt lat="46.66851" lon="5.76792">
        <ele>497.8</ele>
        <time>2021-09-12T08:08:34Z</time>
      </trkpt>
      <trkpt lat="46.66846" lon="5.76791">
        <ele>497</ele>
        <time>2021-09-12T08:08:38Z</time>
      </trkpt>
      <trkpt lat="46.66841" lon="5.7679">
        <ele>496.2</ele>
        <time>2021-09-12T08:08:43Z</time>
      </trkpt>
      <trkpt lat="46.66836" lon="5.7679">
        <ele>495.8</ele>
        <time>2021-09-12T08:08:48Z</time>
      </trkpt>
      <trkpt lat="46.66833" lon="5.76796">
        <ele>494.1</ele>
        <time>2021-09-12T08:10:43Z</time>
      </trkpt>
      <trkpt lat="46.66831" lon="5.76802">
        <ele>496</ele>
        <time>2021-09-12T08:11:09Z</time>
      </trkpt>
      <trkpt lat="46.66832" lon="5.7681">
        <ele>497.5</ele>
        <time>2021-09-12T08:11:16Z</time>
      </trkpt>
      <trkpt lat="46.66831" lon="5.76818">
        <ele>497.4</ele>
        <time>2021-09-12T08:11:21Z</time>
      </trkpt>
      <trkpt lat="46.66831" lon="5.76825">
        <ele>496.7</ele>
        <time>2021-09-12T08:11:26Z</time>
      </trkpt>
      <trkpt lat="46.6683" lon="5.76832">
        <ele>496</ele>
        <time>2021-09-12T08:11:31Z</time>
      </trkpt>
      <trkpt lat="46.6683" lon="5.7684">
        <ele>495.2</ele>
        <time>2021-09-12T08:11:36Z</time>
      </trkpt>
      <trkpt lat="46.66829" lon="5.76848">
        <ele>493.8</ele>
        <time>2021-09-12T08:11:41Z</time>
      </trkpt>
      <trkpt lat="46.6683" lon="5.76855">
        <ele>493</ele>
        <time>2021-09-12T08:11:45Z</time>
      </trkpt>
      <trkpt lat="46.66831" lon="5.76861">
        <ele>492.8</ele>
        <time>2021-09-12T08:11:48Z</time>
      </trkpt>
      <trkpt lat="46.66832" lon="5.76869">
        <ele>492.5</ele>
        <time>2021-09-12T08:11:52Z</time>
      </trkpt>
      <trkpt lat="46.66833" lon="5.76876">
        <ele>492.4</ele>
        <time>2021-09-12T08:11:56Z</time>
      </trkpt>
      <trkpt lat="46.66833" lon="5.76883">
        <ele>492.2</ele>
        <time>2021-09-12T08:12:01Z</time>
      </trkpt>
      <trkpt lat="46.66832" lon="5.76891">
        <ele>492.2</ele>
        <time>2021-09-12T08:12:06Z</time>
      </trkpt>
      <trkpt lat="46.66832" lon="5.76899">
        <ele>492.9</ele>
        <time>2021-09-12T08:12:11Z</time>
      </trkpt>
      <trkpt lat="46.66833" lon="5.76906">
        <ele>493.5</ele>
        <time>2021-09-12T08:12:15Z</time>
      </trkpt>
      <trkpt lat="46.66833" lon="5.76912">
        <ele>494.4</ele>
        <time>2021-09-12T08:12:19Z</time>
      </trkpt>
      <trkpt lat="46.66834" lon="5.76919">
        <ele>495.1</ele>
        <time>2021-09-12T08:12:23Z</time>
      </trkpt>
      <trkpt lat="46.66835" lon="5.76926">
        <ele>495.7</ele>
        <time>2021-09-12T08:12:27Z</time>
      </trkpt>
      <trkpt lat="46.66834" lon="5.76933">
        <ele>495.7</ele>
        <time>2021-09-12T08:12:31Z</time>
      </trkpt>
      <trkpt lat="46.66834" lon="5.7694">
        <ele>495.5</ele>
        <time>2021-09-12T08:12:35Z</time>
      </trkpt>
      <trkpt lat="46.66835" lon="5.76947">
        <ele>495.9</ele>
        <time>2021-09-12T08:12:39Z</time>
      </trkpt>
      <trkpt lat="46.66835" lon="5.76954">
        <ele>497.1</ele>
        <time>2021-09-12T08:12:44Z</time>
      </trkpt>
      <trkpt lat="46.66834" lon="5.76961">
        <ele>497.9</ele>
        <time>2021-09-12T08:12:49Z</time>
      </trkpt>
      <trkpt lat="46.66834" lon="5.76968">
        <ele>497.9</ele>
        <time>2021-09-12T08:12:53Z</time>
      </trkpt>
      <trkpt lat="46.66835" lon="5.76975">
        <ele>497.8</ele>
        <time>2021-09-12T08:12:57Z</time>
      </trkpt>
      <trkpt lat="46.66836" lon="5.76983">
        <ele>497.5</ele>
        <time>2021-09-12T08:13:01Z</time>
      </trkpt>
      <trkpt lat="46.66835" lon="5.76991">
        <ele>497.3</ele>
        <time>2021-09-12T08:13:05Z</time>
      </trkpt>
      <trkpt lat="46.66835" lon="5.76998">
        <ele>496.8</ele>
        <time>2021-09-12T08:13:10Z</time>
      </trkpt>
      <trkpt lat="46.66836" lon="5.77006">
        <ele>496.6</ele>
        <time>2021-09-12T08:13:14Z</time>
      </trkpt>
      <trkpt lat="46.66835" lon="5.77013">
        <ele>496.1</ele>
        <time>2021-09-12T08:13:18Z</time>
      </trkpt>
      <trkpt lat="46.66833" lon="5.7702">
        <ele>496.2</ele>
        <time>2021-09-12T08:13:22Z</time>
      </trkpt>
      <trkpt lat="46.66828" lon="5.77021">
        <ele>496</ele>
        <time>2021-09-12T08:13:29Z</time>
      </trkpt>
      <trkpt lat="46.66823" lon="5.77021">
        <ele>495.8</ele>
        <time>2021-09-12T08:13:34Z</time>
      </trkpt>
      <trkpt lat="46.66817" lon="5.77022">
        <ele>495.9</ele>
        <time>2021-09-12T08:13:39Z</time>
      </trkpt>
      <trkpt lat="46.66812" lon="5.77023">
        <ele>495.8</ele>
        <time>2021-09-12T08:13:43Z</time>
      </trkpt>
      <trkpt lat="46.66807" lon="5.77021">
        <ele>495.4</ele>
        <time>2021-09-12T08:13:47Z</time>
      </trkpt>
      <trkpt lat="46.66803" lon="5.77019">
        <ele>495.4</ele>
        <time>2021-09-12T08:13:51Z</time>
      </trkpt>
      <trkpt lat="46.66798" lon="5.77018">
        <ele>495.4</ele>
        <time>2021-09-12T08:13:55Z</time>
      </trkpt>
      <trkpt lat="46.66792" lon="5.77016">
        <ele>495.1</ele>
        <time>2021-09-12T08:14:00Z</time>
      </trkpt>
      <trkpt lat="46.66787" lon="5.77016">
        <ele>494.3</ele>
        <time>2021-09-12T08:14:04Z</time>
      </trkpt>
      <trkpt lat="46.66782" lon="5.77016">
        <ele>493.5</ele>
        <time>2021-09-12T08:14:09Z</time>
      </trkpt>
      <trkpt lat="46.66777" lon="5.77016">
        <ele>493.6</ele>
        <time>2021-09-12T08:14:14Z</time>
      </trkpt>
      <trkpt lat="46.66772" lon="5.77017">
        <ele>493.7</ele>
        <time>2021-09-12T08:14:18Z</time>
      </trkpt>
      <trkpt lat="46.66768" lon="5.77017">
        <ele>493.9</ele>
        <time>2021-09-12T08:14:22Z</time>
      </trkpt>
      <trkpt lat="46.66763" lon="5.77018">
        <ele>494.3</ele>
        <time>2021-09-12T08:14:26Z</time>
      </trkpt>
      <trkpt lat="46.66758" lon="5.77017">
        <ele>494.5</ele>
        <time>2021-09-12T08:14:30Z</time>
      </trkpt>
      <trkpt lat="46.66753" lon="5.77016">
        <ele>495.6</ele>
        <time>2021-09-12T08:14:35Z</time>
      </trkpt>
      <trkpt lat="46.66748" lon="5.77015">
        <ele>497.2</ele>
        <time>2021-09-12T08:14:41Z</time>
      </trkpt>
      <trkpt lat="46.66744" lon="5.77014">
        <ele>497.7</ele>
        <time>2021-09-12T08:14:45Z</time>
      </trkpt>
      <trkpt lat="46.66739" lon="5.77014">
        <ele>497.7</ele>
        <time>2021-09-12T08:14:49Z</time>
      </trkpt>
      <trkpt lat="46.66734" lon="5.77013">
        <ele>497.3</ele>
        <time>2021-09-12T08:14:53Z</time>
      </trkpt>
      <trkpt lat="46.66729" lon="5.77015">
        <ele>496.7</ele>
        <time>2021-09-12T08:14:57Z</time>
      </trkpt>
      <trkpt lat="46.66725" lon="5.77017">
        <ele>496.5</ele>
        <time>2021-09-12T08:15:01Z</time>
      </trkpt>
      <trkpt lat="46.66721" lon="5.77021">
        <ele>496.8</ele>
        <time>2021-09-12T08:15:05Z</time>
      </trkpt>
      <trkpt lat="46.66718" lon="5.77025">
        <ele>497.3</ele>
        <time>2021-09-12T08:15:10Z</time>
      </trkpt>
      <trkpt lat="46.66714" lon="5.7703">
        <ele>497.5</ele>
        <time>2021-09-12T08:15:15Z</time>
      </trkpt>
      <trkpt lat="46.6671" lon="5.77034">
        <ele>497.6</ele>
        <time>2021-09-12T08:15:20Z</time>
      </trkpt>
      <trkpt lat="46.66707" lon="5.77038">
        <ele>497.6</ele>
        <time>2021-09-12T08:15:25Z</time>
      </trkpt>
      <trkpt lat="46.66704" lon="5.77045">
        <ele>497.4</ele>
        <time>2021-09-12T08:15:29Z</time>
      </trkpt>
      <trkpt lat="46.66702" lon="5.77052">
        <ele>497</ele>
        <time>2021-09-12T08:15:34Z</time>
      </trkpt>
      <trkpt lat="46.667" lon="5.77059">
        <ele>496.5</ele>
        <time>2021-09-12T08:15:39Z</time>
      </trkpt>
      <trkpt lat="46.66699" lon="5.77065">
        <ele>495.8</ele>
        <time>2021-09-12T08:15:43Z</time>
      </trkpt>
      <trkpt lat="46.66699" lon="5.77073">
        <ele>495.1</ele>
        <time>2021-09-12T08:15:47Z</time>
      </trkpt>
      <trkpt lat="46.66699" lon="5.77081">
        <ele>494.8</ele>
        <time>2021-09-12T08:15:51Z</time>
      </trkpt>
      <trkpt lat="46.66699" lon="5.77089">
        <ele>494.9</ele>
        <time>2021-09-12T08:15:55Z</time>
      </trkpt>
      <trkpt lat="46.66698" lon="5.77097">
        <ele>494.8</ele>
        <time>2021-09-12T08:16:00Z</time>
      </trkpt>
      <trkpt lat="46.66696" lon="5.77104">
        <ele>495.3</ele>
        <time>2021-09-12T08:16:05Z</time>
      </trkpt>
      <trkpt lat="46.66695" lon="5.77112">
        <ele>495.5</ele>
        <time>2021-09-12T08:16:09Z</time>
      </trkpt>
      <trkpt lat="46.66695" lon="5.77119">
        <ele>495.1</ele>
        <time>2021-09-12T08:16:14Z</time>
      </trkpt>
      <trkpt lat="46.66694" lon="5.77126">
        <ele>494.7</ele>
        <time>2021-09-12T08:16:19Z</time>
      </trkpt>
      <trkpt lat="46.66693" lon="5.77133">
        <ele>494.5</ele>
        <time>2021-09-12T08:16:23Z</time>
      </trkpt>
      <trkpt lat="46.66692" lon="5.7714">
        <ele>494.3</ele>
        <time>2021-09-12T08:16:27Z</time>
      </trkpt>
      <trkpt lat="46.66692" lon="5.77147">
        <ele>494.1</ele>
        <time>2021-09-12T08:16:31Z</time>
      </trkpt>
      <trkpt lat="46.66689" lon="5.77155">
        <ele>494.3</ele>
        <time>2021-09-12T08:16:35Z</time>
      </trkpt>
      <trkpt lat="46.66687" lon="5.77161">
        <ele>494.6</ele>
        <time>2021-09-12T08:16:39Z</time>
      </trkpt>
      <trkpt lat="46.66686" lon="5.77168">
        <ele>494.5</ele>
        <time>2021-09-12T08:16:43Z</time>
      </trkpt>
      <trkpt lat="46.66684" lon="5.77175">
        <ele>494</ele>
        <time>2021-09-12T08:16:48Z</time>
      </trkpt>
      <trkpt lat="46.66683" lon="5.77182">
        <ele>493.3</ele>
        <time>2021-09-12T08:16:52Z</time>
      </trkpt>
      <trkpt lat="46.66681" lon="5.77189">
        <ele>492.1</ele>
        <time>2021-09-12T08:16:56Z</time>
      </trkpt>
      <trkpt lat="46.6668" lon="5.77196">
        <ele>491</ele>
        <time>2021-09-12T08:17:00Z</time>
      </trkpt>
      <trkpt lat="46.6668" lon="5.77203">
        <ele>490.6</ele>
        <time>2021-09-12T08:17:04Z</time>
      </trkpt>
      <trkpt lat="46.6668" lon="5.7721">
        <ele>490.1</ele>
        <time>2021-09-12T08:17:08Z</time>
      </trkpt>
      <trkpt lat="46.66678" lon="5.77217">
        <ele>488</ele>
        <time>2021-09-12T08:17:15Z</time>
      </trkpt>
      <trkpt lat="46.66678" lon="5.77224">
        <ele>487.3</ele>
        <time>2021-09-12T08:17:19Z</time>
      </trkpt>
      <trkpt lat="46.66676" lon="5.77232">
        <ele>487.5</ele>
        <time>2021-09-12T08:17:24Z</time>
      </trkpt>
      <trkpt lat="46.66675" lon="5.77239">
        <ele>487.7</ele>
        <time>2021-09-12T08:17:28Z</time>
      </trkpt>
      <trkpt lat="46.66674" lon="5.77246">
        <ele>487.9</ele>
        <time>2021-09-12T08:17:32Z</time>
      </trkpt>
      <trkpt lat="46.66673" lon="5.77254">
        <ele>487.9</ele>
        <time>2021-09-12T08:17:36Z</time>
      </trkpt>
      <trkpt lat="46.66671" lon="5.77261">
        <ele>488.2</ele>
        <time>2021-09-12T08:17:40Z</time>
      </trkpt>
      <trkpt lat="46.6667" lon="5.77268">
        <ele>488.5</ele>
        <time>2021-09-12T08:17:46Z</time>
      </trkpt>
      <trkpt lat="46.66671" lon="5.77275">
        <ele>488.9</ele>
        <time>2021-09-12T08:17:49Z</time>
      </trkpt>
      <trkpt lat="46.66671" lon="5.77282">
        <ele>489.7</ele>
        <time>2021-09-12T08:17:52Z</time>
      </trkpt>
      <trkpt lat="46.66671" lon="5.77289">
        <ele>490.6</ele>
        <time>2021-09-12T08:17:55Z</time>
      </trkpt>
      <trkpt lat="46.6667" lon="5.77296">
        <ele>491.6</ele>
        <time>2021-09-12T08:17:58Z</time>
      </trkpt>
      <trkpt lat="46.66667" lon="5.77302">
        <ele>493</ele>
        <time>2021-09-12T08:18:03Z</time>
      </trkpt>
      <trkpt lat="46.66665" lon="5.77309">
        <ele>493.9</ele>
        <time>2021-09-12T08:18:08Z</time>
      </trkpt>
      <trkpt lat="46.66664" lon="5.77317">
        <ele>493.9</ele>
        <time>2021-09-12T08:18:13Z</time>
      </trkpt>
      <trkpt lat="46.66663" lon="5.77324">
        <ele>493.5</ele>
        <time>2021-09-12T08:18:18Z</time>
      </trkpt>
      <trkpt lat="46.66662" lon="5.77332">
        <ele>493.4</ele>
        <time>2021-09-12T08:18:22Z</time>
      </trkpt>
      <trkpt lat="46.66661" lon="5.7734">
        <ele>493.5</ele>
        <time>2021-09-12T08:18:26Z</time>
      </trkpt>
      <trkpt lat="46.66659" lon="5.77348">
        <ele>493.6</ele>
        <time>2021-09-12T08:18:30Z</time>
      </trkpt>
      <trkpt lat="46.66657" lon="5.77355">
        <ele>493.6</ele>
        <time>2021-09-12T08:18:34Z</time>
      </trkpt>
      <trkpt lat="46.66657" lon="5.77362">
        <ele>492.9</ele>
        <time>2021-09-12T08:18:39Z</time>
      </trkpt>
      <trkpt lat="46.66656" lon="5.7737">
        <ele>492.3</ele>
        <time>2021-09-12T08:18:44Z</time>
      </trkpt>
      <trkpt lat="46.66656" lon="5.77377">
        <ele>491.4</ele>
        <time>2021-09-12T08:18:48Z</time>
      </trkpt>
      <trkpt lat="46.66655" lon="5.77384">
        <ele>490.8</ele>
        <time>2021-09-12T08:18:52Z</time>
      </trkpt>
      <trkpt lat="46.66654" lon="5.77392">
        <ele>489.4</ele>
        <time>2021-09-12T08:18:58Z</time>
      </trkpt>
      <trkpt lat="46.66654" lon="5.774">
        <ele>488.2</ele>
        <time>2021-09-12T08:19:03Z</time>
      </trkpt>
      <trkpt lat="46.66653" lon="5.77406">
        <ele>487.4</ele>
        <time>2021-09-12T08:19:07Z</time>
      </trkpt>
      <trkpt lat="46.66653" lon="5.77414">
        <ele>485.5</ele>
        <time>2021-09-12T08:19:13Z</time>
      </trkpt>
      <trkpt lat="46.66652" lon="5.77421">
        <ele>484.6</ele>
        <time>2021-09-12T08:19:16Z</time>
      </trkpt>
      <trkpt lat="46.66651" lon="5.77428">
        <ele>484.1</ele>
        <time>2021-09-12T08:19:19Z</time>
      </trkpt>
      <trkpt lat="46.66649" lon="5.77435">
        <ele>483.9</ele>
        <time>2021-09-12T08:19:23Z</time>
      </trkpt>
      <trkpt lat="46.66647" lon="5.77443">
        <ele>484.3</ele>
        <time>2021-09-12T08:19:27Z</time>
      </trkpt>
      <trkpt lat="46.66648" lon="5.7745">
        <ele>485.3</ele>
        <time>2021-09-12T08:19:31Z</time>
      </trkpt>
      <trkpt lat="46.66649" lon="5.77457">
        <ele>486.3</ele>
        <time>2021-09-12T08:19:35Z</time>
      </trkpt>
      <trkpt lat="46.66649" lon="5.77464">
        <ele>486.8</ele>
        <time>2021-09-12T08:19:40Z</time>
      </trkpt>
      <trkpt lat="46.66648" lon="5.77471">
        <ele>487.3</ele>
        <time>2021-09-12T08:19:45Z</time>
      </trkpt>
      <trkpt lat="46.66646" lon="5.77478">
        <ele>487.5</ele>
        <time>2021-09-12T08:19:49Z</time>
      </trkpt>
      <trkpt lat="46.66645" lon="5.77485">
        <ele>487.9</ele>
        <time>2021-09-12T08:19:52Z</time>
      </trkpt>
      <trkpt lat="46.66644" lon="5.77492">
        <ele>488.3</ele>
        <time>2021-09-12T08:19:55Z</time>
      </trkpt>
      <trkpt lat="46.66644" lon="5.775">
        <ele>489.4</ele>
        <time>2021-09-12T08:19:59Z</time>
      </trkpt>
      <trkpt lat="46.66644" lon="5.77507">
        <ele>489.9</ele>
        <time>2021-09-12T08:20:05Z</time>
      </trkpt>
      <trkpt lat="46.66644" lon="5.77514">
        <ele>489.9</ele>
        <time>2021-09-12T08:20:09Z</time>
      </trkpt>
      <trkpt lat="46.66642" lon="5.77521">
        <ele>490.2</ele>
        <time>2021-09-12T08:20:13Z</time>
      </trkpt>
      <trkpt lat="46.6664" lon="5.77528">
        <ele>490.1</ele>
        <time>2021-09-12T08:20:17Z</time>
      </trkpt>
      <trkpt lat="46.66638" lon="5.77536">
        <ele>489.9</ele>
        <time>2021-09-12T08:20:22Z</time>
      </trkpt>
      <trkpt lat="46.66636" lon="5.77543">
        <ele>489.8</ele>
        <time>2021-09-12T08:20:26Z</time>
      </trkpt>
      <trkpt lat="46.66635" lon="5.7755">
        <ele>489.8</ele>
        <time>2021-09-12T08:20:30Z</time>
      </trkpt>
      <trkpt lat="46.66634" lon="5.77558">
        <ele>489.2</ele>
        <time>2021-09-12T08:20:35Z</time>
      </trkpt>
      <trkpt lat="46.66632" lon="5.77565">
        <ele>488.7</ele>
        <time>2021-09-12T08:20:40Z</time>
      </trkpt>
      <trkpt lat="46.66631" lon="5.77571">
        <ele>488.2</ele>
        <time>2021-09-12T08:20:44Z</time>
      </trkpt>
      <trkpt lat="46.66629" lon="5.77579">
        <ele>488.1</ele>
        <time>2021-09-12T08:20:48Z</time>
      </trkpt>
      <trkpt lat="46.66628" lon="5.77586">
        <ele>488.4</ele>
        <time>2021-09-12T08:20:52Z</time>
      </trkpt>
      <trkpt lat="46.66628" lon="5.77594">
        <ele>489</ele>
        <time>2021-09-12T08:20:56Z</time>
      </trkpt>
      <trkpt lat="46.66628" lon="5.77601">
        <ele>489.8</ele>
        <time>2021-09-12T08:21:00Z</time>
      </trkpt>
      <trkpt lat="46.66629" lon="5.77608">
        <ele>490.4</ele>
        <time>2021-09-12T08:21:05Z</time>
      </trkpt>
      <trkpt lat="46.6663" lon="5.77616">
        <ele>490.6</ele>
        <time>2021-09-12T08:21:10Z</time>
      </trkpt>
      <trkpt lat="46.66629" lon="5.77623">
        <ele>490</ele>
        <time>2021-09-12T08:21:15Z</time>
      </trkpt>
      <trkpt lat="46.6663" lon="5.77629">
        <ele>489.9</ele>
        <time>2021-09-12T08:21:19Z</time>
      </trkpt>
      <trkpt lat="46.66632" lon="5.77635">
        <ele>489.9</ele>
        <time>2021-09-12T08:21:24Z</time>
      </trkpt>
      <trkpt lat="46.66634" lon="5.77642">
        <ele>489.7</ele>
        <time>2021-09-12T08:21:28Z</time>
      </trkpt>
      <trkpt lat="46.66635" lon="5.77649">
        <ele>489.4</ele>
        <time>2021-09-12T08:21:32Z</time>
      </trkpt>
      <trkpt lat="46.66635" lon="5.77657">
        <ele>488.7</ele>
        <time>2021-09-12T08:21:37Z</time>
      </trkpt>
      <trkpt lat="46.66633" lon="5.77663">
        <ele>485.7</ele>
        <time>2021-09-12T08:21:45Z</time>
      </trkpt>
      <trkpt lat="46.66632" lon="5.7767">
        <ele>483.5</ele>
        <time>2021-09-12T08:21:51Z</time>
      </trkpt>
      <trkpt lat="46.66634" lon="5.77678">
        <ele>482.5</ele>
        <time>2021-09-12T08:21:55Z</time>
      </trkpt>
      <trkpt lat="46.66634" lon="5.77687">
        <ele>482.1</ele>
        <time>2021-09-12T08:21:58Z</time>
      </trkpt>
      <trkpt lat="46.66636" lon="5.77695">
        <ele>482.1</ele>
        <time>2021-09-12T08:22:01Z</time>
      </trkpt>
      <trkpt lat="46.66637" lon="5.77703">
        <ele>482</ele>
        <time>2021-09-12T08:22:05Z</time>
      </trkpt>
      <trkpt lat="46.66637" lon="5.7771">
        <ele>481.7</ele>
        <time>2021-09-12T08:22:10Z</time>
      </trkpt>
      <trkpt lat="46.66638" lon="5.77718">
        <ele>481.6</ele>
        <time>2021-09-12T08:22:14Z</time>
      </trkpt>
      <trkpt lat="46.66639" lon="5.77725">
        <ele>481.4</ele>
        <time>2021-09-12T08:22:18Z</time>
      </trkpt>
      <trkpt lat="46.6664" lon="5.77732">
        <ele>481.6</ele>
        <time>2021-09-12T08:22:22Z</time>
      </trkpt>
      <trkpt lat="46.66639" lon="5.77739">
        <ele>482.2</ele>
        <time>2021-09-12T08:22:26Z</time>
      </trkpt>
      <trkpt lat="46.66638" lon="5.77747">
        <ele>483.5</ele>
        <time>2021-09-12T08:22:32Z</time>
      </trkpt>
      <trkpt lat="46.66637" lon="5.77755">
        <ele>484.1</ele>
        <time>2021-09-12T08:22:37Z</time>
      </trkpt>
      <trkpt lat="46.66638" lon="5.77762">
        <ele>484.3</ele>
        <time>2021-09-12T08:22:41Z</time>
      </trkpt>
      <trkpt lat="46.6664" lon="5.77768">
        <ele>484.6</ele>
        <time>2021-09-12T08:22:45Z</time>
      </trkpt>
      <trkpt lat="46.6664" lon="5.77775">
        <ele>484.7</ele>
        <time>2021-09-12T08:22:49Z</time>
      </trkpt>
      <trkpt lat="46.66638" lon="5.77783">
        <ele>484.8</ele>
        <time>2021-09-12T08:22:54Z</time>
      </trkpt>
      <trkpt lat="46.66637" lon="5.7779">
        <ele>485.2</ele>
        <time>2021-09-12T08:22:58Z</time>
      </trkpt>
      <trkpt lat="46.66637" lon="5.77798">
        <ele>485.8</ele>
        <time>2021-09-12T08:23:02Z</time>
      </trkpt>
      <trkpt lat="46.66637" lon="5.77805">
        <ele>486.5</ele>
        <time>2021-09-12T08:23:06Z</time>
      </trkpt>
      <trkpt lat="46.66638" lon="5.77812">
        <ele>487.5</ele>
        <time>2021-09-12T08:23:11Z</time>
      </trkpt>
      <trkpt lat="46.6664" lon="5.77819">
        <ele>488.5</ele>
        <time>2021-09-12T08:23:16Z</time>
      </trkpt>
      <trkpt lat="46.66643" lon="5.77825">
        <ele>489</ele>
        <time>2021-09-12T08:23:20Z</time>
      </trkpt>
      <trkpt lat="46.66643" lon="5.77832">
        <ele>488.1</ele>
        <time>2021-09-12T08:23:25Z</time>
      </trkpt>
      <trkpt lat="46.66644" lon="5.77839">
        <ele>486.7</ele>
        <time>2021-09-12T08:23:30Z</time>
      </trkpt>
      <trkpt lat="46.66643" lon="5.77846">
        <ele>485.2</ele>
        <time>2021-09-12T08:23:35Z</time>
      </trkpt>
      <trkpt lat="46.66643" lon="5.77853">
        <ele>484.1</ele>
        <time>2021-09-12T08:23:41Z</time>
      </trkpt>
      <trkpt lat="46.66642" lon="5.77861">
        <ele>483.6</ele>
        <time>2021-09-12T08:23:46Z</time>
      </trkpt>
      <trkpt lat="46.66643" lon="5.77868">
        <ele>483.2</ele>
        <time>2021-09-12T08:23:51Z</time>
      </trkpt>
      <trkpt lat="46.66644" lon="5.77875">
        <ele>483.4</ele>
        <time>2021-09-12T08:23:56Z</time>
      </trkpt>
      <trkpt lat="46.66647" lon="5.77882">
        <ele>483.5</ele>
        <time>2021-09-12T08:24:01Z</time>
      </trkpt>
      <trkpt lat="46.66649" lon="5.77888">
        <ele>484.5</ele>
        <time>2021-09-12T08:24:06Z</time>
      </trkpt>
      <trkpt lat="46.66652" lon="5.77895">
        <ele>484.2</ele>
        <time>2021-09-12T08:26:41Z</time>
      </trkpt>
      <trkpt lat="46.66653" lon="5.77902">
        <ele>487.5</ele>
        <time>2021-09-12T08:27:11Z</time>
      </trkpt>
      <trkpt lat="46.66654" lon="5.77909">
        <ele>487.5</ele>
        <time>2021-09-12T08:27:18Z</time>
      </trkpt>
      <trkpt lat="46.66655" lon="5.77916">
        <ele>486.8</ele>
        <time>2021-09-12T08:27:37Z</time>
      </trkpt>
      <trkpt lat="46.66655" lon="5.77923">
        <ele>486.5</ele>
        <time>2021-09-12T08:27:42Z</time>
      </trkpt>
      <trkpt lat="46.66653" lon="5.77929">
        <ele>485.6</ele>
        <time>2021-09-12T08:27:49Z</time>
      </trkpt>
      <trkpt lat="46.66653" lon="5.77936">
        <ele>485.6</ele>
        <time>2021-09-12T08:27:54Z</time>
      </trkpt>
      <trkpt lat="46.66654" lon="5.77943">
        <ele>485.7</ele>
        <time>2021-09-12T08:27:59Z</time>
      </trkpt>
      <trkpt lat="46.66655" lon="5.7795">
        <ele>486.1</ele>
        <time>2021-09-12T08:28:06Z</time>
      </trkpt>
      <trkpt lat="46.66653" lon="5.77956">
        <ele>485.4</ele>
        <time>2021-09-12T08:28:11Z</time>
      </trkpt>
      <trkpt lat="46.66652" lon="5.77964">
        <ele>484.5</ele>
        <time>2021-09-12T08:28:16Z</time>
      </trkpt>
      <trkpt lat="46.66651" lon="5.77972">
        <ele>484.3</ele>
        <time>2021-09-12T08:28:23Z</time>
      </trkpt>
      <trkpt lat="46.66648" lon="5.77978">
        <ele>484.5</ele>
        <time>2021-09-12T08:28:29Z</time>
      </trkpt>
      <trkpt lat="46.66649" lon="5.77985">
        <ele>484.7</ele>
        <time>2021-09-12T08:28:33Z</time>
      </trkpt>
      <trkpt lat="46.66649" lon="5.77993">
        <ele>485.1</ele>
        <time>2021-09-12T08:28:38Z</time>
      </trkpt>
      <trkpt lat="46.66649" lon="5.78">
        <ele>485.7</ele>
        <time>2021-09-12T08:28:44Z</time>
      </trkpt>
      <trkpt lat="46.66647" lon="5.78007">
        <ele>485.9</ele>
        <time>2021-09-12T08:28:49Z</time>
      </trkpt>
      <trkpt lat="46.66645" lon="5.78014">
        <ele>486.4</ele>
        <time>2021-09-12T08:28:55Z</time>
      </trkpt>
      <trkpt lat="46.66643" lon="5.7802">
        <ele>487</ele>
        <time>2021-09-12T08:28:59Z</time>
      </trkpt>
      <trkpt lat="46.66642" lon="5.78028">
        <ele>487.6</ele>
        <time>2021-09-12T08:29:04Z</time>
      </trkpt>
      <trkpt lat="46.6664" lon="5.78034">
        <ele>487.8</ele>
        <time>2021-09-12T08:29:08Z</time>
      </trkpt>
      <trkpt lat="46.66638" lon="5.7804">
        <ele>487.4</ele>
        <time>2021-09-12T08:29:12Z</time>
      </trkpt>
      <trkpt lat="46.66639" lon="5.78047">
        <ele>486.7</ele>
        <time>2021-09-12T08:29:18Z</time>
      </trkpt>
      <trkpt lat="46.66639" lon="5.78055">
        <ele>485.7</ele>
        <time>2021-09-12T08:29:24Z</time>
      </trkpt>
      <trkpt lat="46.66637" lon="5.78061">
        <ele>484.6</ele>
        <time>2021-09-12T08:29:28Z</time>
      </trkpt>
      <trkpt lat="46.66637" lon="5.78068">
        <ele>483.3</ele>
        <time>2021-09-12T08:29:32Z</time>
      </trkpt>
      <trkpt lat="46.66637" lon="5.78075">
        <ele>482.2</ele>
        <time>2021-09-12T08:29:37Z</time>
      </trkpt>
      <trkpt lat="46.66639" lon="5.78082">
        <ele>481.7</ele>
        <time>2021-09-12T08:29:41Z</time>
      </trkpt>
      <trkpt lat="46.66641" lon="5.78088">
        <ele>481.5</ele>
        <time>2021-09-12T08:29:45Z</time>
      </trkpt>
      <trkpt lat="46.6664" lon="5.78095">
        <ele>481.8</ele>
        <time>2021-09-12T08:29:50Z</time>
      </trkpt>
      <trkpt lat="46.66642" lon="5.78103">
        <ele>482.9</ele>
        <time>2021-09-12T08:29:55Z</time>
      </trkpt>
      <trkpt lat="46.66643" lon="5.78111">
        <ele>483.7</ele>
        <time>2021-09-12T08:30:00Z</time>
      </trkpt>
      <trkpt lat="46.66643" lon="5.78119">
        <ele>484.3</ele>
        <time>2021-09-12T08:30:05Z</time>
      </trkpt>
      <trkpt lat="46.66644" lon="5.78126">
        <ele>484.9</ele>
        <time>2021-09-12T08:30:10Z</time>
      </trkpt>
      <trkpt lat="46.66645" lon="5.78134">
        <ele>485.4</ele>
        <time>2021-09-12T08:30:17Z</time>
      </trkpt>
      <trkpt lat="46.66646" lon="5.78141">
        <ele>486.2</ele>
        <time>2021-09-12T08:30:22Z</time>
      </trkpt>
      <trkpt lat="46.66648" lon="5.78148">
        <ele>487.4</ele>
        <time>2021-09-12T08:30:27Z</time>
      </trkpt>
      <trkpt lat="46.66648" lon="5.78156">
        <ele>488.6</ele>
        <time>2021-09-12T08:30:31Z</time>
      </trkpt>
      <trkpt lat="46.66646" lon="5.78163">
        <ele>489.4</ele>
        <time>2021-09-12T08:30:36Z</time>
      </trkpt>
      <trkpt lat="46.66645" lon="5.78169">
        <ele>489.7</ele>
        <time>2021-09-12T08:30:40Z</time>
      </trkpt>
      <trkpt lat="46.66643" lon="5.78176">
        <ele>489.4</ele>
        <time>2021-09-12T08:30:46Z</time>
      </trkpt>
      <trkpt lat="46.66639" lon="5.78181">
        <ele>489.2</ele>
        <time>2021-09-12T08:30:50Z</time>
      </trkpt>
      <trkpt lat="46.66636" lon="5.78186">
        <ele>489.1</ele>
        <time>2021-09-12T08:30:54Z</time>
      </trkpt>
      <trkpt lat="46.66633" lon="5.78192">
        <ele>489.8</ele>
        <time>2021-09-12T08:30:58Z</time>
      </trkpt>
      <trkpt lat="46.66629" lon="5.78196">
        <ele>491.5</ele>
        <time>2021-09-12T08:31:03Z</time>
      </trkpt>
      <trkpt lat="46.66624" lon="5.78194">
        <ele>493.5</ele>
        <time>2021-09-12T08:31:10Z</time>
      </trkpt>
      <trkpt lat="46.6662" lon="5.7819">
        <ele>494.2</ele>
        <time>2021-09-12T08:31:14Z</time>
      </trkpt>
      <trkpt lat="46.66615" lon="5.7819">
        <ele>494.5</ele>
        <time>2021-09-12T08:31:19Z</time>
      </trkpt>
      <trkpt lat="46.6661" lon="5.78188">
        <ele>494.5</ele>
        <time>2021-09-12T08:31:26Z</time>
      </trkpt>
      <trkpt lat="46.66606" lon="5.7819">
        <ele>494.2</ele>
        <time>2021-09-12T08:31:31Z</time>
      </trkpt>
      <trkpt lat="46.66601" lon="5.78191">
        <ele>494.6</ele>
        <time>2021-09-12T08:31:38Z</time>
      </trkpt>
      <trkpt lat="46.66596" lon="5.78188">
        <ele>495.1</ele>
        <time>2021-09-12T08:31:43Z</time>
      </trkpt>
      <trkpt lat="46.66592" lon="5.78189">
        <ele>495.3</ele>
        <time>2021-09-12T08:31:47Z</time>
      </trkpt>
      <trkpt lat="46.66587" lon="5.78189">
        <ele>495.4</ele>
        <time>2021-09-12T08:31:53Z</time>
      </trkpt>
      <trkpt lat="46.66582" lon="5.78192">
        <ele>496.1</ele>
        <time>2021-09-12T08:31:59Z</time>
      </trkpt>
      <trkpt lat="46.66577" lon="5.78191">
        <ele>497.1</ele>
        <time>2021-09-12T08:32:07Z</time>
      </trkpt>
      <trkpt lat="46.66573" lon="5.78191">
        <ele>498</ele>
        <time>2021-09-12T08:32:12Z</time>
      </trkpt>
      <trkpt lat="46.66568" lon="5.7819">
        <ele>499.3</ele>
        <time>2021-09-12T08:32:17Z</time>
      </trkpt>
      <trkpt lat="46.66563" lon="5.7819">
        <ele>500.2</ele>
        <time>2021-09-12T08:32:21Z</time>
      </trkpt>
      <trkpt lat="46.6656" lon="5.78185">
        <ele>500.7</ele>
        <time>2021-09-12T08:32:26Z</time>
      </trkpt>
      <trkpt lat="46.66556" lon="5.7818">
        <ele>500.5</ele>
        <time>2021-09-12T08:32:31Z</time>
      </trkpt>
      <trkpt lat="46.66551" lon="5.78181">
        <ele>500.1</ele>
        <time>2021-09-12T08:32:36Z</time>
      </trkpt>
      <trkpt lat="46.66546" lon="5.78183">
        <ele>499.9</ele>
        <time>2021-09-12T08:32:40Z</time>
      </trkpt>
      <trkpt lat="46.66542" lon="5.78186">
        <ele>499.8</ele>
        <time>2021-09-12T08:32:46Z</time>
      </trkpt>
      <trkpt lat="46.66538" lon="5.78191">
        <ele>500.4</ele>
        <time>2021-09-12T08:32:51Z</time>
      </trkpt>
      <trkpt lat="46.66535" lon="5.78195">
        <ele>501</ele>
        <time>2021-09-12T08:32:55Z</time>
      </trkpt>
      <trkpt lat="46.66531" lon="5.782">
        <ele>501.8</ele>
        <time>2021-09-12T08:32:59Z</time>
      </trkpt>
      <trkpt lat="46.66526" lon="5.78203">
        <ele>502.7</ele>
        <time>2021-09-12T08:33:03Z</time>
      </trkpt>
      <trkpt lat="46.66522" lon="5.78205">
        <ele>503</ele>
        <time>2021-09-12T08:33:07Z</time>
      </trkpt>
      <trkpt lat="46.66517" lon="5.78208">
        <ele>503.3</ele>
        <time>2021-09-12T08:33:11Z</time>
      </trkpt>
      <trkpt lat="46.66513" lon="5.78212">
        <ele>503.6</ele>
        <time>2021-09-12T08:33:16Z</time>
      </trkpt>
      <trkpt lat="46.66508" lon="5.78214">
        <ele>504</ele>
        <time>2021-09-12T08:33:22Z</time>
      </trkpt>
      <trkpt lat="46.66503" lon="5.78217">
        <ele>505.1</ele>
        <time>2021-09-12T08:33:27Z</time>
      </trkpt>
      <trkpt lat="46.665" lon="5.78223">
        <ele>506.2</ele>
        <time>2021-09-12T08:33:32Z</time>
      </trkpt>
      <trkpt lat="46.66496" lon="5.78227">
        <ele>506.5</ele>
        <time>2021-09-12T08:33:37Z</time>
      </trkpt>
      <trkpt lat="46.66491" lon="5.7823">
        <ele>506</ele>
        <time>2021-09-12T08:33:41Z</time>
      </trkpt>
      <trkpt lat="46.66487" lon="5.78235">
        <ele>505.3</ele>
        <time>2021-09-12T08:33:45Z</time>
      </trkpt>
      <trkpt lat="46.66483" lon="5.78238">
        <ele>504.1</ele>
        <time>2021-09-12T08:33:51Z</time>
      </trkpt>
      <trkpt lat="46.66477" lon="5.78241">
        <ele>503.1</ele>
        <time>2021-09-12T08:33:58Z</time>
      </trkpt>
      <trkpt lat="46.66476" lon="5.78248">
        <ele>503.1</ele>
        <time>2021-09-12T08:34:02Z</time>
      </trkpt>
      <trkpt lat="46.66475" lon="5.78255">
        <ele>503.4</ele>
        <time>2021-09-12T08:34:06Z</time>
      </trkpt>
      <trkpt lat="46.66474" lon="5.78262">
        <ele>502.6</ele>
        <time>2021-09-12T08:34:19Z</time>
      </trkpt>
      <trkpt lat="46.66476" lon="5.78269">
        <ele>501.7</ele>
        <time>2021-09-12T08:34:28Z</time>
      </trkpt>
      <trkpt lat="46.66479" lon="5.78275">
        <ele>501</ele>
        <time>2021-09-12T08:34:33Z</time>
      </trkpt>
      <trkpt lat="46.66481" lon="5.78282">
        <ele>501.3</ele>
        <time>2021-09-12T08:34:39Z</time>
      </trkpt>
      <trkpt lat="46.66483" lon="5.78289">
        <ele>502.8</ele>
        <time>2021-09-12T08:34:46Z</time>
      </trkpt>
      <trkpt lat="46.66488" lon="5.7829">
        <ele>504</ele>
        <time>2021-09-12T08:34:52Z</time>
      </trkpt>
      <trkpt lat="46.66493" lon="5.78291">
        <ele>504.7</ele>
        <time>2021-09-12T08:34:56Z</time>
      </trkpt>
      <trkpt lat="46.66497" lon="5.78297">
        <ele>506.3</ele>
        <time>2021-09-12T08:35:06Z</time>
      </trkpt>
      <trkpt lat="46.66497" lon="5.78304">
        <ele>507.2</ele>
        <time>2021-09-12T08:35:10Z</time>
      </trkpt>
      <trkpt lat="46.66498" lon="5.7831">
        <ele>508.6</ele>
        <time>2021-09-12T08:35:14Z</time>
      </trkpt>
      <trkpt lat="46.66497" lon="5.78318">
        <ele>510</ele>
        <time>2021-09-12T08:35:19Z</time>
      </trkpt>
      <trkpt lat="46.66493" lon="5.78322">
        <ele>510.2</ele>
        <time>2021-09-12T08:35:24Z</time>
      </trkpt>
      <trkpt lat="46.66491" lon="5.78327">
        <ele>509.1</ele>
        <time>2021-09-12T08:35:30Z</time>
      </trkpt>
      <trkpt lat="46.6649" lon="5.78335">
        <ele>508.2</ele>
        <time>2021-09-12T08:35:37Z</time>
      </trkpt>
      <trkpt lat="46.6649" lon="5.78343">
        <ele>507.4</ele>
        <time>2021-09-12T08:35:42Z</time>
      </trkpt>
      <trkpt lat="46.66491" lon="5.7835">
        <ele>507</ele>
        <time>2021-09-12T08:35:48Z</time>
      </trkpt>
      <trkpt lat="46.66491" lon="5.78358">
        <ele>506.7</ele>
        <time>2021-09-12T08:35:55Z</time>
      </trkpt>
      <trkpt lat="46.66491" lon="5.78365">
        <ele>506.8</ele>
        <time>2021-09-12T08:35:59Z</time>
      </trkpt>
      <trkpt lat="46.66488" lon="5.78371">
        <ele>505.8</ele>
        <time>2021-09-12T08:36:04Z</time>
      </trkpt>
      <trkpt lat="46.66487" lon="5.78378">
        <ele>505.2</ele>
        <time>2021-09-12T08:36:11Z</time>
      </trkpt>
      <trkpt lat="46.66485" lon="5.78386">
        <ele>505.7</ele>
        <time>2021-09-12T08:36:16Z</time>
      </trkpt>
      <trkpt lat="46.66485" lon="5.78392">
        <ele>506.6</ele>
        <time>2021-09-12T08:36:20Z</time>
      </trkpt>
      <trkpt lat="46.66485" lon="5.78399">
        <ele>508</ele>
        <time>2021-09-12T08:36:24Z</time>
      </trkpt>
      <trkpt lat="46.66484" lon="5.78405">
        <ele>510.2</ele>
        <time>2021-09-12T08:36:29Z</time>
      </trkpt>
      <trkpt lat="46.66481" lon="5.78411">
        <ele>511.7</ele>
        <time>2021-09-12T08:36:33Z</time>
      </trkpt>
      <trkpt lat="46.66479" lon="5.78417">
        <ele>513.3</ele>
        <time>2021-09-12T08:36:37Z</time>
      </trkpt>
      <trkpt lat="46.66477" lon="5.78423">
        <ele>515</ele>
        <time>2021-09-12T08:36:41Z</time>
      </trkpt>
      <trkpt lat="46.66474" lon="5.7843">
        <ele>517</ele>
        <time>2021-09-12T08:36:47Z</time>
      </trkpt>
      <trkpt lat="46.6647" lon="5.78432">
        <ele>516.9</ele>
        <time>2021-09-12T08:36:53Z</time>
      </trkpt>
      <trkpt lat="46.66468" lon="5.78438">
        <ele>516.4</ele>
        <time>2021-09-12T08:36:59Z</time>
      </trkpt>
      <trkpt lat="46.66466" lon="5.78445">
        <ele>516.4</ele>
        <time>2021-09-12T08:37:04Z</time>
      </trkpt>
      <trkpt lat="46.66464" lon="5.78452">
        <ele>515.6</ele>
        <time>2021-09-12T08:37:11Z</time>
      </trkpt>
      <trkpt lat="46.66466" lon="5.78459">
        <ele>515.1</ele>
        <time>2021-09-12T08:37:16Z</time>
      </trkpt>
      <trkpt lat="46.66466" lon="5.78466">
        <ele>515</ele>
        <time>2021-09-12T08:37:20Z</time>
      </trkpt>
      <trkpt lat="46.66467" lon="5.78472">
        <ele>514.8</ele>
        <time>2021-09-12T08:37:25Z</time>
      </trkpt>
      <trkpt lat="46.66469" lon="5.78479">
        <ele>515.1</ele>
        <time>2021-09-12T08:37:30Z</time>
      </trkpt>
      <trkpt lat="46.6647" lon="5.78487">
        <ele>515.7</ele>
        <time>2021-09-12T08:37:34Z</time>
      </trkpt>
      <trkpt lat="46.66471" lon="5.78494">
        <ele>516.3</ele>
        <time>2021-09-12T08:37:37Z</time>
      </trkpt>
      <trkpt lat="46.6647" lon="5.78502">
        <ele>517.6</ele>
        <time>2021-09-12T08:37:41Z</time>
      </trkpt>
      <trkpt lat="46.66468" lon="5.78509">
        <ele>519.8</ele>
        <time>2021-09-12T08:37:47Z</time>
      </trkpt>
      <trkpt lat="46.66467" lon="5.78516">
        <ele>520.1</ele>
        <time>2021-09-12T08:37:52Z</time>
      </trkpt>
      <trkpt lat="46.66467" lon="5.78523">
        <ele>520</ele>
        <time>2021-09-12T08:37:56Z</time>
      </trkpt>
      <trkpt lat="46.66468" lon="5.78531">
        <ele>519.9</ele>
        <time>2021-09-12T08:38:01Z</time>
      </trkpt>
      <trkpt lat="46.66468" lon="5.78538">
        <ele>520.1</ele>
        <time>2021-09-12T08:38:07Z</time>
      </trkpt>
      <trkpt lat="46.66471" lon="5.78544">
        <ele>520.5</ele>
        <time>2021-09-12T08:38:15Z</time>
      </trkpt>
      <trkpt lat="46.66469" lon="5.7855">
        <ele>520.4</ele>
        <time>2021-09-12T08:38:40Z</time>
      </trkpt>
      <trkpt lat="46.66468" lon="5.78558">
        <ele>520.3</ele>
        <time>2021-09-12T08:38:45Z</time>
      </trkpt>
      <trkpt lat="46.66468" lon="5.78566">
        <ele>520.2</ele>
        <time>2021-09-12T08:38:52Z</time>
      </trkpt>
      <trkpt lat="46.66468" lon="5.78572">
        <ele>519.5</ele>
        <time>2021-09-12T08:38:57Z</time>
      </trkpt>
      <trkpt lat="46.6647" lon="5.78579">
        <ele>518.4</ele>
        <time>2021-09-12T08:39:02Z</time>
      </trkpt>
      <trkpt lat="46.66471" lon="5.78586">
        <ele>517.4</ele>
        <time>2021-09-12T08:39:07Z</time>
      </trkpt>
      <trkpt lat="46.66473" lon="5.78592">
        <ele>516.7</ele>
        <time>2021-09-12T08:39:14Z</time>
      </trkpt>
      <trkpt lat="46.66474" lon="5.78601">
        <ele>516.5</ele>
        <time>2021-09-12T08:39:19Z</time>
      </trkpt>
      <trkpt lat="46.66474" lon="5.78607">
        <ele>516.4</ele>
        <time>2021-09-12T08:39:22Z</time>
      </trkpt>
      <trkpt lat="46.66474" lon="5.78615">
        <ele>516.2</ele>
        <time>2021-09-12T08:39:26Z</time>
      </trkpt>
      <trkpt lat="46.66475" lon="5.78622">
        <ele>516.3</ele>
        <time>2021-09-12T08:39:31Z</time>
      </trkpt>
      <trkpt lat="46.66476" lon="5.78629">
        <ele>515.7</ele>
        <time>2021-09-12T08:39:38Z</time>
      </trkpt>
      <trkpt lat="46.66477" lon="5.78636">
        <ele>515</ele>
        <time>2021-09-12T08:39:43Z</time>
      </trkpt>
      <trkpt lat="46.66478" lon="5.78644">
        <ele>514.6</ele>
        <time>2021-09-12T08:39:48Z</time>
      </trkpt>
      <trkpt lat="46.66478" lon="5.7865">
        <ele>514.5</ele>
        <time>2021-09-12T08:39:52Z</time>
      </trkpt>
      <trkpt lat="46.66479" lon="5.78658">
        <ele>514.6</ele>
        <time>2021-09-12T08:39:57Z</time>
      </trkpt>
      <trkpt lat="46.66481" lon="5.78665">
        <ele>514.5</ele>
        <time>2021-09-12T08:40:02Z</time>
      </trkpt>
      <trkpt lat="46.66483" lon="5.78672">
        <ele>514.8</ele>
        <time>2021-09-12T08:40:07Z</time>
      </trkpt>
      <trkpt lat="46.66483" lon="5.78678">
        <ele>515</ele>
        <time>2021-09-12T08:40:11Z</time>
      </trkpt>
      <trkpt lat="46.66484" lon="5.78685">
        <ele>515.3</ele>
        <time>2021-09-12T08:40:16Z</time>
      </trkpt>
      <trkpt lat="46.66486" lon="5.78691">
        <ele>515.9</ele>
        <time>2021-09-12T08:40:21Z</time>
      </trkpt>
      <trkpt lat="46.66488" lon="5.78698">
        <ele>516.4</ele>
        <time>2021-09-12T08:40:25Z</time>
      </trkpt>
      <trkpt lat="46.66488" lon="5.78705">
        <ele>516.7</ele>
        <time>2021-09-12T08:40:30Z</time>
      </trkpt>
      <trkpt lat="46.66487" lon="5.78712">
        <ele>516.6</ele>
        <time>2021-09-12T08:40:35Z</time>
      </trkpt>
      <trkpt lat="46.66486" lon="5.7872">
        <ele>516.4</ele>
        <time>2021-09-12T08:40:41Z</time>
      </trkpt>
      <trkpt lat="46.66486" lon="5.78729">
        <ele>515.7</ele>
        <time>2021-09-12T08:40:45Z</time>
      </trkpt>
      <trkpt lat="46.66487" lon="5.78737">
        <ele>514.9</ele>
        <time>2021-09-12T08:40:49Z</time>
      </trkpt>
      <trkpt lat="46.66486" lon="5.78744">
        <ele>513.3</ele>
        <time>2021-09-12T08:40:54Z</time>
      </trkpt>
      <trkpt lat="46.66488" lon="5.78752">
        <ele>512</ele>
        <time>2021-09-12T08:40:58Z</time>
      </trkpt>
      <trkpt lat="46.66489" lon="5.7876">
        <ele>511.7</ele>
        <time>2021-09-12T08:41:02Z</time>
      </trkpt>
      <trkpt lat="46.66487" lon="5.78767">
        <ele>512.6</ele>
        <time>2021-09-12T08:41:06Z</time>
      </trkpt>
      <trkpt lat="46.66486" lon="5.78774">
        <ele>513.8</ele>
        <time>2021-09-12T08:41:10Z</time>
      </trkpt>
      <trkpt lat="46.66485" lon="5.78781">
        <ele>515.2</ele>
        <time>2021-09-12T08:41:15Z</time>
      </trkpt>
      <trkpt lat="46.66485" lon="5.7879">
        <ele>516.2</ele>
        <time>2021-09-12T08:41:19Z</time>
      </trkpt>
      <trkpt lat="46.66484" lon="5.78796">
        <ele>517.1</ele>
        <time>2021-09-12T08:41:24Z</time>
      </trkpt>
      <trkpt lat="46.6648" lon="5.78803">
        <ele>518.8</ele>
        <time>2021-09-12T08:41:52Z</time>
      </trkpt>
      <trkpt lat="46.66476" lon="5.78807">
        <ele>518</ele>
        <time>2021-09-12T08:41:56Z</time>
      </trkpt>
      <trkpt lat="46.66472" lon="5.7881">
        <ele>517.6</ele>
        <time>2021-09-12T08:42:02Z</time>
      </trkpt>
      <trkpt lat="46.66467" lon="5.7881">
        <ele>518.2</ele>
        <time>2021-09-12T08:42:13Z</time>
      </trkpt>
      <trkpt lat="46.66462" lon="5.7881">
        <ele>523.3</ele>
        <time>2021-09-12T08:43:17Z</time>
      </trkpt>
      <trkpt lat="46.66458" lon="5.78805">
        <ele>524</ele>
        <time>2021-09-12T08:43:21Z</time>
      </trkpt>
      <trkpt lat="46.66454" lon="5.78801">
        <ele>524.3</ele>
        <time>2021-09-12T08:43:25Z</time>
      </trkpt>
      <trkpt lat="46.66449" lon="5.78799">
        <ele>524.6</ele>
        <time>2021-09-12T08:43:31Z</time>
      </trkpt>
      <trkpt lat="46.66444" lon="5.78798">
        <ele>524.4</ele>
        <time>2021-09-12T08:43:36Z</time>
      </trkpt>
      <trkpt lat="46.66439" lon="5.78798">
        <ele>524.1</ele>
        <time>2021-09-12T08:43:41Z</time>
      </trkpt>
      <trkpt lat="46.66434" lon="5.78798">
        <ele>524.2</ele>
        <time>2021-09-12T08:43:46Z</time>
      </trkpt>
      <trkpt lat="46.66429" lon="5.78798">
        <ele>524.3</ele>
        <time>2021-09-12T08:43:51Z</time>
      </trkpt>
      <trkpt lat="46.66425" lon="5.78797">
        <ele>524.6</ele>
        <time>2021-09-12T08:43:57Z</time>
      </trkpt>
      <trkpt lat="46.66419" lon="5.78795">
        <ele>524.5</ele>
        <time>2021-09-12T08:44:02Z</time>
      </trkpt>
      <trkpt lat="46.66414" lon="5.78795">
        <ele>524.1</ele>
        <time>2021-09-12T08:44:06Z</time>
      </trkpt>
      <trkpt lat="46.66409" lon="5.78796">
        <ele>524</ele>
        <time>2021-09-12T08:44:11Z</time>
      </trkpt>
      <trkpt lat="46.66403" lon="5.78795">
        <ele>524</ele>
        <time>2021-09-12T08:44:16Z</time>
      </trkpt>
      <trkpt lat="46.66398" lon="5.78794">
        <ele>524</ele>
        <time>2021-09-12T08:44:20Z</time>
      </trkpt>
      <trkpt lat="46.66393" lon="5.78792">
        <ele>524.1</ele>
        <time>2021-09-12T08:44:24Z</time>
      </trkpt>
      <trkpt lat="46.66388" lon="5.7879">
        <ele>523.8</ele>
        <time>2021-09-12T08:44:29Z</time>
      </trkpt>
      <trkpt lat="46.66383" lon="5.78792">
        <ele>523.4</ele>
        <time>2021-09-12T08:44:37Z</time>
      </trkpt>
      <trkpt lat="46.66379" lon="5.78791">
        <ele>523.5</ele>
        <time>2021-09-12T08:44:41Z</time>
      </trkpt>
      <trkpt lat="46.66374" lon="5.7879">
        <ele>523.6</ele>
        <time>2021-09-12T08:44:45Z</time>
      </trkpt>
      <trkpt lat="46.66369" lon="5.7879">
        <ele>523.6</ele>
        <time>2021-09-12T08:44:48Z</time>
      </trkpt>
      <trkpt lat="46.66365" lon="5.78791">
        <ele>523.4</ele>
        <time>2021-09-12T08:44:51Z</time>
      </trkpt>
      <trkpt lat="46.66363" lon="5.78798">
        <ele>523.2</ele>
        <time>2021-09-12T08:44:56Z</time>
      </trkpt>
      <trkpt lat="46.66361" lon="5.78804">
        <ele>522.6</ele>
        <time>2021-09-12T08:45:03Z</time>
      </trkpt>
      <trkpt lat="46.66364" lon="5.7881">
        <ele>521.8</ele>
        <time>2021-09-12T08:45:15Z</time>
      </trkpt>
      <trkpt lat="46.66359" lon="5.78814">
        <ele>521.8</ele>
        <time>2021-09-12T08:45:19Z</time>
      </trkpt>
      <trkpt lat="46.66354" lon="5.78817">
        <ele>522.2</ele>
        <time>2021-09-12T08:45:23Z</time>
      </trkpt>
      <trkpt lat="46.6635" lon="5.78821">
        <ele>523</ele>
        <time>2021-09-12T08:45:27Z</time>
      </trkpt>
      <trkpt lat="46.6635" lon="5.78828">
        <ele>526.1</ele>
        <time>2021-09-12T08:45:40Z</time>
      </trkpt>
      <trkpt lat="46.66351" lon="5.78834">
        <ele>525.3</ele>
        <time>2021-09-12T08:45:47Z</time>
      </trkpt>
      <trkpt lat="46.66346" lon="5.78836">
        <ele>524.5</ele>
        <time>2021-09-12T08:45:54Z</time>
      </trkpt>
      <trkpt lat="46.66341" lon="5.78838">
        <ele>524.1</ele>
        <time>2021-09-12T08:45:59Z</time>
      </trkpt>
      <trkpt lat="46.66335" lon="5.78836">
        <ele>524</ele>
        <time>2021-09-12T08:46:03Z</time>
      </trkpt>
      <trkpt lat="46.66331" lon="5.78837">
        <ele>524.3</ele>
        <time>2021-09-12T08:46:09Z</time>
      </trkpt>
      <trkpt lat="46.66329" lon="5.78843">
        <ele>523.8</ele>
        <time>2021-09-12T08:46:15Z</time>
      </trkpt>
      <trkpt lat="46.66327" lon="5.78849">
        <ele>523.4</ele>
        <time>2021-09-12T08:46:19Z</time>
      </trkpt>
      <trkpt lat="46.66324" lon="5.78855">
        <ele>522.9</ele>
        <time>2021-09-12T08:46:23Z</time>
      </trkpt>
      <trkpt lat="46.66325" lon="5.78863">
        <ele>522.6</ele>
        <time>2021-09-12T08:46:27Z</time>
      </trkpt>
      <trkpt lat="46.66322" lon="5.78868">
        <ele>523.3</ele>
        <time>2021-09-12T08:46:38Z</time>
      </trkpt>
      <trkpt lat="46.66318" lon="5.78867">
        <ele>523.4</ele>
        <time>2021-09-12T08:46:43Z</time>
      </trkpt>
      <trkpt lat="46.66312" lon="5.78865">
        <ele>523.3</ele>
        <time>2021-09-12T08:46:48Z</time>
      </trkpt>
      <trkpt lat="46.66308" lon="5.78869">
        <ele>523.4</ele>
        <time>2021-09-12T08:46:53Z</time>
      </trkpt>
      <trkpt lat="46.66305" lon="5.78874">
        <ele>523.5</ele>
        <time>2021-09-12T08:46:58Z</time>
      </trkpt>
      <trkpt lat="46.66301" lon="5.78877">
        <ele>524.3</ele>
        <time>2021-09-12T08:47:05Z</time>
      </trkpt>
      <trkpt lat="46.66297" lon="5.78882">
        <ele>527.4</ele>
        <time>2021-09-12T08:47:17Z</time>
      </trkpt>
      <trkpt lat="46.66292" lon="5.78886">
        <ele>528.4</ele>
        <time>2021-09-12T08:47:21Z</time>
      </trkpt>
      <trkpt lat="46.66288" lon="5.78888">
        <ele>528.8</ele>
        <time>2021-09-12T08:47:24Z</time>
      </trkpt>
      <trkpt lat="46.66283" lon="5.78888">
        <ele>529</ele>
        <time>2021-09-12T08:47:31Z</time>
      </trkpt>
      <trkpt lat="46.66278" lon="5.78884">
        <ele>529.7</ele>
        <time>2021-09-12T08:47:36Z</time>
      </trkpt>
      <trkpt lat="46.66274" lon="5.78889">
        <ele>530.6</ele>
        <time>2021-09-12T08:47:42Z</time>
      </trkpt>
      <trkpt lat="46.66273" lon="5.78896">
        <ele>531.5</ele>
        <time>2021-09-12T08:47:47Z</time>
      </trkpt>
      <trkpt lat="46.66269" lon="5.78892">
        <ele>531.9</ele>
        <time>2021-09-12T08:48:01Z</time>
      </trkpt>
      <trkpt lat="46.66264" lon="5.78894">
        <ele>532.6</ele>
        <time>2021-09-12T08:48:04Z</time>
      </trkpt>
      <trkpt lat="46.66259" lon="5.78897">
        <ele>533.4</ele>
        <time>2021-09-12T08:48:08Z</time>
      </trkpt>
      <trkpt lat="46.66255" lon="5.78898">
        <ele>533.8</ele>
        <time>2021-09-12T08:48:12Z</time>
      </trkpt>
      <trkpt lat="46.6625" lon="5.78899">
        <ele>533.7</ele>
        <time>2021-09-12T08:48:17Z</time>
      </trkpt>
      <trkpt lat="46.66246" lon="5.78895">
        <ele>535.1</ele>
        <time>2021-09-12T08:48:25Z</time>
      </trkpt>
      <trkpt lat="46.66242" lon="5.78894">
        <ele>536.3</ele>
        <time>2021-09-12T08:48:31Z</time>
      </trkpt>
      <trkpt lat="46.66237" lon="5.78894">
        <ele>537.3</ele>
        <time>2021-09-12T08:48:37Z</time>
      </trkpt>
      <trkpt lat="46.66233" lon="5.78898">
        <ele>539.6</ele>
        <time>2021-09-12T08:48:45Z</time>
      </trkpt>
      <trkpt lat="46.66232" lon="5.78905">
        <ele>541.5</ele>
        <time>2021-09-12T08:48:53Z</time>
      </trkpt>
      <trkpt lat="46.66228" lon="5.78905">
        <ele>542.3</ele>
        <time>2021-09-12T08:49:01Z</time>
      </trkpt>
      <trkpt lat="46.66226" lon="5.78898">
        <ele>542</ele>
        <time>2021-09-12T08:49:08Z</time>
      </trkpt>
      <trkpt lat="46.6623" lon="5.78902">
        <ele>542.5</ele>
        <time>2021-09-12T08:49:22Z</time>
      </trkpt>
      <trkpt lat="46.66234" lon="5.78907">
        <ele>543.8</ele>
        <time>2021-09-12T08:49:32Z</time>
      </trkpt>
      <trkpt lat="46.66229" lon="5.78912">
        <ele>545.1</ele>
        <time>2021-09-12T08:50:09Z</time>
      </trkpt>
      <trkpt lat="46.66228" lon="5.78906">
        <ele>545.3</ele>
        <time>2021-09-12T08:50:19Z</time>
      </trkpt>
      <trkpt lat="46.66222" lon="5.78908">
        <ele>544.5</ele>
        <time>2021-09-12T08:50:32Z</time>
      </trkpt>
      <trkpt lat="46.66227" lon="5.78907">
        <ele>545.6</ele>
        <time>2021-09-12T08:50:46Z</time>
      </trkpt>
      <trkpt lat="46.66232" lon="5.78906">
        <ele>546.6</ele>
        <time>2021-09-12T08:50:50Z</time>
      </trkpt>
      <trkpt lat="46.66228" lon="5.78908">
        <ele>547.8</ele>
        <time>2021-09-12T08:51:06Z</time>
      </trkpt>
      <trkpt lat="46.6623" lon="5.78914">
        <ele>548.6</ele>
        <time>2021-09-12T08:51:16Z</time>
      </trkpt>
      <trkpt lat="46.66233" lon="5.78921">
        <ele>548.6</ele>
        <time>2021-09-12T08:51:20Z</time>
      </trkpt>
      <trkpt lat="46.66235" lon="5.78927">
        <ele>548.7</ele>
        <time>2021-09-12T08:51:25Z</time>
      </trkpt>
      <trkpt lat="46.6624" lon="5.78931">
        <ele>548.6</ele>
        <time>2021-09-12T08:51:30Z</time>
      </trkpt>
      <trkpt lat="46.66244" lon="5.78933">
        <ele>548.3</ele>
        <time>2021-09-12T08:51:33Z</time>
      </trkpt>
      <trkpt lat="46.66249" lon="5.78935">
        <ele>547.5</ele>
        <time>2021-09-12T08:51:40Z</time>
      </trkpt>
      <trkpt lat="46.66253" lon="5.78933">
        <ele>547</ele>
        <time>2021-09-12T08:51:45Z</time>
      </trkpt>
      <trkpt lat="46.66258" lon="5.78932">
        <ele>547.1</ele>
        <time>2021-09-12T08:51:51Z</time>
      </trkpt>
      <trkpt lat="46.66262" lon="5.78934">
        <ele>546.9</ele>
        <time>2021-09-12T08:51:57Z</time>
      </trkpt>
      <trkpt lat="46.66266" lon="5.78939">
        <ele>547.1</ele>
        <time>2021-09-12T08:52:03Z</time>
      </trkpt>
      <trkpt lat="46.66267" lon="5.78946">
        <ele>547.8</ele>
        <time>2021-09-12T08:52:10Z</time>
      </trkpt>
      <trkpt lat="46.6627" lon="5.78954">
        <ele>548.2</ele>
        <time>2021-09-12T08:52:14Z</time>
      </trkpt>
      <trkpt lat="46.66274" lon="5.78959">
        <ele>548.8</ele>
        <time>2021-09-12T08:52:18Z</time>
      </trkpt>
      <trkpt lat="46.66277" lon="5.78966">
        <ele>549.9</ele>
        <time>2021-09-12T08:52:24Z</time>
      </trkpt>
      <trkpt lat="46.66281" lon="5.78969">
        <ele>553.7</ele>
        <time>2021-09-12T08:52:40Z</time>
      </trkpt>
      <trkpt lat="46.66286" lon="5.7897">
        <ele>554.2</ele>
        <time>2021-09-12T08:52:44Z</time>
      </trkpt>
      <trkpt lat="46.6629" lon="5.78975">
        <ele>554.7</ele>
        <time>2021-09-12T08:52:48Z</time>
      </trkpt>
      <trkpt lat="46.66293" lon="5.78981">
        <ele>555</ele>
        <time>2021-09-12T08:52:51Z</time>
      </trkpt>
      <trkpt lat="46.66296" lon="5.78985">
        <ele>555.3</ele>
        <time>2021-09-12T08:52:56Z</time>
      </trkpt>
      <trkpt lat="46.66299" lon="5.7898">
        <ele>555.3</ele>
        <time>2021-09-12T08:53:05Z</time>
      </trkpt>
      <trkpt lat="46.66304" lon="5.78979">
        <ele>554.9</ele>
        <time>2021-09-12T08:53:11Z</time>
      </trkpt>
      <trkpt lat="46.66309" lon="5.78982">
        <ele>555.1</ele>
        <time>2021-09-12T08:53:20Z</time>
      </trkpt>
      <trkpt lat="46.66313" lon="5.78978">
        <ele>556.1</ele>
        <time>2021-09-12T08:53:35Z</time>
      </trkpt>
      <trkpt lat="46.66317" lon="5.78976">
        <ele>555.7</ele>
        <time>2021-09-12T08:53:40Z</time>
      </trkpt>
      <trkpt lat="46.66322" lon="5.78976">
        <ele>555.2</ele>
        <time>2021-09-12T08:53:45Z</time>
      </trkpt>
      <trkpt lat="46.66327" lon="5.78981">
        <ele>555</ele>
        <time>2021-09-12T08:53:49Z</time>
      </trkpt>
      <trkpt lat="46.66332" lon="5.78983">
        <ele>555.1</ele>
        <time>2021-09-12T08:53:53Z</time>
      </trkpt>
      <trkpt lat="46.66336" lon="5.78986">
        <ele>554.7</ele>
        <time>2021-09-12T08:54:02Z</time>
      </trkpt>
      <trkpt lat="46.6634" lon="5.7899">
        <ele>551.8</ele>
        <time>2021-09-12T08:54:16Z</time>
      </trkpt>
      <trkpt lat="46.66343" lon="5.78995">
        <ele>551.6</ele>
        <time>2021-09-12T08:54:24Z</time>
      </trkpt>
      <trkpt lat="46.66348" lon="5.78995">
        <ele>552.4</ele>
        <time>2021-09-12T08:54:31Z</time>
      </trkpt>
      <trkpt lat="46.66353" lon="5.78994">
        <ele>553.6</ele>
        <time>2021-09-12T08:54:35Z</time>
      </trkpt>
      <trkpt lat="46.66359" lon="5.78995">
        <ele>554.7</ele>
        <time>2021-09-12T08:54:39Z</time>
      </trkpt>
      <trkpt lat="46.66363" lon="5.78998">
        <ele>555.5</ele>
        <time>2021-09-12T08:54:43Z</time>
      </trkpt>
      <trkpt lat="46.66367" lon="5.79003">
        <ele>556.5</ele>
        <time>2021-09-12T08:54:51Z</time>
      </trkpt>
      <trkpt lat="46.66371" lon="5.79007">
        <ele>557.2</ele>
        <time>2021-09-12T08:54:54Z</time>
      </trkpt>
      <trkpt lat="46.66373" lon="5.79013">
        <ele>559</ele>
        <time>2021-09-12T08:55:02Z</time>
      </trkpt>
      <trkpt lat="46.66377" lon="5.79017">
        <ele>560.6</ele>
        <time>2021-09-12T08:55:08Z</time>
      </trkpt>
      <trkpt lat="46.6638" lon="5.79023">
        <ele>561.7</ele>
        <time>2021-09-12T08:55:13Z</time>
      </trkpt>
      <trkpt lat="46.66384" lon="5.79025">
        <ele>564</ele>
        <time>2021-09-12T08:55:21Z</time>
      </trkpt>
      <trkpt lat="46.66387" lon="5.79032">
        <ele>565</ele>
        <time>2021-09-12T08:55:32Z</time>
      </trkpt>
      <trkpt lat="46.66387" lon="5.79039">
        <ele>564.9</ele>
        <time>2021-09-12T08:55:35Z</time>
      </trkpt>
      <trkpt lat="46.6639" lon="5.79045">
        <ele>564.6</ele>
        <time>2021-09-12T08:55:38Z</time>
      </trkpt>
      <trkpt lat="46.66392" lon="5.79052">
        <ele>564.1</ele>
        <time>2021-09-12T08:55:44Z</time>
      </trkpt>
      <trkpt lat="46.66395" lon="5.79058">
        <ele>563.9</ele>
        <time>2021-09-12T08:55:49Z</time>
      </trkpt>
      <trkpt lat="46.66398" lon="5.79064">
        <ele>564.7</ele>
        <time>2021-09-12T08:55:55Z</time>
      </trkpt>
      <trkpt lat="46.66402" lon="5.79067">
        <ele>567.6</ele>
        <time>2021-09-12T08:56:05Z</time>
      </trkpt>
      <trkpt lat="46.66407" lon="5.79065">
        <ele>569</ele>
        <time>2021-09-12T08:56:09Z</time>
      </trkpt>
      <trkpt lat="46.66412" lon="5.79066">
        <ele>571.9</ele>
        <time>2021-09-12T08:56:20Z</time>
      </trkpt>
      <trkpt lat="46.66417" lon="5.79062">
        <ele>573.7</ele>
        <time>2021-09-12T08:56:28Z</time>
      </trkpt>
      <trkpt lat="46.66422" lon="5.79059">
        <ele>574.2</ele>
        <time>2021-09-12T08:56:33Z</time>
      </trkpt>
      <trkpt lat="46.66427" lon="5.79056">
        <ele>574.6</ele>
        <time>2021-09-12T08:56:39Z</time>
      </trkpt>
      <trkpt lat="46.66431" lon="5.79056">
        <ele>576.5</ele>
        <time>2021-09-12T08:56:52Z</time>
      </trkpt>
      <trkpt lat="46.66437" lon="5.79056">
        <ele>577.5</ele>
        <time>2021-09-12T08:56:58Z</time>
      </trkpt>
      <trkpt lat="46.66441" lon="5.79058">
        <ele>578.3</ele>
        <time>2021-09-12T08:57:04Z</time>
      </trkpt>
      <trkpt lat="46.66445" lon="5.79062">
        <ele>579.2</ele>
        <time>2021-09-12T08:57:11Z</time>
      </trkpt>
      <trkpt lat="46.66448" lon="5.79067">
        <ele>579.1</ele>
        <time>2021-09-12T08:57:17Z</time>
      </trkpt>
      <trkpt lat="46.66452" lon="5.79071">
        <ele>578.1</ele>
        <time>2021-09-12T08:57:23Z</time>
      </trkpt>
      <trkpt lat="46.66456" lon="5.79075">
        <ele>576.8</ele>
        <time>2021-09-12T08:57:28Z</time>
      </trkpt>
      <trkpt lat="46.6646" lon="5.7908">
        <ele>575.6</ele>
        <time>2021-09-12T08:57:34Z</time>
      </trkpt>
      <trkpt lat="46.66463" lon="5.79084">
        <ele>574.9</ele>
        <time>2021-09-12T08:57:40Z</time>
      </trkpt>
      <trkpt lat="46.66468" lon="5.79084">
        <ele>574.1</ele>
        <time>2021-09-12T08:57:46Z</time>
      </trkpt>
      <trkpt lat="46.66472" lon="5.79082">
        <ele>574</ele>
        <time>2021-09-12T08:57:50Z</time>
      </trkpt>
      <trkpt lat="46.66477" lon="5.79079">
        <ele>573.9</ele>
        <time>2021-09-12T08:57:55Z</time>
      </trkpt>
      <trkpt lat="46.6648" lon="5.79084">
        <ele>572.7</ele>
        <time>2021-09-12T08:58:03Z</time>
      </trkpt>
      <trkpt lat="46.66481" lon="5.79091">
        <ele>571.2</ele>
        <time>2021-09-12T08:58:11Z</time>
      </trkpt>
      <trkpt lat="46.66485" lon="5.79091">
        <ele>572.5</ele>
        <time>2021-09-12T08:58:30Z</time>
      </trkpt>
      <trkpt lat="46.6648" lon="5.79091">
        <ele>572.6</ele>
        <time>2021-09-12T08:58:56Z</time>
      </trkpt>
      <trkpt lat="46.66476" lon="5.79088">
        <ele>572.1</ele>
        <time>2021-09-12T08:59:08Z</time>
      </trkpt>
      <trkpt lat="46.66471" lon="5.79091">
        <ele>578.7</ele>
        <time>2021-09-12T08:59:50Z</time>
      </trkpt>
      <trkpt lat="46.66467" lon="5.79094">
        <ele>579.9</ele>
        <time>2021-09-12T08:59:54Z</time>
      </trkpt>
      <trkpt lat="46.66462" lon="5.79096">
        <ele>580.7</ele>
        <time>2021-09-12T09:00:00Z</time>
      </trkpt>
      <trkpt lat="46.66461" lon="5.79102">
        <ele>581.8</ele>
        <time>2021-09-12T09:00:08Z</time>
      </trkpt>
      <trkpt lat="46.66462" lon="5.79109">
        <ele>582.4</ele>
        <time>2021-09-12T09:00:15Z</time>
      </trkpt>
      <trkpt lat="46.66466" lon="5.79113">
        <ele>582.5</ele>
        <time>2021-09-12T09:00:21Z</time>
      </trkpt>
      <trkpt lat="46.66471" lon="5.79114">
        <ele>582.9</ele>
        <time>2021-09-12T09:00:27Z</time>
      </trkpt>
      <trkpt lat="46.66475" lon="5.79114">
        <ele>583</ele>
        <time>2021-09-12T09:00:31Z</time>
      </trkpt>
      <trkpt lat="46.6648" lon="5.79113">
        <ele>583.2</ele>
        <time>2021-09-12T09:00:35Z</time>
      </trkpt>
      <trkpt lat="46.66484" lon="5.79118">
        <ele>582.7</ele>
        <time>2021-09-12T09:00:41Z</time>
      </trkpt>
      <trkpt lat="46.66489" lon="5.79122">
        <ele>580.9</ele>
        <time>2021-09-12T09:00:46Z</time>
      </trkpt>
      <trkpt lat="46.66492" lon="5.79127">
        <ele>574.6</ele>
        <time>2021-09-12T09:01:43Z</time>
      </trkpt>
      <trkpt lat="46.66488" lon="5.79125">
        <ele>575.6</ele>
        <time>2021-09-12T09:02:11Z</time>
      </trkpt>
      <trkpt lat="46.6649" lon="5.79119">
        <ele>573.7</ele>
        <time>2021-09-12T09:02:55Z</time>
      </trkpt>
      <trkpt lat="46.6649" lon="5.79126">
        <ele>569.4</ele>
        <time>2021-09-12T09:04:23Z</time>
      </trkpt>
      <trkpt lat="46.66486" lon="5.79129">
        <ele>567.6</ele>
        <time>2021-09-12T09:04:38Z</time>
      </trkpt>
      <trkpt lat="46.66482" lon="5.79135">
        <ele>568.5</ele>
        <time>2021-09-12T09:04:43Z</time>
      </trkpt>
      <trkpt lat="46.66479" lon="5.7914">
        <ele>570.4</ele>
        <time>2021-09-12T09:04:56Z</time>
      </trkpt>
      <trkpt lat="46.66476" lon="5.79144">
        <ele>569.6</ele>
        <time>2021-09-12T09:05:09Z</time>
      </trkpt>
      <trkpt lat="46.66476" lon="5.79151">
        <ele>569.9</ele>
        <time>2021-09-12T09:05:14Z</time>
      </trkpt>
      <trkpt lat="46.66475" lon="5.79159">
        <ele>570.6</ele>
        <time>2021-09-12T09:05:20Z</time>
      </trkpt>
      <trkpt lat="46.66474" lon="5.79167">
        <ele>571</ele>
        <time>2021-09-12T09:05:25Z</time>
      </trkpt>
      <trkpt lat="46.66474" lon="5.79174">
        <ele>571.4</ele>
        <time>2021-09-12T09:05:31Z</time>
      </trkpt>
      <trkpt lat="46.66474" lon="5.79181">
        <ele>572.8</ele>
        <time>2021-09-12T09:05:38Z</time>
      </trkpt>
      <trkpt lat="46.66475" lon="5.79188">
        <ele>573.5</ele>
        <time>2021-09-12T09:05:44Z</time>
      </trkpt>
      <trkpt lat="46.66474" lon="5.79195">
        <ele>574.1</ele>
        <time>2021-09-12T09:05:48Z</time>
      </trkpt>
      <trkpt lat="46.66474" lon="5.79202">
        <ele>578.4</ele>
        <time>2021-09-12T09:06:04Z</time>
      </trkpt>
      <trkpt lat="46.66475" lon="5.79209">
        <ele>580</ele>
        <time>2021-09-12T09:06:10Z</time>
      </trkpt>
      <trkpt lat="46.66476" lon="5.79217">
        <ele>581.1</ele>
        <time>2021-09-12T09:06:15Z</time>
      </trkpt>
      <trkpt lat="46.66478" lon="5.79222">
        <ele>582.3</ele>
        <time>2021-09-12T09:06:20Z</time>
      </trkpt>
      <trkpt lat="46.66479" lon="5.79229">
        <ele>584.7</ele>
        <time>2021-09-12T09:06:27Z</time>
      </trkpt>
      <trkpt lat="46.66478" lon="5.79236">
        <ele>585.8</ele>
        <time>2021-09-12T09:06:31Z</time>
      </trkpt>
      <trkpt lat="46.66479" lon="5.79244">
        <ele>586.6</ele>
        <time>2021-09-12T09:06:36Z</time>
      </trkpt>
      <trkpt lat="46.66479" lon="5.7925">
        <ele>587.2</ele>
        <time>2021-09-12T09:06:42Z</time>
      </trkpt>
      <trkpt lat="46.66478" lon="5.79257">
        <ele>587.3</ele>
        <time>2021-09-12T09:06:48Z</time>
      </trkpt>
      <trkpt lat="46.66476" lon="5.79263">
        <ele>586.8</ele>
        <time>2021-09-12T09:06:54Z</time>
      </trkpt>
      <trkpt lat="46.66475" lon="5.79275">
        <ele>585.9</ele>
        <time>2021-09-12T09:07:05Z</time>
      </trkpt>
      <trkpt lat="46.66475" lon="5.79283">
        <ele>585.5</ele>
        <time>2021-09-12T09:07:08Z</time>
      </trkpt>
      <trkpt lat="46.66473" lon="5.7929">
        <ele>584.9</ele>
        <time>2021-09-12T09:07:13Z</time>
      </trkpt>
      <trkpt lat="46.66473" lon="5.79298">
        <ele>584.7</ele>
        <time>2021-09-12T09:07:19Z</time>
      </trkpt>
      <trkpt lat="46.66472" lon="5.79307">
        <ele>584.7</ele>
        <time>2021-09-12T09:07:22Z</time>
      </trkpt>
      <trkpt lat="46.66471" lon="5.79313">
        <ele>584.7</ele>
        <time>2021-09-12T09:07:25Z</time>
      </trkpt>
      <trkpt lat="46.66471" lon="5.7932">
        <ele>584.6</ele>
        <time>2021-09-12T09:07:30Z</time>
      </trkpt>
      <trkpt lat="46.66467" lon="5.79325">
        <ele>584.7</ele>
        <time>2021-09-12T09:07:38Z</time>
      </trkpt>
      <trkpt lat="46.66466" lon="5.79331">
        <ele>584.5</ele>
        <time>2021-09-12T09:07:42Z</time>
      </trkpt>
      <trkpt lat="46.66465" lon="5.79338">
        <ele>583.8</ele>
        <time>2021-09-12T09:07:46Z</time>
      </trkpt>
      <trkpt lat="46.66464" lon="5.79344">
        <ele>582.5</ele>
        <time>2021-09-12T09:07:53Z</time>
      </trkpt>
      <trkpt lat="46.66465" lon="5.79351">
        <ele>581.7</ele>
        <time>2021-09-12T09:08:00Z</time>
      </trkpt>
      <trkpt lat="46.66468" lon="5.79359">
        <ele>581</ele>
        <time>2021-09-12T09:08:11Z</time>
      </trkpt>
      <trkpt lat="46.6647" lon="5.79366">
        <ele>580.5</ele>
        <time>2021-09-12T09:08:14Z</time>
      </trkpt>
      <trkpt lat="46.6647" lon="5.79374">
        <ele>580.1</ele>
        <time>2021-09-12T09:08:19Z</time>
      </trkpt>
      <trkpt lat="46.66473" lon="5.7938">
        <ele>580.9</ele>
        <time>2021-09-12T09:08:25Z</time>
      </trkpt>
      <trkpt lat="46.66474" lon="5.79387">
        <ele>581.7</ele>
        <time>2021-09-12T09:08:34Z</time>
      </trkpt>
      <trkpt lat="46.66475" lon="5.79393">
        <ele>582.1</ele>
        <time>2021-09-12T09:08:40Z</time>
      </trkpt>
      <trkpt lat="46.66476" lon="5.79401">
        <ele>582.6</ele>
        <time>2021-09-12T09:08:44Z</time>
      </trkpt>
      <trkpt lat="46.66478" lon="5.79407">
        <ele>583.7</ele>
        <time>2021-09-12T09:08:51Z</time>
      </trkpt>
      <trkpt lat="46.66481" lon="5.79413">
        <ele>584</ele>
        <time>2021-09-12T09:08:56Z</time>
      </trkpt>
      <trkpt lat="46.66485" lon="5.79418">
        <ele>584.3</ele>
        <time>2021-09-12T09:09:03Z</time>
      </trkpt>
      <trkpt lat="46.66487" lon="5.79425">
        <ele>584.3</ele>
        <time>2021-09-12T09:09:08Z</time>
      </trkpt>
      <trkpt lat="46.66488" lon="5.79432">
        <ele>584</ele>
        <time>2021-09-12T09:09:13Z</time>
      </trkpt>
      <trkpt lat="46.66489" lon="5.79438">
        <ele>584</ele>
        <time>2021-09-12T09:09:20Z</time>
      </trkpt>
      <trkpt lat="46.66493" lon="5.79443">
        <ele>584</ele>
        <time>2021-09-12T09:09:26Z</time>
      </trkpt>
      <trkpt lat="46.66497" lon="5.79448">
        <ele>584.2</ele>
        <time>2021-09-12T09:09:31Z</time>
      </trkpt>
      <trkpt lat="46.66501" lon="5.79454">
        <ele>584.6</ele>
        <time>2021-09-12T09:09:36Z</time>
      </trkpt>
      <trkpt lat="46.66502" lon="5.79461">
        <ele>585.5</ele>
        <time>2021-09-12T09:09:44Z</time>
      </trkpt>
      <trkpt lat="46.66504" lon="5.79467">
        <ele>586.6</ele>
        <time>2021-09-12T09:09:53Z</time>
      </trkpt>
      <trkpt lat="46.66507" lon="5.79473">
        <ele>586.3</ele>
        <time>2021-09-12T09:10:06Z</time>
      </trkpt>
      <trkpt lat="46.66512" lon="5.79476">
        <ele>585.6</ele>
        <time>2021-09-12T09:10:20Z</time>
      </trkpt>
      <trkpt lat="46.66512" lon="5.79483">
        <ele>569.7</ele>
        <time>2021-09-12T09:14:07Z</time>
      </trkpt>
      <trkpt lat="46.66515" lon="5.79487">
        <ele>569</ele>
        <time>2021-09-12T09:14:15Z</time>
      </trkpt>
      <trkpt lat="46.66513" lon="5.79493">
        <ele>568.8</ele>
        <time>2021-09-12T09:14:24Z</time>
      </trkpt>
      <trkpt lat="46.66508" lon="5.7949">
        <ele>578</ele>
        <time>2021-09-12T09:15:07Z</time>
      </trkpt>
      <trkpt lat="46.66507" lon="5.79497">
        <ele>579.8</ele>
        <time>2021-09-12T09:15:31Z</time>
      </trkpt>
      <trkpt lat="46.66506" lon="5.79504">
        <ele>581.8</ele>
        <time>2021-09-12T09:15:39Z</time>
      </trkpt>
      <trkpt lat="46.66505" lon="5.79511">
        <ele>583.5</ele>
        <time>2021-09-12T09:15:51Z</time>
      </trkpt>
      <trkpt lat="46.66505" lon="5.79518">
        <ele>584.1</ele>
        <time>2021-09-12T09:15:56Z</time>
      </trkpt>
      <trkpt lat="46.66505" lon="5.79525">
        <ele>584.4</ele>
        <time>2021-09-12T09:16:01Z</time>
      </trkpt>
      <trkpt lat="46.66507" lon="5.79532">
        <ele>584.4</ele>
        <time>2021-09-12T09:16:08Z</time>
      </trkpt>
      <trkpt lat="46.66509" lon="5.79538">
        <ele>585</ele>
        <time>2021-09-12T09:16:17Z</time>
      </trkpt>
      <trkpt lat="46.66509" lon="5.79544">
        <ele>586.1</ele>
        <time>2021-09-12T09:16:25Z</time>
      </trkpt>
      <trkpt lat="46.6651" lon="5.79551">
        <ele>586.5</ele>
        <time>2021-09-12T09:16:29Z</time>
      </trkpt>
      <trkpt lat="46.66511" lon="5.79558">
        <ele>586.8</ele>
        <time>2021-09-12T09:16:33Z</time>
      </trkpt>
      <trkpt lat="46.6651" lon="5.79566">
        <ele>587.5</ele>
        <time>2021-09-12T09:16:39Z</time>
      </trkpt>
      <trkpt lat="46.66509" lon="5.79572">
        <ele>587.8</ele>
        <time>2021-09-12T09:16:45Z</time>
      </trkpt>
      <trkpt lat="46.66509" lon="5.79579">
        <ele>587.9</ele>
        <time>2021-09-12T09:16:50Z</time>
      </trkpt>
      <trkpt lat="46.66511" lon="5.79586">
        <ele>588.4</ele>
        <time>2021-09-12T09:16:56Z</time>
      </trkpt>
      <trkpt lat="46.66512" lon="5.79592">
        <ele>589</ele>
        <time>2021-09-12T09:17:03Z</time>
      </trkpt>
      <trkpt lat="46.66512" lon="5.79599">
        <ele>589.3</ele>
        <time>2021-09-12T09:17:10Z</time>
      </trkpt>
      <trkpt lat="46.66511" lon="5.79606">
        <ele>589.5</ele>
        <time>2021-09-12T09:17:15Z</time>
      </trkpt>
      <trkpt lat="46.6651" lon="5.79613">
        <ele>589.6</ele>
        <time>2021-09-12T09:17:21Z</time>
      </trkpt>
      <trkpt lat="46.66509" lon="5.79619">
        <ele>589.6</ele>
        <time>2021-09-12T09:17:25Z</time>
      </trkpt>
      <trkpt lat="46.66508" lon="5.79626">
        <ele>590.1</ele>
        <time>2021-09-12T09:17:30Z</time>
      </trkpt>
      <trkpt lat="46.66508" lon="5.79633">
        <ele>590.6</ele>
        <time>2021-09-12T09:17:35Z</time>
      </trkpt>
      <trkpt lat="46.66508" lon="5.7964">
        <ele>591.2</ele>
        <time>2021-09-12T09:17:44Z</time>
      </trkpt>
      <trkpt lat="46.66505" lon="5.79645">
        <ele>592.7</ele>
        <time>2021-09-12T09:17:53Z</time>
      </trkpt>
      <trkpt lat="46.66503" lon="5.79651">
        <ele>593.6</ele>
        <time>2021-09-12T09:18:02Z</time>
      </trkpt>
      <trkpt lat="46.66502" lon="5.79658">
        <ele>593.9</ele>
        <time>2021-09-12T09:18:08Z</time>
      </trkpt>
      <trkpt lat="46.66501" lon="5.79665">
        <ele>594.9</ele>
        <time>2021-09-12T09:18:15Z</time>
      </trkpt>
      <trkpt lat="46.66503" lon="5.79672">
        <ele>595.6</ele>
        <time>2021-09-12T09:18:20Z</time>
      </trkpt>
      <trkpt lat="46.66504" lon="5.79679">
        <ele>596</ele>
        <time>2021-09-12T09:18:24Z</time>
      </trkpt>
      <trkpt lat="46.66505" lon="5.79686">
        <ele>596.8</ele>
        <time>2021-09-12T09:18:30Z</time>
      </trkpt>
      <trkpt lat="46.66503" lon="5.79692">
        <ele>597.2</ele>
        <time>2021-09-12T09:18:35Z</time>
      </trkpt>
      <trkpt lat="46.66503" lon="5.797">
        <ele>597.9</ele>
        <time>2021-09-12T09:18:45Z</time>
      </trkpt>
      <trkpt lat="46.66503" lon="5.79707">
        <ele>598</ele>
        <time>2021-09-12T09:18:51Z</time>
      </trkpt>
      <trkpt lat="46.665" lon="5.79713">
        <ele>598</ele>
        <time>2021-09-12T09:18:59Z</time>
      </trkpt>
      <trkpt lat="46.66497" lon="5.7972">
        <ele>597.8</ele>
        <time>2021-09-12T09:19:07Z</time>
      </trkpt>
      <trkpt lat="46.66495" lon="5.79726">
        <ele>598</ele>
        <time>2021-09-12T09:19:11Z</time>
      </trkpt>
      <trkpt lat="46.66495" lon="5.79733">
        <ele>598.5</ele>
        <time>2021-09-12T09:19:16Z</time>
      </trkpt>
      <trkpt lat="46.66492" lon="5.79739">
        <ele>599.5</ele>
        <time>2021-09-12T09:19:21Z</time>
      </trkpt>
      <trkpt lat="46.6649" lon="5.79745">
        <ele>600.7</ele>
        <time>2021-09-12T09:19:29Z</time>
      </trkpt>
      <trkpt lat="46.66489" lon="5.79752">
        <ele>601.7</ele>
        <time>2021-09-12T09:19:34Z</time>
      </trkpt>
      <trkpt lat="46.66491" lon="5.79758">
        <ele>602.7</ele>
        <time>2021-09-12T09:19:39Z</time>
      </trkpt>
      <trkpt lat="46.66491" lon="5.79765">
        <ele>603.3</ele>
        <time>2021-09-12T09:19:45Z</time>
      </trkpt>
      <trkpt lat="46.66493" lon="5.79771">
        <ele>603.3</ele>
        <time>2021-09-12T09:19:49Z</time>
      </trkpt>
      <trkpt lat="46.66495" lon="5.79777">
        <ele>603.6</ele>
        <time>2021-09-12T09:19:54Z</time>
      </trkpt>
      <trkpt lat="46.66495" lon="5.79784">
        <ele>603.9</ele>
        <time>2021-09-12T09:20:01Z</time>
      </trkpt>
      <trkpt lat="46.66494" lon="5.79792">
        <ele>604.2</ele>
        <time>2021-09-12T09:20:13Z</time>
      </trkpt>
      <trkpt lat="46.66492" lon="5.798">
        <ele>603.8</ele>
        <time>2021-09-12T09:20:18Z</time>
      </trkpt>
      <trkpt lat="46.66492" lon="5.79808">
        <ele>603</ele>
        <time>2021-09-12T09:20:24Z</time>
      </trkpt>
      <trkpt lat="46.66493" lon="5.79815">
        <ele>602</ele>
        <time>2021-09-12T09:20:32Z</time>
      </trkpt>
      <trkpt lat="46.66493" lon="5.79822">
        <ele>602</ele>
        <time>2021-09-12T09:20:36Z</time>
      </trkpt>
      <trkpt lat="46.6649" lon="5.79828">
        <ele>602.3</ele>
        <time>2021-09-12T09:20:44Z</time>
      </trkpt>
      <trkpt lat="46.66491" lon="5.79834">
        <ele>602.4</ele>
        <time>2021-09-12T09:20:48Z</time>
      </trkpt>
      <trkpt lat="46.66492" lon="5.79842">
        <ele>602.4</ele>
        <time>2021-09-12T09:20:53Z</time>
      </trkpt>
      <trkpt lat="46.66491" lon="5.7985">
        <ele>602.1</ele>
        <time>2021-09-12T09:21:00Z</time>
      </trkpt>
      <trkpt lat="46.66488" lon="5.79856">
        <ele>602</ele>
        <time>2021-09-12T09:21:04Z</time>
      </trkpt>
      <trkpt lat="46.66485" lon="5.79862">
        <ele>601.9</ele>
        <time>2021-09-12T09:21:08Z</time>
      </trkpt>
      <trkpt lat="46.66483" lon="5.79868">
        <ele>601.9</ele>
        <time>2021-09-12T09:21:11Z</time>
      </trkpt>
      <trkpt lat="46.66481" lon="5.79875">
        <ele>602</ele>
        <time>2021-09-12T09:21:14Z</time>
      </trkpt>
      <trkpt lat="46.6648" lon="5.79882">
        <ele>602.1</ele>
        <time>2021-09-12T09:21:18Z</time>
      </trkpt>
      <trkpt lat="46.66479" lon="5.79888">
        <ele>601.9</ele>
        <time>2021-09-12T09:21:22Z</time>
      </trkpt>
      <trkpt lat="46.66479" lon="5.79895">
        <ele>601</ele>
        <time>2021-09-12T09:21:29Z</time>
      </trkpt>
      <trkpt lat="46.66481" lon="5.79902">
        <ele>601</ele>
        <time>2021-09-12T09:21:36Z</time>
      </trkpt>
      <trkpt lat="46.66482" lon="5.79909">
        <ele>601.9</ele>
        <time>2021-09-12T09:21:42Z</time>
      </trkpt>
      <trkpt lat="46.66483" lon="5.79916">
        <ele>602.8</ele>
        <time>2021-09-12T09:21:48Z</time>
      </trkpt>
      <trkpt lat="46.66485" lon="5.79922">
        <ele>603.4</ele>
        <time>2021-09-12T09:21:53Z</time>
      </trkpt>
      <trkpt lat="46.66485" lon="5.7993">
        <ele>603.9</ele>
        <time>2021-09-12T09:22:00Z</time>
      </trkpt>
      <trkpt lat="46.66487" lon="5.79935">
        <ele>604.4</ele>
        <time>2021-09-12T09:22:04Z</time>
      </trkpt>
      <trkpt lat="46.66489" lon="5.79942">
        <ele>604.8</ele>
        <time>2021-09-12T09:22:09Z</time>
      </trkpt>
      <trkpt lat="46.6649" lon="5.79949">
        <ele>605.6</ele>
        <time>2021-09-12T09:22:17Z</time>
      </trkpt>
      <trkpt lat="46.66487" lon="5.79955">
        <ele>605.5</ele>
        <time>2021-09-12T09:22:31Z</time>
      </trkpt>
      <trkpt lat="46.66483" lon="5.79959">
        <ele>605</ele>
        <time>2021-09-12T09:22:36Z</time>
      </trkpt>
      <trkpt lat="46.66479" lon="5.79955">
        <ele>603.9</ele>
        <time>2021-09-12T09:22:44Z</time>
      </trkpt>
      <trkpt lat="46.66485" lon="5.79953">
        <ele>604</ele>
        <time>2021-09-12T09:22:52Z</time>
      </trkpt>
      <trkpt lat="46.66491" lon="5.79949">
        <ele>605.1</ele>
        <time>2021-09-12T09:23:12Z</time>
      </trkpt>
      <trkpt lat="46.66487" lon="5.79951">
        <ele>605.9</ele>
        <time>2021-09-12T09:23:26Z</time>
      </trkpt>
      <trkpt lat="46.66485" lon="5.79958">
        <ele>606.6</ele>
        <time>2021-09-12T09:23:50Z</time>
      </trkpt>
      <trkpt lat="46.66485" lon="5.79966">
        <ele>607.2</ele>
        <time>2021-09-12T09:23:54Z</time>
      </trkpt>
      <trkpt lat="46.66484" lon="5.79972">
        <ele>607.5</ele>
        <time>2021-09-12T09:23:58Z</time>
      </trkpt>
      <trkpt lat="46.66487" lon="5.79978">
        <ele>607.6</ele>
        <time>2021-09-12T09:24:09Z</time>
      </trkpt>
      <trkpt lat="46.66488" lon="5.79985">
        <ele>607.5</ele>
        <time>2021-09-12T09:24:18Z</time>
      </trkpt>
      <trkpt lat="46.6649" lon="5.79992">
        <ele>606.7</ele>
        <time>2021-09-12T09:24:24Z</time>
      </trkpt>
      <trkpt lat="46.66488" lon="5.8">
        <ele>606.3</ele>
        <time>2021-09-12T09:24:29Z</time>
      </trkpt>
      <trkpt lat="46.66485" lon="5.80005">
        <ele>605.3</ele>
        <time>2021-09-12T09:24:33Z</time>
      </trkpt>
      <trkpt lat="46.66484" lon="5.80011">
        <ele>604.3</ele>
        <time>2021-09-12T09:24:38Z</time>
      </trkpt>
      <trkpt lat="46.66482" lon="5.80018">
        <ele>603.1</ele>
        <time>2021-09-12T09:24:44Z</time>
      </trkpt>
      <trkpt lat="46.66481" lon="5.80025">
        <ele>601.8</ele>
        <time>2021-09-12T09:24:49Z</time>
      </trkpt>
      <trkpt lat="46.6648" lon="5.80031">
        <ele>600.8</ele>
        <time>2021-09-12T09:24:54Z</time>
      </trkpt>
      <trkpt lat="46.66478" lon="5.80039">
        <ele>600.4</ele>
        <time>2021-09-12T09:24:59Z</time>
      </trkpt>
      <trkpt lat="46.66476" lon="5.80045">
        <ele>600.1</ele>
        <time>2021-09-12T09:25:05Z</time>
      </trkpt>
      <trkpt lat="46.66474" lon="5.80053">
        <ele>601</ele>
        <time>2021-09-12T09:25:12Z</time>
      </trkpt>
      <trkpt lat="46.66474" lon="5.8006">
        <ele>601.3</ele>
        <time>2021-09-12T09:25:18Z</time>
      </trkpt>
      <trkpt lat="46.66474" lon="5.80066">
        <ele>601.3</ele>
        <time>2021-09-12T09:25:24Z</time>
      </trkpt>
      <trkpt lat="46.66471" lon="5.80071">
        <ele>601.2</ele>
        <time>2021-09-12T09:25:30Z</time>
      </trkpt>
      <trkpt lat="46.6647" lon="5.80078">
        <ele>601</ele>
        <time>2021-09-12T09:25:44Z</time>
      </trkpt>
      <trkpt lat="46.66469" lon="5.80084">
        <ele>601</ele>
        <time>2021-09-12T09:25:51Z</time>
      </trkpt>
      <trkpt lat="46.66474" lon="5.80088">
        <ele>599.2</ele>
        <time>2021-09-12T09:26:24Z</time>
      </trkpt>
      <trkpt lat="46.6648" lon="5.80095">
        <ele>599.8</ele>
        <time>2021-09-12T09:26:41Z</time>
      </trkpt>
      <trkpt lat="46.66483" lon="5.80104">
        <ele>600</ele>
        <time>2021-09-12T09:26:44Z</time>
      </trkpt>
      <trkpt lat="46.66485" lon="5.80112">
        <ele>600.5</ele>
        <time>2021-09-12T09:26:47Z</time>
      </trkpt>
      <trkpt lat="46.66487" lon="5.80119">
        <ele>601.3</ele>
        <time>2021-09-12T09:26:51Z</time>
      </trkpt>
      <trkpt lat="46.66488" lon="5.80126">
        <ele>602.1</ele>
        <time>2021-09-12T09:26:56Z</time>
      </trkpt>
      <trkpt lat="46.66492" lon="5.80132">
        <ele>602.7</ele>
        <time>2021-09-12T09:27:00Z</time>
      </trkpt>
      <trkpt lat="46.66497" lon="5.80135">
        <ele>603.3</ele>
        <time>2021-09-12T09:27:06Z</time>
      </trkpt>
      <trkpt lat="46.66501" lon="5.8014">
        <ele>602.4</ele>
        <time>2021-09-12T09:27:16Z</time>
      </trkpt>
      <trkpt lat="46.66501" lon="5.80147">
        <ele>601.5</ele>
        <time>2021-09-12T09:27:24Z</time>
      </trkpt>
      <trkpt lat="46.66502" lon="5.80153">
        <ele>601.1</ele>
        <time>2021-09-12T09:27:29Z</time>
      </trkpt>
      <trkpt lat="46.66503" lon="5.80161">
        <ele>600.7</ele>
        <time>2021-09-12T09:27:35Z</time>
      </trkpt>
      <trkpt lat="46.66504" lon="5.80167">
        <ele>600.2</ele>
        <time>2021-09-12T09:27:40Z</time>
      </trkpt>
      <trkpt lat="46.66504" lon="5.80174">
        <ele>599.8</ele>
        <time>2021-09-12T09:27:45Z</time>
      </trkpt>
      <trkpt lat="46.66504" lon="5.80181">
        <ele>599.4</ele>
        <time>2021-09-12T09:27:53Z</time>
      </trkpt>
      <trkpt lat="46.66503" lon="5.80189">
        <ele>599.3</ele>
        <time>2021-09-12T09:27:59Z</time>
      </trkpt>
      <trkpt lat="46.66502" lon="5.80195">
        <ele>599.8</ele>
        <time>2021-09-12T09:28:03Z</time>
      </trkpt>
      <trkpt lat="46.66501" lon="5.80202">
        <ele>600.4</ele>
        <time>2021-09-12T09:28:07Z</time>
      </trkpt>
      <trkpt lat="46.66499" lon="5.80209">
        <ele>601.3</ele>
        <time>2021-09-12T09:28:12Z</time>
      </trkpt>
      <trkpt lat="46.66499" lon="5.80217">
        <ele>603</ele>
        <time>2021-09-12T09:28:19Z</time>
      </trkpt>
      <trkpt lat="46.66499" lon="5.80224">
        <ele>603.6</ele>
        <time>2021-09-12T09:28:24Z</time>
      </trkpt>
      <trkpt lat="46.66498" lon="5.80232">
        <ele>603.8</ele>
        <time>2021-09-12T09:28:29Z</time>
      </trkpt>
      <trkpt lat="46.66497" lon="5.80238">
        <ele>603.6</ele>
        <time>2021-09-12T09:28:33Z</time>
      </trkpt>
      <trkpt lat="46.66497" lon="5.80246">
        <ele>603.4</ele>
        <time>2021-09-12T09:28:39Z</time>
      </trkpt>
      <trkpt lat="46.66499" lon="5.80253">
        <ele>603.3</ele>
        <time>2021-09-12T09:28:44Z</time>
      </trkpt>
      <trkpt lat="46.665" lon="5.8026">
        <ele>602.9</ele>
        <time>2021-09-12T09:28:49Z</time>
      </trkpt>
      <trkpt lat="46.665" lon="5.80267">
        <ele>603.4</ele>
        <time>2021-09-12T09:28:55Z</time>
      </trkpt>
      <trkpt lat="46.66499" lon="5.80274">
        <ele>604.7</ele>
        <time>2021-09-12T09:29:04Z</time>
      </trkpt>
      <trkpt lat="46.66496" lon="5.80281">
        <ele>605.1</ele>
        <time>2021-09-12T09:29:09Z</time>
      </trkpt>
      <trkpt lat="46.66496" lon="5.80288">
        <ele>605.4</ele>
        <time>2021-09-12T09:29:12Z</time>
      </trkpt>
      <trkpt lat="46.66494" lon="5.80294">
        <ele>605.6</ele>
        <time>2021-09-12T09:29:16Z</time>
      </trkpt>
      <trkpt lat="46.66494" lon="5.80301">
        <ele>606.5</ele>
        <time>2021-09-12T09:29:23Z</time>
      </trkpt>
      <trkpt lat="46.66493" lon="5.80308">
        <ele>607.7</ele>
        <time>2021-09-12T09:29:29Z</time>
      </trkpt>
      <trkpt lat="46.66491" lon="5.80314">
        <ele>609.3</ele>
        <time>2021-09-12T09:29:36Z</time>
      </trkpt>
      <trkpt lat="46.6649" lon="5.80321">
        <ele>610.1</ele>
        <time>2021-09-12T09:29:43Z</time>
      </trkpt>
      <trkpt lat="46.66487" lon="5.80327">
        <ele>610.4</ele>
        <time>2021-09-12T09:29:50Z</time>
      </trkpt>
      <trkpt lat="46.66484" lon="5.80332">
        <ele>609.7</ele>
        <time>2021-09-12T09:29:57Z</time>
      </trkpt>
      <trkpt lat="46.66479" lon="5.80336">
        <ele>608.4</ele>
        <time>2021-09-12T09:30:05Z</time>
      </trkpt>
      <trkpt lat="46.66475" lon="5.80341">
        <ele>607.6</ele>
        <time>2021-09-12T09:30:09Z</time>
      </trkpt>
      <trkpt lat="46.66472" lon="5.80345">
        <ele>606.9</ele>
        <time>2021-09-12T09:30:14Z</time>
      </trkpt>
      <trkpt lat="46.66469" lon="5.80351">
        <ele>607.1</ele>
        <time>2021-09-12T09:30:20Z</time>
      </trkpt>
      <trkpt lat="46.66467" lon="5.80357">
        <ele>606.2</ele>
        <time>2021-09-12T09:30:26Z</time>
      </trkpt>
      <trkpt lat="46.66467" lon="5.80364">
        <ele>605.2</ele>
        <time>2021-09-12T09:30:32Z</time>
      </trkpt>
      <trkpt lat="46.66466" lon="5.80371">
        <ele>604.2</ele>
        <time>2021-09-12T09:30:37Z</time>
      </trkpt>
      <trkpt lat="46.66464" lon="5.80378">
        <ele>603.4</ele>
        <time>2021-09-12T09:30:42Z</time>
      </trkpt>
      <trkpt lat="46.66462" lon="5.80385">
        <ele>603.1</ele>
        <time>2021-09-12T09:30:46Z</time>
      </trkpt>
      <trkpt lat="46.66458" lon="5.80392">
        <ele>602.8</ele>
        <time>2021-09-12T09:30:50Z</time>
      </trkpt>
      <trkpt lat="46.66455" lon="5.80398">
        <ele>602.2</ele>
        <time>2021-09-12T09:30:54Z</time>
      </trkpt>
      <trkpt lat="46.66451" lon="5.80403">
        <ele>600.5</ele>
        <time>2021-09-12T09:31:01Z</time>
      </trkpt>
      <trkpt lat="46.66446" lon="5.80404">
        <ele>598.5</ele>
        <time>2021-09-12T09:31:08Z</time>
      </trkpt>
      <trkpt lat="46.66442" lon="5.80403">
        <ele>597.3</ele>
        <time>2021-09-12T09:31:13Z</time>
      </trkpt>
      <trkpt lat="46.66437" lon="5.80401">
        <ele>596.6</ele>
        <time>2021-09-12T09:31:18Z</time>
      </trkpt>
      <trkpt lat="46.66432" lon="5.80403">
        <ele>595.2</ele>
        <time>2021-09-12T09:31:24Z</time>
      </trkpt>
      <trkpt lat="46.66428" lon="5.80406">
        <ele>593.9</ele>
        <time>2021-09-12T09:31:30Z</time>
      </trkpt>
      <trkpt lat="46.66423" lon="5.8041">
        <ele>592.9</ele>
        <time>2021-09-12T09:31:35Z</time>
      </trkpt>
      <trkpt lat="46.66419" lon="5.80415">
        <ele>591.6</ele>
        <time>2021-09-12T09:31:41Z</time>
      </trkpt>
      <trkpt lat="46.66415" lon="5.8042">
        <ele>590.5</ele>
        <time>2021-09-12T09:31:46Z</time>
      </trkpt>
      <trkpt lat="46.66412" lon="5.80425">
        <ele>589</ele>
        <time>2021-09-12T09:31:52Z</time>
      </trkpt>
      <trkpt lat="46.66413" lon="5.80432">
        <ele>587.7</ele>
        <time>2021-09-12T09:31:58Z</time>
      </trkpt>
      <trkpt lat="46.66412" lon="5.80439">
        <ele>586.3</ele>
        <time>2021-09-12T09:32:05Z</time>
      </trkpt>
      <trkpt lat="46.66412" lon="5.80446">
        <ele>585.2</ele>
        <time>2021-09-12T09:32:11Z</time>
      </trkpt>
      <trkpt lat="46.6641" lon="5.80454">
        <ele>585.7</ele>
        <time>2021-09-12T09:32:22Z</time>
      </trkpt>
      <trkpt lat="46.6641" lon="5.80463">
        <ele>585.5</ele>
        <time>2021-09-12T09:32:26Z</time>
      </trkpt>
      <trkpt lat="46.66409" lon="5.80472">
        <ele>585.6</ele>
        <time>2021-09-12T09:32:29Z</time>
      </trkpt>
      <trkpt lat="46.66409" lon="5.80479">
        <ele>585.7</ele>
        <time>2021-09-12T09:32:33Z</time>
      </trkpt>
      <trkpt lat="46.66407" lon="5.80487">
        <ele>585.9</ele>
        <time>2021-09-12T09:32:39Z</time>
      </trkpt>
      <trkpt lat="46.6641" lon="5.80493">
        <ele>586.4</ele>
        <time>2021-09-12T09:32:44Z</time>
      </trkpt>
      <trkpt lat="46.66415" lon="5.80496">
        <ele>586.3</ele>
        <time>2021-09-12T09:32:49Z</time>
      </trkpt>
      <trkpt lat="46.66419" lon="5.80502">
        <ele>586.3</ele>
        <time>2021-09-12T09:32:57Z</time>
      </trkpt>
      <trkpt lat="46.66423" lon="5.80506">
        <ele>586.4</ele>
        <time>2021-09-12T09:33:03Z</time>
      </trkpt>
      <trkpt lat="46.66428" lon="5.80506">
        <ele>585.7</ele>
        <time>2021-09-12T09:33:07Z</time>
      </trkpt>
      <trkpt lat="46.66433" lon="5.80509">
        <ele>584.9</ele>
        <time>2021-09-12T09:33:11Z</time>
      </trkpt>
      <trkpt lat="46.66437" lon="5.80511">
        <ele>584.4</ele>
        <time>2021-09-12T09:33:16Z</time>
      </trkpt>
      <trkpt lat="46.66442" lon="5.80516">
        <ele>584.5</ele>
        <time>2021-09-12T09:33:24Z</time>
      </trkpt>
      <trkpt lat="46.66447" lon="5.80519">
        <ele>585.4</ele>
        <time>2021-09-12T09:33:28Z</time>
      </trkpt>
      <trkpt lat="46.66452" lon="5.80521">
        <ele>586.2</ele>
        <time>2021-09-12T09:33:34Z</time>
      </trkpt>
      <trkpt lat="46.66456" lon="5.80527">
        <ele>586.5</ele>
        <time>2021-09-12T09:33:41Z</time>
      </trkpt>
      <trkpt lat="46.66459" lon="5.80532">
        <ele>587.1</ele>
        <time>2021-09-12T09:33:44Z</time>
      </trkpt>
      <trkpt lat="46.66462" lon="5.80539">
        <ele>588</ele>
        <time>2021-09-12T09:33:48Z</time>
      </trkpt>
      <trkpt lat="46.66462" lon="5.80546">
        <ele>588.5</ele>
        <time>2021-09-12T09:33:51Z</time>
      </trkpt>
      <trkpt lat="46.66463" lon="5.80553">
        <ele>589</ele>
        <time>2021-09-12T09:33:56Z</time>
      </trkpt>
      <trkpt lat="46.66464" lon="5.8056">
        <ele>588.6</ele>
        <time>2021-09-12T09:34:03Z</time>
      </trkpt>
      <trkpt lat="46.66469" lon="5.80565">
        <ele>588.2</ele>
        <time>2021-09-12T09:34:09Z</time>
      </trkpt>
      <trkpt lat="46.66472" lon="5.8057">
        <ele>588.1</ele>
        <time>2021-09-12T09:34:12Z</time>
      </trkpt>
      <trkpt lat="46.66476" lon="5.80577">
        <ele>588.3</ele>
        <time>2021-09-12T09:34:16Z</time>
      </trkpt>
      <trkpt lat="46.66477" lon="5.80584">
        <ele>588.6</ele>
        <time>2021-09-12T09:34:21Z</time>
      </trkpt>
      <trkpt lat="46.66478" lon="5.80591">
        <ele>589</ele>
        <time>2021-09-12T09:34:27Z</time>
      </trkpt>
      <trkpt lat="46.6648" lon="5.80597">
        <ele>589.3</ele>
        <time>2021-09-12T09:34:33Z</time>
      </trkpt>
      <trkpt lat="46.66483" lon="5.80603">
        <ele>589.5</ele>
        <time>2021-09-12T09:34:39Z</time>
      </trkpt>
      <trkpt lat="46.66485" lon="5.80609">
        <ele>590</ele>
        <time>2021-09-12T09:34:44Z</time>
      </trkpt>
      <trkpt lat="46.66486" lon="5.80615">
        <ele>591.1</ele>
        <time>2021-09-12T09:34:50Z</time>
      </trkpt>
      <trkpt lat="46.66485" lon="5.80622">
        <ele>593.3</ele>
        <time>2021-09-12T09:35:00Z</time>
      </trkpt>
      <trkpt lat="46.66485" lon="5.80629">
        <ele>594.5</ele>
        <time>2021-09-12T09:35:07Z</time>
      </trkpt>
      <trkpt lat="46.66485" lon="5.80637">
        <ele>594.9</ele>
        <time>2021-09-12T09:35:12Z</time>
      </trkpt>
      <trkpt lat="46.66486" lon="5.80644">
        <ele>595.3</ele>
        <time>2021-09-12T09:35:16Z</time>
      </trkpt>
      <trkpt lat="46.66483" lon="5.80649">
        <ele>595.5</ele>
        <time>2021-09-12T09:35:22Z</time>
      </trkpt>
      <trkpt lat="46.66481" lon="5.80657">
        <ele>595.7</ele>
        <time>2021-09-12T09:35:32Z</time>
      </trkpt>
      <trkpt lat="46.6648" lon="5.80664">
        <ele>593.8</ele>
        <time>2021-09-12T09:35:47Z</time>
      </trkpt>
      <trkpt lat="46.6648" lon="5.8067">
        <ele>590</ele>
        <time>2021-09-12T09:35:59Z</time>
      </trkpt>
      <trkpt lat="46.66475" lon="5.80674">
        <ele>584</ele>
        <time>2021-09-12T09:37:19Z</time>
      </trkpt>
      <trkpt lat="46.66474" lon="5.8068">
        <ele>585.4</ele>
        <time>2021-09-12T09:37:35Z</time>
      </trkpt>
      <trkpt lat="46.66471" lon="5.80686">
        <ele>585.6</ele>
        <time>2021-09-12T09:37:39Z</time>
      </trkpt>
      <trkpt lat="46.66475" lon="5.80682">
        <ele>587.7</ele>
        <time>2021-09-12T09:38:00Z</time>
      </trkpt>
      <trkpt lat="46.66478" lon="5.80677">
        <ele>587.7</ele>
        <time>2021-09-12T09:38:10Z</time>
      </trkpt>
      <trkpt lat="46.6648" lon="5.80671">
        <ele>587.8</ele>
        <time>2021-09-12T09:38:17Z</time>
      </trkpt>
      <trkpt lat="46.66481" lon="5.80664">
        <ele>587.1</ele>
        <time>2021-09-12T09:38:31Z</time>
      </trkpt>
      <trkpt lat="46.66478" lon="5.8067">
        <ele>587.4</ele>
        <time>2021-09-12T09:38:46Z</time>
      </trkpt>
      <trkpt lat="46.66475" lon="5.80675">
        <ele>588.3</ele>
        <time>2021-09-12T09:38:55Z</time>
      </trkpt>
      <trkpt lat="46.66471" lon="5.8068">
        <ele>589.8</ele>
        <time>2021-09-12T09:39:04Z</time>
      </trkpt>
      <trkpt lat="46.6647" lon="5.80687">
        <ele>590.6</ele>
        <time>2021-09-12T09:39:11Z</time>
      </trkpt>
      <trkpt lat="46.66467" lon="5.80693">
        <ele>592.3</ele>
        <time>2021-09-12T09:39:21Z</time>
      </trkpt>
      <trkpt lat="46.66464" lon="5.80697">
        <ele>592.8</ele>
        <time>2021-09-12T09:39:29Z</time>
      </trkpt>
      <trkpt lat="46.66461" lon="5.80704">
        <ele>593.1</ele>
        <time>2021-09-12T09:39:37Z</time>
      </trkpt>
      <trkpt lat="46.66458" lon="5.80709">
        <ele>593.5</ele>
        <time>2021-09-12T09:39:43Z</time>
      </trkpt>
      <trkpt lat="46.66456" lon="5.80716">
        <ele>593.8</ele>
        <time>2021-09-12T09:39:50Z</time>
      </trkpt>
      <trkpt lat="46.66455" lon="5.80723">
        <ele>594.2</ele>
        <time>2021-09-12T09:39:56Z</time>
      </trkpt>
      <trkpt lat="46.6645" lon="5.80728">
        <ele>594.9</ele>
        <time>2021-09-12T09:40:00Z</time>
      </trkpt>
      <trkpt lat="46.66447" lon="5.80733">
        <ele>595.4</ele>
        <time>2021-09-12T09:40:03Z</time>
      </trkpt>
      <trkpt lat="46.66447" lon="5.8074">
        <ele>595.7</ele>
        <time>2021-09-12T09:40:07Z</time>
      </trkpt>
      <trkpt lat="46.66447" lon="5.80747">
        <ele>595.7</ele>
        <time>2021-09-12T09:40:12Z</time>
      </trkpt>
      <trkpt lat="46.66444" lon="5.80752">
        <ele>595.8</ele>
        <time>2021-09-12T09:40:17Z</time>
      </trkpt>
      <trkpt lat="46.66441" lon="5.80758">
        <ele>595.8</ele>
        <time>2021-09-12T09:40:22Z</time>
      </trkpt>
      <trkpt lat="46.66438" lon="5.80763">
        <ele>596</ele>
        <time>2021-09-12T09:40:29Z</time>
      </trkpt>
      <trkpt lat="46.66439" lon="5.8077">
        <ele>595.3</ele>
        <time>2021-09-12T09:40:38Z</time>
      </trkpt>
      <trkpt lat="46.66444" lon="5.8077">
        <ele>595.4</ele>
        <time>2021-09-12T09:40:54Z</time>
      </trkpt>
      <trkpt lat="46.66442" lon="5.80777">
        <ele>597.4</ele>
        <time>2021-09-12T09:41:09Z</time>
      </trkpt>
      <trkpt lat="46.66438" lon="5.80781">
        <ele>599</ele>
        <time>2021-09-12T09:41:21Z</time>
      </trkpt>
      <trkpt lat="46.66433" lon="5.80782">
        <ele>599.6</ele>
        <time>2021-09-12T09:41:25Z</time>
      </trkpt>
      <trkpt lat="46.66429" lon="5.80787">
        <ele>600.1</ele>
        <time>2021-09-12T09:41:29Z</time>
      </trkpt>
      <trkpt lat="46.66427" lon="5.80795">
        <ele>600.2</ele>
        <time>2021-09-12T09:41:33Z</time>
      </trkpt>
      <trkpt lat="46.66425" lon="5.80802">
        <ele>600.4</ele>
        <time>2021-09-12T09:41:36Z</time>
      </trkpt>
      <trkpt lat="46.66422" lon="5.80808">
        <ele>600.8</ele>
        <time>2021-09-12T09:41:39Z</time>
      </trkpt>
      <trkpt lat="46.66418" lon="5.80812">
        <ele>600.9</ele>
        <time>2021-09-12T09:41:54Z</time>
      </trkpt>
      <trkpt lat="46.66414" lon="5.80818">
        <ele>601.1</ele>
        <time>2021-09-12T09:41:58Z</time>
      </trkpt>
      <trkpt lat="46.66412" lon="5.80824">
        <ele>601.3</ele>
        <time>2021-09-12T09:42:02Z</time>
      </trkpt>
      <trkpt lat="46.66411" lon="5.80831">
        <ele>602.8</ele>
        <time>2021-09-12T09:42:09Z</time>
      </trkpt>
      <trkpt lat="46.6641" lon="5.80838">
        <ele>606.1</ele>
        <time>2021-09-12T09:42:24Z</time>
      </trkpt>
      <trkpt lat="46.66407" lon="5.80845">
        <ele>606.7</ele>
        <time>2021-09-12T09:42:28Z</time>
      </trkpt>
      <trkpt lat="46.66404" lon="5.80851">
        <ele>606.8</ele>
        <time>2021-09-12T09:42:35Z</time>
      </trkpt>
      <trkpt lat="46.66401" lon="5.80857">
        <ele>606.3</ele>
        <time>2021-09-12T09:42:40Z</time>
      </trkpt>
      <trkpt lat="46.66398" lon="5.80863">
        <ele>605.4</ele>
        <time>2021-09-12T09:42:47Z</time>
      </trkpt>
      <trkpt lat="46.66393" lon="5.80868">
        <ele>604.5</ele>
        <time>2021-09-12T09:42:52Z</time>
      </trkpt>
      <trkpt lat="46.66389" lon="5.80873">
        <ele>604</ele>
        <time>2021-09-12T09:42:56Z</time>
      </trkpt>
      <trkpt lat="46.66386" lon="5.8088">
        <ele>603.4</ele>
        <time>2021-09-12T09:43:00Z</time>
      </trkpt>
      <trkpt lat="46.66384" lon="5.80886">
        <ele>603</ele>
        <time>2021-09-12T09:43:03Z</time>
      </trkpt>
      <trkpt lat="46.6638" lon="5.80892">
        <ele>602.6</ele>
        <time>2021-09-12T09:43:07Z</time>
      </trkpt>
      <trkpt lat="46.66377" lon="5.80898">
        <ele>602.6</ele>
        <time>2021-09-12T09:43:11Z</time>
      </trkpt>
      <trkpt lat="46.66373" lon="5.80904">
        <ele>602.4</ele>
        <time>2021-09-12T09:43:16Z</time>
      </trkpt>
      <trkpt lat="46.66371" lon="5.80912">
        <ele>602.5</ele>
        <time>2021-09-12T09:43:20Z</time>
      </trkpt>
      <trkpt lat="46.66368" lon="5.80917">
        <ele>602.9</ele>
        <time>2021-09-12T09:43:26Z</time>
      </trkpt>
      <trkpt lat="46.66364" lon="5.80922">
        <ele>602.9</ele>
        <time>2021-09-12T09:43:30Z</time>
      </trkpt>
      <trkpt lat="46.66361" lon="5.80927">
        <ele>602.2</ele>
        <time>2021-09-12T09:43:37Z</time>
      </trkpt>
      <trkpt lat="46.66358" lon="5.80934">
        <ele>601.5</ele>
        <time>2021-09-12T09:43:53Z</time>
      </trkpt>
      <trkpt lat="46.66353" lon="5.80937">
        <ele>601.5</ele>
        <time>2021-09-12T09:44:00Z</time>
      </trkpt>
      <trkpt lat="46.66349" lon="5.80941">
        <ele>601.4</ele>
        <time>2021-09-12T09:44:05Z</time>
      </trkpt>
      <trkpt lat="46.6635" lon="5.80948">
        <ele>601</ele>
        <time>2021-09-12T09:44:12Z</time>
      </trkpt>
      <trkpt lat="46.66351" lon="5.80955">
        <ele>600</ele>
        <time>2021-09-12T09:44:22Z</time>
      </trkpt>
      <trkpt lat="46.66351" lon="5.80962">
        <ele>599.6</ele>
        <time>2021-09-12T09:44:26Z</time>
      </trkpt>
      <trkpt lat="46.66349" lon="5.80969">
        <ele>599.3</ele>
        <time>2021-09-12T09:44:29Z</time>
      </trkpt>
      <trkpt lat="46.66346" lon="5.80975">
        <ele>598.9</ele>
        <time>2021-09-12T09:44:33Z</time>
      </trkpt>
      <trkpt lat="46.66344" lon="5.80981">
        <ele>598.5</ele>
        <time>2021-09-12T09:44:36Z</time>
      </trkpt>
      <trkpt lat="46.66342" lon="5.80988">
        <ele>598.1</ele>
        <time>2021-09-12T09:44:40Z</time>
      </trkpt>
      <trkpt lat="46.66339" lon="5.80993">
        <ele>597.7</ele>
        <time>2021-09-12T09:44:43Z</time>
      </trkpt>
      <trkpt lat="46.66335" lon="5.80997">
        <ele>597.4</ele>
        <time>2021-09-12T09:44:46Z</time>
      </trkpt>
      <trkpt lat="46.66331" lon="5.81001">
        <ele>597.5</ele>
        <time>2021-09-12T09:44:49Z</time>
      </trkpt>
      <trkpt lat="46.66326" lon="5.81004">
        <ele>597.7</ele>
        <time>2021-09-12T09:44:53Z</time>
      </trkpt>
      <trkpt lat="46.66322" lon="5.81008">
        <ele>597.7</ele>
        <time>2021-09-12T09:44:59Z</time>
      </trkpt>
      <trkpt lat="46.66318" lon="5.81012">
        <ele>597.7</ele>
        <time>2021-09-12T09:45:05Z</time>
      </trkpt>
      <trkpt lat="46.66316" lon="5.81018">
        <ele>597.5</ele>
        <time>2021-09-12T09:45:12Z</time>
      </trkpt>
      <trkpt lat="46.66315" lon="5.81026">
        <ele>597.5</ele>
        <time>2021-09-12T09:45:18Z</time>
      </trkpt>
      <trkpt lat="46.66318" lon="5.81033">
        <ele>598.8</ele>
        <time>2021-09-12T09:45:30Z</time>
      </trkpt>
      <trkpt lat="46.66315" lon="5.81039">
        <ele>599.4</ele>
        <time>2021-09-12T09:45:39Z</time>
      </trkpt>
      <trkpt lat="46.66312" lon="5.81044">
        <ele>601.8</ele>
        <time>2021-09-12T09:46:05Z</time>
      </trkpt>
      <trkpt lat="46.66308" lon="5.81048">
        <ele>603.3</ele>
        <time>2021-09-12T09:46:16Z</time>
      </trkpt>
      <trkpt lat="46.66312" lon="5.81042">
        <ele>605.8</ele>
        <time>2021-09-12T09:46:50Z</time>
      </trkpt>
      <trkpt lat="46.66315" lon="5.81036">
        <ele>604.8</ele>
        <time>2021-09-12T09:46:58Z</time>
      </trkpt>
      <trkpt lat="46.66319" lon="5.81032">
        <ele>604.1</ele>
        <time>2021-09-12T09:47:01Z</time>
      </trkpt>
      <trkpt lat="46.66322" lon="5.81028">
        <ele>602.5</ele>
        <time>2021-09-12T09:47:10Z</time>
      </trkpt>
      <trkpt lat="46.66326" lon="5.81022">
        <ele>599.3</ele>
        <time>2021-09-12T09:47:19Z</time>
      </trkpt>
      <trkpt lat="46.66328" lon="5.81017">
        <ele>595.8</ele>
        <time>2021-09-12T09:47:30Z</time>
      </trkpt>
      <trkpt lat="46.66331" lon="5.81011">
        <ele>594.3</ele>
        <time>2021-09-12T09:47:38Z</time>
      </trkpt>
      <trkpt lat="46.66327" lon="5.81016">
        <ele>592.8</ele>
        <time>2021-09-12T09:47:59Z</time>
      </trkpt>
      <trkpt lat="46.66322" lon="5.81015">
        <ele>589.1</ele>
        <time>2021-09-12T09:48:41Z</time>
      </trkpt>
      <trkpt lat="46.66319" lon="5.81021">
        <ele>589.4</ele>
        <time>2021-09-12T09:48:52Z</time>
      </trkpt>
      <trkpt lat="46.66315" lon="5.81025">
        <ele>589.2</ele>
        <time>2021-09-12T09:48:56Z</time>
      </trkpt>
      <trkpt lat="46.66311" lon="5.81023">
        <ele>588.9</ele>
        <time>2021-09-12T09:49:04Z</time>
      </trkpt>
      <trkpt lat="46.66308" lon="5.81028">
        <ele>588.6</ele>
        <time>2021-09-12T09:49:09Z</time>
      </trkpt>
      <trkpt lat="46.66304" lon="5.81035">
        <ele>588.2</ele>
        <time>2021-09-12T09:49:13Z</time>
      </trkpt>
      <trkpt lat="46.663" lon="5.81039">
        <ele>587.6</ele>
        <time>2021-09-12T09:49:16Z</time>
      </trkpt>
      <trkpt lat="46.66295" lon="5.81044">
        <ele>586.4</ele>
        <time>2021-09-12T09:49:22Z</time>
      </trkpt>
      <trkpt lat="46.66291" lon="5.81047">
        <ele>585.7</ele>
        <time>2021-09-12T09:49:26Z</time>
      </trkpt>
      <trkpt lat="46.66287" lon="5.81048">
        <ele>585</ele>
        <time>2021-09-12T09:49:31Z</time>
      </trkpt>
      <trkpt lat="46.66284" lon="5.81054">
        <ele>583.7</ele>
        <time>2021-09-12T09:49:45Z</time>
      </trkpt>
      <trkpt lat="46.66281" lon="5.81059">
        <ele>583</ele>
        <time>2021-09-12T09:49:55Z</time>
      </trkpt>
      <trkpt lat="46.66277" lon="5.81065">
        <ele>583.1</ele>
        <time>2021-09-12T09:50:02Z</time>
      </trkpt>
      <trkpt lat="46.66276" lon="5.81071">
        <ele>583.1</ele>
        <time>2021-09-12T09:50:08Z</time>
      </trkpt>
      <trkpt lat="46.66273" lon="5.81076">
        <ele>583.3</ele>
        <time>2021-09-12T09:50:14Z</time>
      </trkpt>
      <trkpt lat="46.66268" lon="5.81079">
        <ele>583.9</ele>
        <time>2021-09-12T09:50:23Z</time>
      </trkpt>
      <trkpt lat="46.66265" lon="5.81084">
        <ele>584</ele>
        <time>2021-09-12T09:50:34Z</time>
      </trkpt>
      <trkpt lat="46.66262" lon="5.8109">
        <ele>583.9</ele>
        <time>2021-09-12T09:50:37Z</time>
      </trkpt>
      <trkpt lat="46.66255" lon="5.81101">
        <ele>583.7</ele>
        <time>2021-09-12T09:50:40Z</time>
      </trkpt>
      <trkpt lat="46.66251" lon="5.81107">
        <ele>583.5</ele>
        <time>2021-09-12T09:50:43Z</time>
      </trkpt>
      <trkpt lat="46.66247" lon="5.81112">
        <ele>583.8</ele>
        <time>2021-09-12T09:50:49Z</time>
      </trkpt>
      <trkpt lat="46.66242" lon="5.81113">
        <ele>584.3</ele>
        <time>2021-09-12T09:50:54Z</time>
      </trkpt>
      <trkpt lat="46.66237" lon="5.81118">
        <ele>584.8</ele>
        <time>2021-09-12T09:50:58Z</time>
      </trkpt>
      <trkpt lat="46.66233" lon="5.81124">
        <ele>585.5</ele>
        <time>2021-09-12T09:51:02Z</time>
      </trkpt>
      <trkpt lat="46.66229" lon="5.8113">
        <ele>585.9</ele>
        <time>2021-09-12T09:51:05Z</time>
      </trkpt>
      <trkpt lat="46.66225" lon="5.81137">
        <ele>586.4</ele>
        <time>2021-09-12T09:51:08Z</time>
      </trkpt>
      <trkpt lat="46.66221" lon="5.81142">
        <ele>587</ele>
        <time>2021-09-12T09:51:11Z</time>
      </trkpt>
      <trkpt lat="46.66216" lon="5.81145">
        <ele>587.2</ele>
        <time>2021-09-12T09:51:15Z</time>
      </trkpt>
      <trkpt lat="46.66212" lon="5.81149">
        <ele>587.1</ele>
        <time>2021-09-12T09:51:19Z</time>
      </trkpt>
      <trkpt lat="46.66209" lon="5.81153">
        <ele>586.9</ele>
        <time>2021-09-12T09:51:24Z</time>
      </trkpt>
      <trkpt lat="46.66205" lon="5.81159">
        <ele>586.8</ele>
        <time>2021-09-12T09:51:28Z</time>
      </trkpt>
      <trkpt lat="46.662" lon="5.81165">
        <ele>586.9</ele>
        <time>2021-09-12T09:51:31Z</time>
      </trkpt>
      <trkpt lat="46.66197" lon="5.8117">
        <ele>587</ele>
        <time>2021-09-12T09:51:34Z</time>
      </trkpt>
      <trkpt lat="46.66193" lon="5.81173">
        <ele>587.6</ele>
        <time>2021-09-12T09:51:39Z</time>
      </trkpt>
      <trkpt lat="46.66189" lon="5.81178">
        <ele>589.9</ele>
        <time>2021-09-12T09:51:50Z</time>
      </trkpt>
      <trkpt lat="46.66186" lon="5.81184">
        <ele>591.2</ele>
        <time>2021-09-12T09:51:58Z</time>
      </trkpt>
      <trkpt lat="46.66182" lon="5.81189">
        <ele>592</ele>
        <time>2021-09-12T09:52:04Z</time>
      </trkpt>
      <trkpt lat="46.66185" lon="5.81183">
        <ele>592.5</ele>
        <time>2021-09-12T09:52:24Z</time>
      </trkpt>
      <trkpt lat="46.66185" lon="5.8119">
        <ele>589.7</ele>
        <time>2021-09-12T09:52:51Z</time>
      </trkpt>
      <trkpt lat="46.66184" lon="5.81197">
        <ele>588.7</ele>
        <time>2021-09-12T09:52:56Z</time>
      </trkpt>
      <trkpt lat="46.6618" lon="5.81202">
        <ele>587.5</ele>
        <time>2021-09-12T09:53:02Z</time>
      </trkpt>
      <trkpt lat="46.66176" lon="5.81205">
        <ele>585.9</ele>
        <time>2021-09-12T09:53:11Z</time>
      </trkpt>
      <trkpt lat="46.66172" lon="5.81212">
        <ele>585.4</ele>
        <time>2021-09-12T09:53:23Z</time>
      </trkpt>
      <trkpt lat="46.66168" lon="5.81217">
        <ele>585.4</ele>
        <time>2021-09-12T09:53:26Z</time>
      </trkpt>
      <trkpt lat="46.66165" lon="5.81222">
        <ele>585.8</ele>
        <time>2021-09-12T09:53:29Z</time>
      </trkpt>
      <trkpt lat="46.66162" lon="5.81228">
        <ele>586.6</ele>
        <time>2021-09-12T09:53:33Z</time>
      </trkpt>
      <trkpt lat="46.66158" lon="5.81231">
        <ele>588.7</ele>
        <time>2021-09-12T09:53:39Z</time>
      </trkpt>
      <trkpt lat="46.66153" lon="5.81232">
        <ele>590.6</ele>
        <time>2021-09-12T09:53:46Z</time>
      </trkpt>
      <trkpt lat="46.66148" lon="5.81237">
        <ele>591.1</ele>
        <time>2021-09-12T09:53:50Z</time>
      </trkpt>
      <trkpt lat="46.66147" lon="5.81243">
        <ele>591.2</ele>
        <time>2021-09-12T09:53:55Z</time>
      </trkpt>
      <trkpt lat="46.66147" lon="5.8125">
        <ele>590.8</ele>
        <time>2021-09-12T09:54:02Z</time>
      </trkpt>
      <trkpt lat="46.66144" lon="5.81256">
        <ele>590.4</ele>
        <time>2021-09-12T09:54:07Z</time>
      </trkpt>
      <trkpt lat="46.66141" lon="5.81262">
        <ele>589.9</ele>
        <time>2021-09-12T09:54:11Z</time>
      </trkpt>
      <trkpt lat="46.66137" lon="5.81268">
        <ele>589.8</ele>
        <time>2021-09-12T09:54:14Z</time>
      </trkpt>
      <trkpt lat="46.66132" lon="5.81272">
        <ele>590</ele>
        <time>2021-09-12T09:54:19Z</time>
      </trkpt>
      <trkpt lat="46.66129" lon="5.81276">
        <ele>589.8</ele>
        <time>2021-09-12T09:54:29Z</time>
      </trkpt>
      <trkpt lat="46.66129" lon="5.81284">
        <ele>589.7</ele>
        <time>2021-09-12T09:54:35Z</time>
      </trkpt>
      <trkpt lat="46.66127" lon="5.81291">
        <ele>590.2</ele>
        <time>2021-09-12T09:54:38Z</time>
      </trkpt>
      <trkpt lat="46.66123" lon="5.81296">
        <ele>590.6</ele>
        <time>2021-09-12T09:54:44Z</time>
      </trkpt>
      <trkpt lat="46.66121" lon="5.81303">
        <ele>590.8</ele>
        <time>2021-09-12T09:54:52Z</time>
      </trkpt>
      <trkpt lat="46.66118" lon="5.8131">
        <ele>590.8</ele>
        <time>2021-09-12T09:54:56Z</time>
      </trkpt>
      <trkpt lat="46.66117" lon="5.81318">
        <ele>590.6</ele>
        <time>2021-09-12T09:55:00Z</time>
      </trkpt>
      <trkpt lat="46.66115" lon="5.81324">
        <ele>590.1</ele>
        <time>2021-09-12T09:55:04Z</time>
      </trkpt>
      <trkpt lat="46.66112" lon="5.81329">
        <ele>589.6</ele>
        <time>2021-09-12T09:55:09Z</time>
      </trkpt>
      <trkpt lat="46.66108" lon="5.81335">
        <ele>588.5</ele>
        <time>2021-09-12T09:55:17Z</time>
      </trkpt>
      <trkpt lat="46.66106" lon="5.81341">
        <ele>588.1</ele>
        <time>2021-09-12T09:55:21Z</time>
      </trkpt>
      <trkpt lat="46.66108" lon="5.81347">
        <ele>586.5</ele>
        <time>2021-09-12T09:55:34Z</time>
      </trkpt>
      <trkpt lat="46.66111" lon="5.81352">
        <ele>586.5</ele>
        <time>2021-09-12T09:55:39Z</time>
      </trkpt>
      <trkpt lat="46.66109" lon="5.81359">
        <ele>586.7</ele>
        <time>2021-09-12T09:55:43Z</time>
      </trkpt>
      <trkpt lat="46.66109" lon="5.81367">
        <ele>587.2</ele>
        <time>2021-09-12T09:55:47Z</time>
      </trkpt>
      <trkpt lat="46.66109" lon="5.81374">
        <ele>587.9</ele>
        <time>2021-09-12T09:55:51Z</time>
      </trkpt>
      <trkpt lat="46.66108" lon="5.81381">
        <ele>588.3</ele>
        <time>2021-09-12T09:55:55Z</time>
      </trkpt>
      <trkpt lat="46.66107" lon="5.81387">
        <ele>588.5</ele>
        <time>2021-09-12T09:55:59Z</time>
      </trkpt>
      <trkpt lat="46.66105" lon="5.81394">
        <ele>588.6</ele>
        <time>2021-09-12T09:56:05Z</time>
      </trkpt>
      <trkpt lat="46.66107" lon="5.814">
        <ele>588.9</ele>
        <time>2021-09-12T09:56:10Z</time>
      </trkpt>
      <trkpt lat="46.66108" lon="5.81407">
        <ele>589.2</ele>
        <time>2021-09-12T09:56:14Z</time>
      </trkpt>
      <trkpt lat="46.66106" lon="5.81418">
        <ele>589.2</ele>
        <time>2021-09-12T09:56:35Z</time>
      </trkpt>
      <trkpt lat="46.66104" lon="5.81423">
        <ele>590.3</ele>
        <time>2021-09-12T09:56:39Z</time>
      </trkpt>
      <trkpt lat="46.66105" lon="5.81429">
        <ele>591.6</ele>
        <time>2021-09-12T09:56:50Z</time>
      </trkpt>
      <trkpt lat="46.66107" lon="5.81437">
        <ele>591.9</ele>
        <time>2021-09-12T09:56:57Z</time>
      </trkpt>
      <trkpt lat="46.66106" lon="5.81443">
        <ele>592</ele>
        <time>2021-09-12T09:57:08Z</time>
      </trkpt>
      <trkpt lat="46.66104" lon="5.8145">
        <ele>591.2</ele>
        <time>2021-09-12T09:57:37Z</time>
      </trkpt>
      <trkpt lat="46.66103" lon="5.81457">
        <ele>589.8</ele>
        <time>2021-09-12T09:57:43Z</time>
      </trkpt>
      <trkpt lat="46.66105" lon="5.81449">
        <ele>589.1</ele>
        <time>2021-09-12T09:57:48Z</time>
      </trkpt>
      <trkpt lat="46.66108" lon="5.81441">
        <ele>588.9</ele>
        <time>2021-09-12T09:57:51Z</time>
      </trkpt>
      <trkpt lat="46.66112" lon="5.81439">
        <ele>588.8</ele>
        <time>2021-09-12T09:57:54Z</time>
      </trkpt>
      <trkpt lat="46.66107" lon="5.81456">
        <ele>587.8</ele>
        <time>2021-09-12T09:58:08Z</time>
      </trkpt>
      <trkpt lat="46.66102" lon="5.81464">
        <ele>583.7</ele>
        <time>2021-09-12T09:58:11Z</time>
      </trkpt>
      <trkpt lat="46.66104" lon="5.81473">
        <ele>564.5</ele>
        <time>2021-09-12T09:58:14Z</time>
      </trkpt>
      <trkpt lat="46.66106" lon="5.81479">
        <ele>551.2</ele>
        <time>2021-09-12T09:58:18Z</time>
      </trkpt>
      <trkpt lat="46.66109" lon="5.81487">
        <ele>547.5</ele>
        <time>2021-09-12T09:58:22Z</time>
      </trkpt>
      <trkpt lat="46.66112" lon="5.81495">
        <ele>548.6</ele>
        <time>2021-09-12T09:58:25Z</time>
      </trkpt>
      <trkpt lat="46.66113" lon="5.81503">
        <ele>550.2</ele>
        <time>2021-09-12T09:58:28Z</time>
      </trkpt>
      <trkpt lat="46.66113" lon="5.81511">
        <ele>552.9</ele>
        <time>2021-09-12T09:58:31Z</time>
      </trkpt>
      <trkpt lat="46.66112" lon="5.81519">
        <ele>556.4</ele>
        <time>2021-09-12T09:58:35Z</time>
      </trkpt>
      <trkpt lat="46.66113" lon="5.81526">
        <ele>559.6</ele>
        <time>2021-09-12T09:58:39Z</time>
      </trkpt>
      <trkpt lat="46.66116" lon="5.81532">
        <ele>562</ele>
        <time>2021-09-12T09:58:43Z</time>
      </trkpt>
      <trkpt lat="46.6612" lon="5.81537">
        <ele>564</ele>
        <time>2021-09-12T09:58:46Z</time>
      </trkpt>
      <trkpt lat="46.66121" lon="5.81544">
        <ele>566.3</ele>
        <time>2021-09-12T09:58:50Z</time>
      </trkpt>
      <trkpt lat="46.66121" lon="5.81551">
        <ele>568.7</ele>
        <time>2021-09-12T09:58:59Z</time>
      </trkpt>
      <trkpt lat="46.66124" lon="5.81557">
        <ele>569.1</ele>
        <time>2021-09-12T09:59:04Z</time>
      </trkpt>
      <trkpt lat="46.66127" lon="5.81562">
        <ele>569</ele>
        <time>2021-09-12T09:59:08Z</time>
      </trkpt>
      <trkpt lat="46.6613" lon="5.81568">
        <ele>569.3</ele>
        <time>2021-09-12T09:59:12Z</time>
      </trkpt>
      <trkpt lat="46.66131" lon="5.81575">
        <ele>569.5</ele>
        <time>2021-09-12T09:59:16Z</time>
      </trkpt>
      <trkpt lat="46.66136" lon="5.8158">
        <ele>569.2</ele>
        <time>2021-09-12T09:59:20Z</time>
      </trkpt>
      <trkpt lat="46.6614" lon="5.81586">
        <ele>568.8</ele>
        <time>2021-09-12T09:59:23Z</time>
      </trkpt>
      <trkpt lat="46.66146" lon="5.81592">
        <ele>568.7</ele>
        <time>2021-09-12T09:59:26Z</time>
      </trkpt>
      <trkpt lat="46.66151" lon="5.81598">
        <ele>568.9</ele>
        <time>2021-09-12T09:59:29Z</time>
      </trkpt>
      <trkpt lat="46.66154" lon="5.81605">
        <ele>569.1</ele>
        <time>2021-09-12T09:59:33Z</time>
      </trkpt>
      <trkpt lat="46.66158" lon="5.8161">
        <ele>569.4</ele>
        <time>2021-09-12T09:59:38Z</time>
      </trkpt>
      <trkpt lat="46.66163" lon="5.8161">
        <ele>569.4</ele>
        <time>2021-09-12T09:59:43Z</time>
      </trkpt>
      <trkpt lat="46.66167" lon="5.81605">
        <ele>568.5</ele>
        <time>2021-09-12T09:59:48Z</time>
      </trkpt>
      <trkpt lat="46.66172" lon="5.81601">
        <ele>567.6</ele>
        <time>2021-09-12T09:59:52Z</time>
      </trkpt>
      <trkpt lat="46.66177" lon="5.816">
        <ele>566.5</ele>
        <time>2021-09-12T09:59:58Z</time>
      </trkpt>
      <trkpt lat="46.66182" lon="5.81597">
        <ele>571.1</ele>
        <time>2021-09-12T10:00:43Z</time>
      </trkpt>
      <trkpt lat="46.66184" lon="5.81604">
        <ele>575.3</ele>
        <time>2021-09-12T10:01:37Z</time>
      </trkpt>
      <trkpt lat="46.66188" lon="5.81609">
        <ele>575.1</ele>
        <time>2021-09-12T10:01:44Z</time>
      </trkpt>
      <trkpt lat="46.66191" lon="5.81615">
        <ele>575</ele>
        <time>2021-09-12T10:01:53Z</time>
      </trkpt>
      <trkpt lat="46.66194" lon="5.8162">
        <ele>575.5</ele>
        <time>2021-09-12T10:01:59Z</time>
      </trkpt>
      <trkpt lat="46.66195" lon="5.81626">
        <ele>575.5</ele>
        <time>2021-09-12T10:02:08Z</time>
      </trkpt>
      <trkpt lat="46.662" lon="5.81631">
        <ele>575</ele>
        <time>2021-09-12T10:02:15Z</time>
      </trkpt>
      <trkpt lat="46.66204" lon="5.81632">
        <ele>574.4</ele>
        <time>2021-09-12T10:02:21Z</time>
      </trkpt>
      <trkpt lat="46.66208" lon="5.81637">
        <ele>574.2</ele>
        <time>2021-09-12T10:02:31Z</time>
      </trkpt>
      <trkpt lat="46.66211" lon="5.81641">
        <ele>573.9</ele>
        <time>2021-09-12T10:02:37Z</time>
      </trkpt>
      <trkpt lat="46.66215" lon="5.81646">
        <ele>573.8</ele>
        <time>2021-09-12T10:02:43Z</time>
      </trkpt>
      <trkpt lat="46.66219" lon="5.81646">
        <ele>573.6</ele>
        <time>2021-09-12T10:02:49Z</time>
      </trkpt>
      <trkpt lat="46.66224" lon="5.81648">
        <ele>572.9</ele>
        <time>2021-09-12T10:02:57Z</time>
      </trkpt>
      <trkpt lat="46.66228" lon="5.8165">
        <ele>572.1</ele>
        <time>2021-09-12T10:03:01Z</time>
      </trkpt>
      <trkpt lat="46.66233" lon="5.8165">
        <ele>571.3</ele>
        <time>2021-09-12T10:03:07Z</time>
      </trkpt>
      <trkpt lat="46.66238" lon="5.81651">
        <ele>570.6</ele>
        <time>2021-09-12T10:03:12Z</time>
      </trkpt>
      <trkpt lat="46.66243" lon="5.81655">
        <ele>570.4</ele>
        <time>2021-09-12T10:03:19Z</time>
      </trkpt>
      <trkpt lat="46.66248" lon="5.81656">
        <ele>571</ele>
        <time>2021-09-12T10:03:25Z</time>
      </trkpt>
      <trkpt lat="46.66253" lon="5.81656">
        <ele>571.6</ele>
        <time>2021-09-12T10:03:30Z</time>
      </trkpt>
      <trkpt lat="46.66257" lon="5.81653">
        <ele>572.6</ele>
        <time>2021-09-12T10:03:35Z</time>
      </trkpt>
      <trkpt lat="46.66262" lon="5.8165">
        <ele>574.2</ele>
        <time>2021-09-12T10:03:44Z</time>
      </trkpt>
      <trkpt lat="46.66267" lon="5.81648">
        <ele>575</ele>
        <time>2021-09-12T10:03:50Z</time>
      </trkpt>
      <trkpt lat="46.66272" lon="5.81648">
        <ele>575.6</ele>
        <time>2021-09-12T10:03:57Z</time>
      </trkpt>
      <trkpt lat="46.66276" lon="5.81646">
        <ele>575.5</ele>
        <time>2021-09-12T10:04:04Z</time>
      </trkpt>
      <trkpt lat="46.6628" lon="5.8165">
        <ele>574.8</ele>
        <time>2021-09-12T10:04:12Z</time>
      </trkpt>
      <trkpt lat="46.6628" lon="5.81657">
        <ele>574.1</ele>
        <time>2021-09-12T10:04:25Z</time>
      </trkpt>
      <trkpt lat="46.66279" lon="5.81663">
        <ele>574.3</ele>
        <time>2021-09-12T10:04:30Z</time>
      </trkpt>
      <trkpt lat="46.66276" lon="5.81669">
        <ele>575.3</ele>
        <time>2021-09-12T10:04:39Z</time>
      </trkpt>
      <trkpt lat="46.66272" lon="5.81673">
        <ele>575.3</ele>
        <time>2021-09-12T10:04:42Z</time>
      </trkpt>
      <trkpt lat="46.66268" lon="5.81677">
        <ele>575.5</ele>
        <time>2021-09-12T10:04:48Z</time>
      </trkpt>
      <trkpt lat="46.66263" lon="5.81676">
        <ele>576</ele>
        <time>2021-09-12T10:04:55Z</time>
      </trkpt>
      <trkpt lat="46.66258" lon="5.81679">
        <ele>576.6</ele>
        <time>2021-09-12T10:05:01Z</time>
      </trkpt>
      <trkpt lat="46.66254" lon="5.81681">
        <ele>576.9</ele>
        <time>2021-09-12T10:05:05Z</time>
      </trkpt>
      <trkpt lat="46.66249" lon="5.81682">
        <ele>576.8</ele>
        <time>2021-09-12T10:05:08Z</time>
      </trkpt>
      <trkpt lat="46.66245" lon="5.81685">
        <ele>577</ele>
        <time>2021-09-12T10:05:13Z</time>
      </trkpt>
      <trkpt lat="46.6624" lon="5.81689">
        <ele>577</ele>
        <time>2021-09-12T10:05:17Z</time>
      </trkpt>
      <trkpt lat="46.66235" lon="5.81691">
        <ele>576.8</ele>
        <time>2021-09-12T10:05:20Z</time>
      </trkpt>
      <trkpt lat="46.6623" lon="5.81694">
        <ele>576.4</ele>
        <time>2021-09-12T10:05:24Z</time>
      </trkpt>
      <trkpt lat="46.66226" lon="5.81699">
        <ele>575.8</ele>
        <time>2021-09-12T10:05:28Z</time>
      </trkpt>
      <trkpt lat="46.66222" lon="5.81705">
        <ele>575.1</ele>
        <time>2021-09-12T10:05:32Z</time>
      </trkpt>
      <trkpt lat="46.66223" lon="5.81711">
        <ele>573.3</ele>
        <time>2021-09-12T10:05:42Z</time>
      </trkpt>
      <trkpt lat="46.66221" lon="5.81705">
        <ele>571.4</ele>
        <time>2021-09-12T10:05:55Z</time>
      </trkpt>
      <trkpt lat="46.66217" lon="5.81711">
        <ele>569.8</ele>
        <time>2021-09-12T10:06:04Z</time>
      </trkpt>
      <trkpt lat="46.66215" lon="5.81717">
        <ele>569.3</ele>
        <time>2021-09-12T10:06:13Z</time>
      </trkpt>
      <trkpt lat="46.6622" lon="5.81711">
        <ele>572.3</ele>
        <time>2021-09-12T10:08:06Z</time>
      </trkpt>
      <trkpt lat="46.66227" lon="5.81704">
        <ele>576.8</ele>
        <time>2021-09-12T10:10:23Z</time>
      </trkpt>
      <trkpt lat="46.66229" lon="5.81698">
        <ele>579.2</ele>
        <time>2021-09-12T10:10:27Z</time>
      </trkpt>
      <trkpt lat="46.66234" lon="5.817">
        <ele>599.7</ele>
        <time>2021-09-12T10:22:10Z</time>
      </trkpt>
      <trkpt lat="46.6623" lon="5.81696">
        <ele>595.8</ele>
        <time>2021-09-12T10:26:16Z</time>
      </trkpt>
      <trkpt lat="46.6623" lon="5.81703">
        <ele>594.4</ele>
        <time>2021-09-12T10:33:41Z</time>
      </trkpt>
      <trkpt lat="46.66228" lon="5.81697">
        <ele>592.6</ele>
        <time>2021-09-12T10:40:56Z</time>
      </trkpt>
      <trkpt lat="46.66221" lon="5.81709">
        <ele>589.5</ele>
        <time>2021-09-12T11:09:40Z</time>
      </trkpt>
      <trkpt lat="46.66223" lon="5.81723">
        <ele>584.7</ele>
        <time>2021-09-12T11:09:42Z</time>
      </trkpt>
      <trkpt lat="46.66229" lon="5.81735">
        <ele>576.2</ele>
        <time>2021-09-12T11:09:44Z</time>
      </trkpt>
      <trkpt lat="46.66238" lon="5.81739">
        <ele>572.1</ele>
        <time>2021-09-12T11:09:46Z</time>
      </trkpt>
      <trkpt lat="46.66243" lon="5.81734">
        <ele>571.4</ele>
        <time>2021-09-12T11:09:48Z</time>
      </trkpt>
      <trkpt lat="46.66243" lon="5.81725">
        <ele>570.7</ele>
        <time>2021-09-12T11:09:51Z</time>
      </trkpt>
      <trkpt lat="46.66239" lon="5.81715">
        <ele>574.2</ele>
        <time>2021-09-12T11:09:53Z</time>
      </trkpt>
      <trkpt lat="46.66236" lon="5.81709">
        <ele>576.2</ele>
        <time>2021-09-12T11:09:57Z</time>
      </trkpt>
      <trkpt lat="46.66236" lon="5.81702">
        <ele>580.3</ele>
        <time>2021-09-12T11:10:02Z</time>
      </trkpt>
      <trkpt lat="46.66241" lon="5.81704">
        <ele>576.7</ele>
        <time>2021-09-12T11:10:47Z</time>
      </trkpt>
      <trkpt lat="46.66237" lon="5.81699">
        <ele>575.5</ele>
        <time>2021-09-12T11:10:57Z</time>
      </trkpt>
      <trkpt lat="46.66234" lon="5.81694">
        <ele>575.5</ele>
        <time>2021-09-12T11:11:02Z</time>
      </trkpt>
      <trkpt lat="46.66233" lon="5.817">
        <ele>577.6</ele>
        <time>2021-09-12T11:11:37Z</time>
      </trkpt>
      <trkpt lat="46.66232" lon="5.81694">
        <ele>581.7</ele>
        <time>2021-09-12T11:12:20Z</time>
      </trkpt>
      <trkpt lat="46.66236" lon="5.81687">
        <ele>585.3</ele>
        <time>2021-09-12T11:12:50Z</time>
      </trkpt>
      <trkpt lat="46.6624" lon="5.81683">
        <ele>587.5</ele>
        <time>2021-09-12T11:12:54Z</time>
      </trkpt>
      <trkpt lat="46.66244" lon="5.81679">
        <ele>589.3</ele>
        <time>2021-09-12T11:13:03Z</time>
      </trkpt>
      <trkpt lat="46.66247" lon="5.81674">
        <ele>590.4</ele>
        <time>2021-09-12T11:13:10Z</time>
      </trkpt>
      <trkpt lat="46.66252" lon="5.81673">
        <ele>591</ele>
        <time>2021-09-12T11:13:16Z</time>
      </trkpt>
      <trkpt lat="46.66256" lon="5.81675">
        <ele>591.7</ele>
        <time>2021-09-12T11:13:26Z</time>
      </trkpt>
      <trkpt lat="46.66261" lon="5.81671">
        <ele>592.2</ele>
        <time>2021-09-12T11:13:32Z</time>
      </trkpt>
      <trkpt lat="46.66266" lon="5.81671">
        <ele>592.4</ele>
        <time>2021-09-12T11:13:38Z</time>
      </trkpt>
      <trkpt lat="46.6627" lon="5.81673">
        <ele>592.1</ele>
        <time>2021-09-12T11:13:43Z</time>
      </trkpt>
      <trkpt lat="46.66274" lon="5.81676">
        <ele>591.4</ele>
        <time>2021-09-12T11:13:48Z</time>
      </trkpt>
      <trkpt lat="46.66279" lon="5.81675">
        <ele>591</ele>
        <time>2021-09-12T11:13:53Z</time>
      </trkpt>
      <trkpt lat="46.66281" lon="5.81668">
        <ele>590.4</ele>
        <time>2021-09-12T11:14:04Z</time>
      </trkpt>
      <trkpt lat="46.66285" lon="5.81666">
        <ele>589.6</ele>
        <time>2021-09-12T11:14:11Z</time>
      </trkpt>
      <trkpt lat="46.66289" lon="5.81665">
        <ele>588.5</ele>
        <time>2021-09-12T11:14:18Z</time>
      </trkpt>
      <trkpt lat="46.66294" lon="5.81661">
        <ele>587.5</ele>
        <time>2021-09-12T11:14:25Z</time>
      </trkpt>
      <trkpt lat="46.66297" lon="5.81656">
        <ele>586.6</ele>
        <time>2021-09-12T11:14:31Z</time>
      </trkpt>
      <trkpt lat="46.66301" lon="5.81651">
        <ele>586.2</ele>
        <time>2021-09-12T11:14:37Z</time>
      </trkpt>
      <trkpt lat="46.66306" lon="5.8165">
        <ele>585.9</ele>
        <time>2021-09-12T11:14:46Z</time>
      </trkpt>
      <trkpt lat="46.66311" lon="5.81649">
        <ele>585.2</ele>
        <time>2021-09-12T11:14:53Z</time>
      </trkpt>
      <trkpt lat="46.66315" lon="5.81645">
        <ele>585.1</ele>
        <time>2021-09-12T11:15:00Z</time>
      </trkpt>
      <trkpt lat="46.66319" lon="5.81641">
        <ele>585</ele>
        <time>2021-09-12T11:15:07Z</time>
      </trkpt>
      <trkpt lat="46.66321" lon="5.81648">
        <ele>583.2</ele>
        <time>2021-09-12T11:15:31Z</time>
      </trkpt>
      <trkpt lat="46.66317" lon="5.81649">
        <ele>582.7</ele>
        <time>2021-09-12T11:16:24Z</time>
      </trkpt>
      <trkpt lat="46.66317" lon="5.81642">
        <ele>584.1</ele>
        <time>2021-09-12T11:16:36Z</time>
      </trkpt>
      <trkpt lat="46.66314" lon="5.81647">
        <ele>582.2</ele>
        <time>2021-09-12T11:17:26Z</time>
      </trkpt>
      <trkpt lat="46.66312" lon="5.81653">
        <ele>580.7</ele>
        <time>2021-09-12T11:17:31Z</time>
      </trkpt>
      <trkpt lat="46.66311" lon="5.8166">
        <ele>579.9</ele>
        <time>2021-09-12T11:17:37Z</time>
      </trkpt>
      <trkpt lat="46.66312" lon="5.81667">
        <ele>579.4</ele>
        <time>2021-09-12T11:17:46Z</time>
      </trkpt>
      <trkpt lat="46.66311" lon="5.81674">
        <ele>579.1</ele>
        <time>2021-09-12T11:17:52Z</time>
      </trkpt>
      <trkpt lat="46.66313" lon="5.81681">
        <ele>579.5</ele>
        <time>2021-09-12T11:17:57Z</time>
      </trkpt>
      <trkpt lat="46.66313" lon="5.81689">
        <ele>580.5</ele>
        <time>2021-09-12T11:18:02Z</time>
      </trkpt>
      <trkpt lat="46.66313" lon="5.81696">
        <ele>582.6</ele>
        <time>2021-09-12T11:18:10Z</time>
      </trkpt>
      <trkpt lat="46.66313" lon="5.81702">
        <ele>584</ele>
        <time>2021-09-12T11:18:19Z</time>
      </trkpt>
      <trkpt lat="46.6631" lon="5.81708">
        <ele>584.9</ele>
        <time>2021-09-12T11:18:25Z</time>
      </trkpt>
      <trkpt lat="46.66309" lon="5.81715">
        <ele>585.7</ele>
        <time>2021-09-12T11:18:31Z</time>
      </trkpt>
      <trkpt lat="46.66308" lon="5.81722">
        <ele>586.9</ele>
        <time>2021-09-12T11:18:38Z</time>
      </trkpt>
      <trkpt lat="46.66307" lon="5.8173">
        <ele>588.1</ele>
        <time>2021-09-12T11:18:46Z</time>
      </trkpt>
      <trkpt lat="46.66307" lon="5.81736">
        <ele>588.3</ele>
        <time>2021-09-12T11:18:54Z</time>
      </trkpt>
      <trkpt lat="46.66302" lon="5.8174">
        <ele>587.7</ele>
        <time>2021-09-12T11:19:01Z</time>
      </trkpt>
      <trkpt lat="46.66299" lon="5.81747">
        <ele>586.5</ele>
        <time>2021-09-12T11:19:08Z</time>
      </trkpt>
      <trkpt lat="46.66296" lon="5.81752">
        <ele>585.3</ele>
        <time>2021-09-12T11:19:12Z</time>
      </trkpt>
      <trkpt lat="46.66294" lon="5.81758">
        <ele>584.4</ele>
        <time>2021-09-12T11:19:16Z</time>
      </trkpt>
      <trkpt lat="46.66289" lon="5.81762">
        <ele>584.3</ele>
        <time>2021-09-12T11:19:22Z</time>
      </trkpt>
      <trkpt lat="46.66285" lon="5.81759">
        <ele>583.5</ele>
        <time>2021-09-12T11:19:28Z</time>
      </trkpt>
      <trkpt lat="46.66281" lon="5.81763">
        <ele>582.7</ele>
        <time>2021-09-12T11:19:34Z</time>
      </trkpt>
      <trkpt lat="46.66278" lon="5.81768">
        <ele>582</ele>
        <time>2021-09-12T11:19:38Z</time>
      </trkpt>
      <trkpt lat="46.66275" lon="5.81774">
        <ele>582.2</ele>
        <time>2021-09-12T11:19:43Z</time>
      </trkpt>
      <trkpt lat="46.66276" lon="5.81781">
        <ele>582.6</ele>
        <time>2021-09-12T11:19:48Z</time>
      </trkpt>
      <trkpt lat="46.66276" lon="5.81788">
        <ele>582.3</ele>
        <time>2021-09-12T11:19:56Z</time>
      </trkpt>
      <trkpt lat="46.66278" lon="5.81795">
        <ele>580.4</ele>
        <time>2021-09-12T11:20:05Z</time>
      </trkpt>
      <trkpt lat="46.66281" lon="5.818">
        <ele>579.6</ele>
        <time>2021-09-12T11:20:11Z</time>
      </trkpt>
      <trkpt lat="46.66283" lon="5.81806">
        <ele>579.3</ele>
        <time>2021-09-12T11:20:18Z</time>
      </trkpt>
      <trkpt lat="46.66284" lon="5.81813">
        <ele>579.8</ele>
        <time>2021-09-12T11:20:25Z</time>
      </trkpt>
      <trkpt lat="46.66287" lon="5.81817">
        <ele>581.3</ele>
        <time>2021-09-12T11:20:32Z</time>
      </trkpt>
      <trkpt lat="46.66291" lon="5.81823">
        <ele>583.3</ele>
        <time>2021-09-12T11:20:38Z</time>
      </trkpt>
      <trkpt lat="46.66295" lon="5.81827">
        <ele>584.6</ele>
        <time>2021-09-12T11:20:42Z</time>
      </trkpt>
      <trkpt lat="46.66299" lon="5.81832">
        <ele>585.4</ele>
        <time>2021-09-12T11:20:47Z</time>
      </trkpt>
      <trkpt lat="46.66302" lon="5.81838">
        <ele>586.6</ele>
        <time>2021-09-12T11:20:52Z</time>
      </trkpt>
      <trkpt lat="46.66305" lon="5.81843">
        <ele>588.2</ele>
        <time>2021-09-12T11:21:00Z</time>
      </trkpt>
      <trkpt lat="46.66309" lon="5.81847">
        <ele>588.4</ele>
        <time>2021-09-12T11:21:09Z</time>
      </trkpt>
      <trkpt lat="46.66313" lon="5.81849">
        <ele>586.9</ele>
        <time>2021-09-12T11:21:16Z</time>
      </trkpt>
      <trkpt lat="46.66316" lon="5.81855">
        <ele>585</ele>
        <time>2021-09-12T11:21:24Z</time>
      </trkpt>
      <trkpt lat="46.66319" lon="5.81861">
        <ele>584.6</ele>
        <time>2021-09-12T11:21:29Z</time>
      </trkpt>
      <trkpt lat="46.66322" lon="5.81866">
        <ele>584.6</ele>
        <time>2021-09-12T11:21:33Z</time>
      </trkpt>
      <trkpt lat="46.66326" lon="5.81868">
        <ele>584.4</ele>
        <time>2021-09-12T11:21:40Z</time>
      </trkpt>
      <trkpt lat="46.66329" lon="5.81874">
        <ele>585.1</ele>
        <time>2021-09-12T11:21:47Z</time>
      </trkpt>
      <trkpt lat="46.66329" lon="5.81881">
        <ele>584.3</ele>
        <time>2021-09-12T11:21:53Z</time>
      </trkpt>
      <trkpt lat="46.6633" lon="5.81889">
        <ele>582.4</ele>
        <time>2021-09-12T11:22:00Z</time>
      </trkpt>
      <trkpt lat="46.66333" lon="5.81894">
        <ele>581.8</ele>
        <time>2021-09-12T11:22:04Z</time>
      </trkpt>
      <trkpt lat="46.66336" lon="5.81899">
        <ele>581.5</ele>
        <time>2021-09-12T11:22:08Z</time>
      </trkpt>
      <trkpt lat="46.66339" lon="5.81904">
        <ele>580.3</ele>
        <time>2021-09-12T11:22:14Z</time>
      </trkpt>
      <trkpt lat="46.66339" lon="5.81911">
        <ele>578</ele>
        <time>2021-09-12T11:22:23Z</time>
      </trkpt>
      <trkpt lat="46.66339" lon="5.81918">
        <ele>576.6</ele>
        <time>2021-09-12T11:22:30Z</time>
      </trkpt>
      <trkpt lat="46.66342" lon="5.81924">
        <ele>575.9</ele>
        <time>2021-09-12T11:22:36Z</time>
      </trkpt>
      <trkpt lat="46.66346" lon="5.81928">
        <ele>575.7</ele>
        <time>2021-09-12T11:22:41Z</time>
      </trkpt>
      <trkpt lat="46.66349" lon="5.81933">
        <ele>576.4</ele>
        <time>2021-09-12T11:22:47Z</time>
      </trkpt>
      <trkpt lat="46.66349" lon="5.81939">
        <ele>576.9</ele>
        <time>2021-09-12T11:22:53Z</time>
      </trkpt>
      <trkpt lat="46.66352" lon="5.81945">
        <ele>576.8</ele>
        <time>2021-09-12T11:23:00Z</time>
      </trkpt>
      <trkpt lat="46.66352" lon="5.81952">
        <ele>576.9</ele>
        <time>2021-09-12T11:23:05Z</time>
      </trkpt>
      <trkpt lat="46.66351" lon="5.8196">
        <ele>577.5</ele>
        <time>2021-09-12T11:23:10Z</time>
      </trkpt>
      <trkpt lat="46.66351" lon="5.81967">
        <ele>578.7</ele>
        <time>2021-09-12T11:23:15Z</time>
      </trkpt>
      <trkpt lat="46.66351" lon="5.81975">
        <ele>579.8</ele>
        <time>2021-09-12T11:23:20Z</time>
      </trkpt>
      <trkpt lat="46.66349" lon="5.81981">
        <ele>580.8</ele>
        <time>2021-09-12T11:23:27Z</time>
      </trkpt>
      <trkpt lat="46.66345" lon="5.81987">
        <ele>580.8</ele>
        <time>2021-09-12T11:23:31Z</time>
      </trkpt>
      <trkpt lat="46.66342" lon="5.81993">
        <ele>580.6</ele>
        <time>2021-09-12T11:23:36Z</time>
      </trkpt>
      <trkpt lat="46.66346" lon="5.81997">
        <ele>580.7</ele>
        <time>2021-09-12T11:23:43Z</time>
      </trkpt>
      <trkpt lat="46.66349" lon="5.82002">
        <ele>581.3</ele>
        <time>2021-09-12T11:23:49Z</time>
      </trkpt>
      <trkpt lat="46.66348" lon="5.82009">
        <ele>582.5</ele>
        <time>2021-09-12T11:23:56Z</time>
      </trkpt>
      <trkpt lat="46.66352" lon="5.82013">
        <ele>583.1</ele>
        <time>2021-09-12T11:24:05Z</time>
      </trkpt>
      <trkpt lat="46.66357" lon="5.82018">
        <ele>582.5</ele>
        <time>2021-09-12T11:24:11Z</time>
      </trkpt>
      <trkpt lat="46.6636" lon="5.82023">
        <ele>581.4</ele>
        <time>2021-09-12T11:24:20Z</time>
      </trkpt>
      <trkpt lat="46.66359" lon="5.8203">
        <ele>577.4</ele>
        <time>2021-09-12T11:25:07Z</time>
      </trkpt>
      <trkpt lat="46.66357" lon="5.82023">
        <ele>577.1</ele>
        <time>2021-09-12T11:27:03Z</time>
      </trkpt>
      <trkpt lat="46.66353" lon="5.8202">
        <ele>578.2</ele>
        <time>2021-09-12T11:27:07Z</time>
      </trkpt>
      <trkpt lat="46.66348" lon="5.82021">
        <ele>578.4</ele>
        <time>2021-09-12T11:27:19Z</time>
      </trkpt>
      <trkpt lat="46.66346" lon="5.82028">
        <ele>577.1</ele>
        <time>2021-09-12T11:27:44Z</time>
      </trkpt>
      <trkpt lat="46.66346" lon="5.82035">
        <ele>577.4</ele>
        <time>2021-09-12T11:27:52Z</time>
      </trkpt>
      <trkpt lat="46.66345" lon="5.82041">
        <ele>577.6</ele>
        <time>2021-09-12T11:27:58Z</time>
      </trkpt>
      <trkpt lat="46.66341" lon="5.82046">
        <ele>577.3</ele>
        <time>2021-09-12T11:28:04Z</time>
      </trkpt>
      <trkpt lat="46.66336" lon="5.82046">
        <ele>576.6</ele>
        <time>2021-09-12T11:28:08Z</time>
      </trkpt>
      <trkpt lat="46.66331" lon="5.82048">
        <ele>575.5</ele>
        <time>2021-09-12T11:28:13Z</time>
      </trkpt>
      <trkpt lat="46.66328" lon="5.82054">
        <ele>575.3</ele>
        <time>2021-09-12T11:28:18Z</time>
      </trkpt>
      <trkpt lat="46.66328" lon="5.82061">
        <ele>575.4</ele>
        <time>2021-09-12T11:28:25Z</time>
      </trkpt>
      <trkpt lat="46.66332" lon="5.82066">
        <ele>575.6</ele>
        <time>2021-09-12T11:28:32Z</time>
      </trkpt>
      <trkpt lat="46.66335" lon="5.82071">
        <ele>576.2</ele>
        <time>2021-09-12T11:28:37Z</time>
      </trkpt>
      <trkpt lat="46.66337" lon="5.82078">
        <ele>576.3</ele>
        <time>2021-09-12T11:28:43Z</time>
      </trkpt>
      <trkpt lat="46.66339" lon="5.82085">
        <ele>576.6</ele>
        <time>2021-09-12T11:28:47Z</time>
      </trkpt>
      <trkpt lat="46.66344" lon="5.8209">
        <ele>577.1</ele>
        <time>2021-09-12T11:28:52Z</time>
      </trkpt>
      <trkpt lat="46.66347" lon="5.82094">
        <ele>577.8</ele>
        <time>2021-09-12T11:28:57Z</time>
      </trkpt>
      <trkpt lat="46.6635" lon="5.821">
        <ele>578.1</ele>
        <time>2021-09-12T11:29:03Z</time>
      </trkpt>
      <trkpt lat="46.66349" lon="5.82108">
        <ele>577.3</ele>
        <time>2021-09-12T11:29:11Z</time>
      </trkpt>
      <trkpt lat="46.6635" lon="5.82115">
        <ele>576.7</ele>
        <time>2021-09-12T11:29:16Z</time>
      </trkpt>
      <trkpt lat="46.66354" lon="5.82119">
        <ele>576.5</ele>
        <time>2021-09-12T11:29:23Z</time>
      </trkpt>
      <trkpt lat="46.66357" lon="5.82125">
        <ele>576.4</ele>
        <time>2021-09-12T11:29:30Z</time>
      </trkpt>
      <trkpt lat="46.66361" lon="5.82129">
        <ele>576.3</ele>
        <time>2021-09-12T11:29:36Z</time>
      </trkpt>
      <trkpt lat="46.66364" lon="5.82133">
        <ele>576.5</ele>
        <time>2021-09-12T11:29:42Z</time>
      </trkpt>
      <trkpt lat="46.66369" lon="5.82136">
        <ele>577.5</ele>
        <time>2021-09-12T11:29:48Z</time>
      </trkpt>
      <trkpt lat="46.66373" lon="5.8214">
        <ele>579</ele>
        <time>2021-09-12T11:29:53Z</time>
      </trkpt>
      <trkpt lat="46.66375" lon="5.82147">
        <ele>579.8</ele>
        <time>2021-09-12T11:29:59Z</time>
      </trkpt>
      <trkpt lat="46.66374" lon="5.82155">
        <ele>579.7</ele>
        <time>2021-09-12T11:30:05Z</time>
      </trkpt>
      <trkpt lat="46.66375" lon="5.82162">
        <ele>578.3</ele>
        <time>2021-09-12T11:30:12Z</time>
      </trkpt>
      <trkpt lat="46.66376" lon="5.82169">
        <ele>576.5</ele>
        <time>2021-09-12T11:30:21Z</time>
      </trkpt>
      <trkpt lat="46.66375" lon="5.82176">
        <ele>575.2</ele>
        <time>2021-09-12T11:30:27Z</time>
      </trkpt>
      <trkpt lat="46.66372" lon="5.82182">
        <ele>574.3</ele>
        <time>2021-09-12T11:30:32Z</time>
      </trkpt>
      <trkpt lat="46.6637" lon="5.82188">
        <ele>573.9</ele>
        <time>2021-09-12T11:30:36Z</time>
      </trkpt>
      <trkpt lat="46.66369" lon="5.82195">
        <ele>573.9</ele>
        <time>2021-09-12T11:30:41Z</time>
      </trkpt>
      <trkpt lat="46.6637" lon="5.82202">
        <ele>574.9</ele>
        <time>2021-09-12T11:30:48Z</time>
      </trkpt>
      <trkpt lat="46.66373" lon="5.82208">
        <ele>575.5</ele>
        <time>2021-09-12T11:30:53Z</time>
      </trkpt>
      <trkpt lat="46.66375" lon="5.82215">
        <ele>576.2</ele>
        <time>2021-09-12T11:30:58Z</time>
      </trkpt>
      <trkpt lat="46.66376" lon="5.82223">
        <ele>577.3</ele>
        <time>2021-09-12T11:31:03Z</time>
      </trkpt>
      <trkpt lat="46.66376" lon="5.82231">
        <ele>578.7</ele>
        <time>2021-09-12T11:31:08Z</time>
      </trkpt>
      <trkpt lat="46.66376" lon="5.82238">
        <ele>579.8</ele>
        <time>2021-09-12T11:31:14Z</time>
      </trkpt>
      <trkpt lat="46.66378" lon="5.82246">
        <ele>580.1</ele>
        <time>2021-09-12T11:31:19Z</time>
      </trkpt>
      <trkpt lat="46.66379" lon="5.82253">
        <ele>580.4</ele>
        <time>2021-09-12T11:31:24Z</time>
      </trkpt>
      <trkpt lat="46.66379" lon="5.82259">
        <ele>580.6</ele>
        <time>2021-09-12T11:31:28Z</time>
      </trkpt>
      <trkpt lat="46.66379" lon="5.82267">
        <ele>581.4</ele>
        <time>2021-09-12T11:31:33Z</time>
      </trkpt>
      <trkpt lat="46.66379" lon="5.82274">
        <ele>582.5</ele>
        <time>2021-09-12T11:31:38Z</time>
      </trkpt>
      <trkpt lat="46.66378" lon="5.82281">
        <ele>583.3</ele>
        <time>2021-09-12T11:31:43Z</time>
      </trkpt>
      <trkpt lat="46.66378" lon="5.82288">
        <ele>583.9</ele>
        <time>2021-09-12T11:31:49Z</time>
      </trkpt>
      <trkpt lat="46.66377" lon="5.82296">
        <ele>584.2</ele>
        <time>2021-09-12T11:31:55Z</time>
      </trkpt>
      <trkpt lat="46.66376" lon="5.82303">
        <ele>584.4</ele>
        <time>2021-09-12T11:31:59Z</time>
      </trkpt>
      <trkpt lat="46.66374" lon="5.82311">
        <ele>584.5</ele>
        <time>2021-09-12T11:32:03Z</time>
      </trkpt>
      <trkpt lat="46.66373" lon="5.82317">
        <ele>584.2</ele>
        <time>2021-09-12T11:32:06Z</time>
      </trkpt>
      <trkpt lat="46.66371" lon="5.82324">
        <ele>583.5</ele>
        <time>2021-09-12T11:32:10Z</time>
      </trkpt>
      <trkpt lat="46.66371" lon="5.8233">
        <ele>582.1</ele>
        <time>2021-09-12T11:32:15Z</time>
      </trkpt>
      <trkpt lat="46.66372" lon="5.82337">
        <ele>580.5</ele>
        <time>2021-09-12T11:32:22Z</time>
      </trkpt>
      <trkpt lat="46.66374" lon="5.82343">
        <ele>580.3</ele>
        <time>2021-09-12T11:32:27Z</time>
      </trkpt>
      <trkpt lat="46.66375" lon="5.82351">
        <ele>580.3</ele>
        <time>2021-09-12T11:32:32Z</time>
      </trkpt>
      <trkpt lat="46.66376" lon="5.82359">
        <ele>580.5</ele>
        <time>2021-09-12T11:32:36Z</time>
      </trkpt>
      <trkpt lat="46.66375" lon="5.82366">
        <ele>580.3</ele>
        <time>2021-09-12T11:32:40Z</time>
      </trkpt>
      <trkpt lat="46.66375" lon="5.82373">
        <ele>580.1</ele>
        <time>2021-09-12T11:32:45Z</time>
      </trkpt>
      <trkpt lat="46.66375" lon="5.8238">
        <ele>579.8</ele>
        <time>2021-09-12T11:32:49Z</time>
      </trkpt>
      <trkpt lat="46.66373" lon="5.82387">
        <ele>579.6</ele>
        <time>2021-09-12T11:32:52Z</time>
      </trkpt>
      <trkpt lat="46.66373" lon="5.82395">
        <ele>579.5</ele>
        <time>2021-09-12T11:32:56Z</time>
      </trkpt>
      <trkpt lat="46.66374" lon="5.82402">
        <ele>579.4</ele>
        <time>2021-09-12T11:33:01Z</time>
      </trkpt>
      <trkpt lat="46.66374" lon="5.82409">
        <ele>579.2</ele>
        <time>2021-09-12T11:33:06Z</time>
      </trkpt>
      <trkpt lat="46.66373" lon="5.82416">
        <ele>579.5</ele>
        <time>2021-09-12T11:33:11Z</time>
      </trkpt>
      <trkpt lat="46.66373" lon="5.82423">
        <ele>579.8</ele>
        <time>2021-09-12T11:33:18Z</time>
      </trkpt>
      <trkpt lat="46.66373" lon="5.82431">
        <ele>579.4</ele>
        <time>2021-09-12T11:33:23Z</time>
      </trkpt>
      <trkpt lat="46.66374" lon="5.82438">
        <ele>579.2</ele>
        <time>2021-09-12T11:33:27Z</time>
      </trkpt>
      <trkpt lat="46.66374" lon="5.82446">
        <ele>578.7</ele>
        <time>2021-09-12T11:33:31Z</time>
      </trkpt>
      <trkpt lat="46.66375" lon="5.82453">
        <ele>577.5</ele>
        <time>2021-09-12T11:33:36Z</time>
      </trkpt>
      <trkpt lat="46.66375" lon="5.8246">
        <ele>576.3</ele>
        <time>2021-09-12T11:33:41Z</time>
      </trkpt>
      <trkpt lat="46.66375" lon="5.82468">
        <ele>575.3</ele>
        <time>2021-09-12T11:33:45Z</time>
      </trkpt>
      <trkpt lat="46.66374" lon="5.82476">
        <ele>574.7</ele>
        <time>2021-09-12T11:33:49Z</time>
      </trkpt>
      <trkpt lat="46.66374" lon="5.82484">
        <ele>574.4</ele>
        <time>2021-09-12T11:33:54Z</time>
      </trkpt>
      <trkpt lat="46.66373" lon="5.82492">
        <ele>574.5</ele>
        <time>2021-09-12T11:33:59Z</time>
      </trkpt>
      <trkpt lat="46.66372" lon="5.82499">
        <ele>574.4</ele>
        <time>2021-09-12T11:34:04Z</time>
      </trkpt>
      <trkpt lat="46.66372" lon="5.82507">
        <ele>573.7</ele>
        <time>2021-09-12T11:34:08Z</time>
      </trkpt>
      <trkpt lat="46.66372" lon="5.82514">
        <ele>572.9</ele>
        <time>2021-09-12T11:34:12Z</time>
      </trkpt>
      <trkpt lat="46.66371" lon="5.82522">
        <ele>572.7</ele>
        <time>2021-09-12T11:34:18Z</time>
      </trkpt>
      <trkpt lat="46.66369" lon="5.82528">
        <ele>572.9</ele>
        <time>2021-09-12T11:34:22Z</time>
      </trkpt>
      <trkpt lat="46.66367" lon="5.82535">
        <ele>573.5</ele>
        <time>2021-09-12T11:34:28Z</time>
      </trkpt>
      <trkpt lat="46.66368" lon="5.82542">
        <ele>574.3</ele>
        <time>2021-09-12T11:34:34Z</time>
      </trkpt>
      <trkpt lat="46.66366" lon="5.82549">
        <ele>574.5</ele>
        <time>2021-09-12T11:34:39Z</time>
      </trkpt>
      <trkpt lat="46.66365" lon="5.82556">
        <ele>574.2</ele>
        <time>2021-09-12T11:34:44Z</time>
      </trkpt>
      <trkpt lat="46.66364" lon="5.82564">
        <ele>574.2</ele>
        <time>2021-09-12T11:34:49Z</time>
      </trkpt>
      <trkpt lat="46.66364" lon="5.82571">
        <ele>574.6</ele>
        <time>2021-09-12T11:34:53Z</time>
      </trkpt>
      <trkpt lat="46.66363" lon="5.82578">
        <ele>575.3</ele>
        <time>2021-09-12T11:34:57Z</time>
      </trkpt>
      <trkpt lat="46.66365" lon="5.82585">
        <ele>576.2</ele>
        <time>2021-09-12T11:35:02Z</time>
      </trkpt>
      <trkpt lat="46.66366" lon="5.82592">
        <ele>577.7</ele>
        <time>2021-09-12T11:35:13Z</time>
      </trkpt>
      <trkpt lat="46.66367" lon="5.82599">
        <ele>577.5</ele>
        <time>2021-09-12T11:35:18Z</time>
      </trkpt>
      <trkpt lat="46.66367" lon="5.82606">
        <ele>577.1</ele>
        <time>2021-09-12T11:35:23Z</time>
      </trkpt>
      <trkpt lat="46.66368" lon="5.82614">
        <ele>576.7</ele>
        <time>2021-09-12T11:35:28Z</time>
      </trkpt>
      <trkpt lat="46.66373" lon="5.82616">
        <ele>575.2</ele>
        <time>2021-09-12T11:35:36Z</time>
      </trkpt>
      <trkpt lat="46.66376" lon="5.82609">
        <ele>574.4</ele>
        <time>2021-09-12T11:35:41Z</time>
      </trkpt>
      <trkpt lat="46.66379" lon="5.82604">
        <ele>574.6</ele>
        <time>2021-09-12T11:35:45Z</time>
      </trkpt>
      <trkpt lat="46.66381" lon="5.82597">
        <ele>575.1</ele>
        <time>2021-09-12T11:35:49Z</time>
      </trkpt>
      <trkpt lat="46.66384" lon="5.82592">
        <ele>576.1</ele>
        <time>2021-09-12T11:35:54Z</time>
      </trkpt>
      <trkpt lat="46.66388" lon="5.82586">
        <ele>577.3</ele>
        <time>2021-09-12T11:35:59Z</time>
      </trkpt>
      <trkpt lat="46.66391" lon="5.8258">
        <ele>578.3</ele>
        <time>2021-09-12T11:36:04Z</time>
      </trkpt>
      <trkpt lat="46.66394" lon="5.82575">
        <ele>578.8</ele>
        <time>2021-09-12T11:36:10Z</time>
      </trkpt>
      <trkpt lat="46.66397" lon="5.82569">
        <ele>579.1</ele>
        <time>2021-09-12T11:36:16Z</time>
      </trkpt>
      <trkpt lat="46.66402" lon="5.82565">
        <ele>579.3</ele>
        <time>2021-09-12T11:36:21Z</time>
      </trkpt>
      <trkpt lat="46.66407" lon="5.82563">
        <ele>579.8</ele>
        <time>2021-09-12T11:36:25Z</time>
      </trkpt>
      <trkpt lat="46.66412" lon="5.82562">
        <ele>580.4</ele>
        <time>2021-09-12T11:36:29Z</time>
      </trkpt>
      <trkpt lat="46.66417" lon="5.82561">
        <ele>580.9</ele>
        <time>2021-09-12T11:36:33Z</time>
      </trkpt>
      <trkpt lat="46.66423" lon="5.82562">
        <ele>580.8</ele>
        <time>2021-09-12T11:36:38Z</time>
      </trkpt>
      <trkpt lat="46.66427" lon="5.82565">
        <ele>580.2</ele>
        <time>2021-09-12T11:36:42Z</time>
      </trkpt>
      <trkpt lat="46.66431" lon="5.82567">
        <ele>579.8</ele>
        <time>2021-09-12T11:36:47Z</time>
      </trkpt>
      <trkpt lat="46.66436" lon="5.82568">
        <ele>579.7</ele>
        <time>2021-09-12T11:36:51Z</time>
      </trkpt>
      <trkpt lat="46.66442" lon="5.82569">
        <ele>579.8</ele>
        <time>2021-09-12T11:36:55Z</time>
      </trkpt>
      <trkpt lat="46.66447" lon="5.82569">
        <ele>580.1</ele>
        <time>2021-09-12T11:36:59Z</time>
      </trkpt>
      <trkpt lat="46.66452" lon="5.82569">
        <ele>580.3</ele>
        <time>2021-09-12T11:37:03Z</time>
      </trkpt>
      <trkpt lat="46.66458" lon="5.8257">
        <ele>580.5</ele>
        <time>2021-09-12T11:37:08Z</time>
      </trkpt>
      <trkpt lat="46.66463" lon="5.82568">
        <ele>580.9</ele>
        <time>2021-09-12T11:37:13Z</time>
      </trkpt>
      <trkpt lat="46.66467" lon="5.82567">
        <ele>581.8</ele>
        <time>2021-09-12T11:37:18Z</time>
      </trkpt>
      <trkpt lat="46.66472" lon="5.82565">
        <ele>582.7</ele>
        <time>2021-09-12T11:37:24Z</time>
      </trkpt>
      <trkpt lat="46.66477" lon="5.82564">
        <ele>584</ele>
        <time>2021-09-12T11:37:31Z</time>
      </trkpt>
      <trkpt lat="46.66482" lon="5.82561">
        <ele>584.3</ele>
        <time>2021-09-12T11:37:36Z</time>
      </trkpt>
      <trkpt lat="46.66488" lon="5.8256">
        <ele>584.2</ele>
        <time>2021-09-12T11:37:41Z</time>
      </trkpt>
      <trkpt lat="46.66492" lon="5.82558">
        <ele>583.8</ele>
        <time>2021-09-12T11:37:45Z</time>
      </trkpt>
      <trkpt lat="46.66497" lon="5.82557">
        <ele>583.5</ele>
        <time>2021-09-12T11:37:51Z</time>
      </trkpt>
      <trkpt lat="46.66502" lon="5.82554">
        <ele>583.2</ele>
        <time>2021-09-12T11:37:55Z</time>
      </trkpt>
      <trkpt lat="46.66507" lon="5.82551">
        <ele>583.1</ele>
        <time>2021-09-12T11:37:59Z</time>
      </trkpt>
      <trkpt lat="46.66513" lon="5.82549">
        <ele>582.9</ele>
        <time>2021-09-12T11:38:03Z</time>
      </trkpt>
      <trkpt lat="46.66518" lon="5.82547">
        <ele>582.8</ele>
        <time>2021-09-12T11:38:07Z</time>
      </trkpt>
      <trkpt lat="46.66522" lon="5.82545">
        <ele>583.2</ele>
        <time>2021-09-12T11:38:11Z</time>
      </trkpt>
      <trkpt lat="46.66527" lon="5.82544">
        <ele>584.3</ele>
        <time>2021-09-12T11:38:17Z</time>
      </trkpt>
      <trkpt lat="46.66532" lon="5.8254">
        <ele>585.6</ele>
        <time>2021-09-12T11:38:23Z</time>
      </trkpt>
      <trkpt lat="46.66536" lon="5.82535">
        <ele>586</ele>
        <time>2021-09-12T11:38:28Z</time>
      </trkpt>
      <trkpt lat="46.66539" lon="5.8253">
        <ele>586.2</ele>
        <time>2021-09-12T11:38:33Z</time>
      </trkpt>
      <trkpt lat="46.66543" lon="5.82526">
        <ele>586.3</ele>
        <time>2021-09-12T11:38:38Z</time>
      </trkpt>
      <trkpt lat="46.66547" lon="5.82521">
        <ele>587.1</ele>
        <time>2021-09-12T11:38:43Z</time>
      </trkpt>
      <trkpt lat="46.66552" lon="5.82517">
        <ele>587.4</ele>
        <time>2021-09-12T11:38:47Z</time>
      </trkpt>
      <trkpt lat="46.66557" lon="5.82517">
        <ele>587</ele>
        <time>2021-09-12T11:38:51Z</time>
      </trkpt>
      <trkpt lat="46.66562" lon="5.82513">
        <ele>586.1</ele>
        <time>2021-09-12T11:38:56Z</time>
      </trkpt>
      <trkpt lat="46.66566" lon="5.82509">
        <ele>585.7</ele>
        <time>2021-09-12T11:39:00Z</time>
      </trkpt>
      <trkpt lat="46.6657" lon="5.82506">
        <ele>585.2</ele>
        <time>2021-09-12T11:39:04Z</time>
      </trkpt>
      <trkpt lat="46.66574" lon="5.82503">
        <ele>584.7</ele>
        <time>2021-09-12T11:39:09Z</time>
      </trkpt>
      <trkpt lat="46.66579" lon="5.82499">
        <ele>584.6</ele>
        <time>2021-09-12T11:39:14Z</time>
      </trkpt>
      <trkpt lat="46.66582" lon="5.82495">
        <ele>584.9</ele>
        <time>2021-09-12T11:39:18Z</time>
      </trkpt>
      <trkpt lat="46.66587" lon="5.82495">
        <ele>585.1</ele>
        <time>2021-09-12T11:39:23Z</time>
      </trkpt>
      <trkpt lat="46.66592" lon="5.82491">
        <ele>584.3</ele>
        <time>2021-09-12T11:39:30Z</time>
      </trkpt>
      <trkpt lat="46.66596" lon="5.82491">
        <ele>583.1</ele>
        <time>2021-09-12T11:39:35Z</time>
      </trkpt>
      <trkpt lat="46.66601" lon="5.82488">
        <ele>581.9</ele>
        <time>2021-09-12T11:39:40Z</time>
      </trkpt>
      <trkpt lat="46.66606" lon="5.82488">
        <ele>581.3</ele>
        <time>2021-09-12T11:39:45Z</time>
      </trkpt>
      <trkpt lat="46.66612" lon="5.82487">
        <ele>581.3</ele>
        <time>2021-09-12T11:39:48Z</time>
      </trkpt>
      <trkpt lat="46.66619" lon="5.82487">
        <ele>581.8</ele>
        <time>2021-09-12T11:39:51Z</time>
      </trkpt>
      <trkpt lat="46.66623" lon="5.82483">
        <ele>582.6</ele>
        <time>2021-09-12T11:39:56Z</time>
      </trkpt>
      <trkpt lat="46.66628" lon="5.8248">
        <ele>583.1</ele>
        <time>2021-09-12T11:40:00Z</time>
      </trkpt>
      <trkpt lat="46.66631" lon="5.82474">
        <ele>583.4</ele>
        <time>2021-09-12T11:40:04Z</time>
      </trkpt>
      <trkpt lat="46.66635" lon="5.82468">
        <ele>583.9</ele>
        <time>2021-09-12T11:40:08Z</time>
      </trkpt>
      <trkpt lat="46.66638" lon="5.82463">
        <ele>583.6</ele>
        <time>2021-09-12T11:40:14Z</time>
      </trkpt>
      <trkpt lat="46.66641" lon="5.82458">
        <ele>583</ele>
        <time>2021-09-12T11:40:19Z</time>
      </trkpt>
      <trkpt lat="46.66646" lon="5.82454">
        <ele>582.1</ele>
        <time>2021-09-12T11:40:24Z</time>
      </trkpt>
      <trkpt lat="46.6665" lon="5.82452">
        <ele>581.6</ele>
        <time>2021-09-12T11:40:29Z</time>
      </trkpt>
      <trkpt lat="46.66655" lon="5.8245">
        <ele>581.2</ele>
        <time>2021-09-12T11:40:33Z</time>
      </trkpt>
      <trkpt lat="46.66658" lon="5.82445">
        <ele>581.2</ele>
        <time>2021-09-12T11:40:37Z</time>
      </trkpt>
      <trkpt lat="46.66661" lon="5.82441">
        <ele>581.2</ele>
        <time>2021-09-12T11:40:42Z</time>
      </trkpt>
      <trkpt lat="46.66665" lon="5.82436">
        <ele>581.2</ele>
        <time>2021-09-12T11:40:47Z</time>
      </trkpt>
      <trkpt lat="46.66668" lon="5.82431">
        <ele>580.7</ele>
        <time>2021-09-12T11:40:52Z</time>
      </trkpt>
      <trkpt lat="46.66671" lon="5.82424">
        <ele>579.8</ele>
        <time>2021-09-12T11:40:57Z</time>
      </trkpt>
      <trkpt lat="46.66674" lon="5.82419">
        <ele>578.8</ele>
        <time>2021-09-12T11:41:01Z</time>
      </trkpt>
      <trkpt lat="46.66678" lon="5.82415">
        <ele>578</ele>
        <time>2021-09-12T11:41:06Z</time>
      </trkpt>
      <trkpt lat="46.66683" lon="5.82412">
        <ele>578.4</ele>
        <time>2021-09-12T11:41:11Z</time>
      </trkpt>
      <trkpt lat="46.66687" lon="5.8241">
        <ele>579.2</ele>
        <time>2021-09-12T11:41:15Z</time>
      </trkpt>
      <trkpt lat="46.66691" lon="5.82406">
        <ele>580.3</ele>
        <time>2021-09-12T11:41:20Z</time>
      </trkpt>
      <trkpt lat="46.66695" lon="5.82399">
        <ele>581.1</ele>
        <time>2021-09-12T11:41:24Z</time>
      </trkpt>
      <trkpt lat="46.66699" lon="5.82393">
        <ele>581.5</ele>
        <time>2021-09-12T11:41:28Z</time>
      </trkpt>
      <trkpt lat="46.66703" lon="5.82388">
        <ele>581.5</ele>
        <time>2021-09-12T11:41:32Z</time>
      </trkpt>
      <trkpt lat="46.66707" lon="5.82383">
        <ele>581.6</ele>
        <time>2021-09-12T11:41:38Z</time>
      </trkpt>
      <trkpt lat="46.66712" lon="5.82379">
        <ele>582.7</ele>
        <time>2021-09-12T11:41:42Z</time>
      </trkpt>
      <trkpt lat="46.66717" lon="5.82376">
        <ele>583.5</ele>
        <time>2021-09-12T11:41:46Z</time>
      </trkpt>
      <trkpt lat="46.66722" lon="5.82375">
        <ele>583.8</ele>
        <time>2021-09-12T11:41:50Z</time>
      </trkpt>
      <trkpt lat="46.66726" lon="5.82372">
        <ele>583.6</ele>
        <time>2021-09-12T11:41:55Z</time>
      </trkpt>
      <trkpt lat="46.66731" lon="5.82368">
        <ele>582.6</ele>
        <time>2021-09-12T11:42:00Z</time>
      </trkpt>
      <trkpt lat="46.66735" lon="5.82364">
        <ele>581.2</ele>
        <time>2021-09-12T11:42:06Z</time>
      </trkpt>
      <trkpt lat="46.6674" lon="5.8236">
        <ele>580.5</ele>
        <time>2021-09-12T11:42:11Z</time>
      </trkpt>
      <trkpt lat="46.66745" lon="5.82358">
        <ele>580</ele>
        <time>2021-09-12T11:42:15Z</time>
      </trkpt>
      <trkpt lat="46.6675" lon="5.82353">
        <ele>579.5</ele>
        <time>2021-09-12T11:42:20Z</time>
      </trkpt>
      <trkpt lat="46.66753" lon="5.82348">
        <ele>579.3</ele>
        <time>2021-09-12T11:42:24Z</time>
      </trkpt>
      <trkpt lat="46.66757" lon="5.82344">
        <ele>579.5</ele>
        <time>2021-09-12T11:42:28Z</time>
      </trkpt>
      <trkpt lat="46.6676" lon="5.82338">
        <ele>579.6</ele>
        <time>2021-09-12T11:42:33Z</time>
      </trkpt>
      <trkpt lat="46.66763" lon="5.82333">
        <ele>580</ele>
        <time>2021-09-12T11:42:38Z</time>
      </trkpt>
      <trkpt lat="46.66767" lon="5.82329">
        <ele>580.3</ele>
        <time>2021-09-12T11:42:43Z</time>
      </trkpt>
      <trkpt lat="46.6677" lon="5.82324">
        <ele>580.6</ele>
        <time>2021-09-12T11:42:47Z</time>
      </trkpt>
      <trkpt lat="46.66773" lon="5.82318">
        <ele>580.9</ele>
        <time>2021-09-12T11:42:51Z</time>
      </trkpt>
      <trkpt lat="46.66776" lon="5.82312">
        <ele>580.8</ele>
        <time>2021-09-12T11:42:56Z</time>
      </trkpt>
      <trkpt lat="46.6678" lon="5.82308">
        <ele>580.4</ele>
        <time>2021-09-12T11:43:01Z</time>
      </trkpt>
      <trkpt lat="46.66785" lon="5.82305">
        <ele>580.2</ele>
        <time>2021-09-12T11:43:05Z</time>
      </trkpt>
      <trkpt lat="46.66787" lon="5.82298">
        <ele>580.3</ele>
        <time>2021-09-12T11:43:10Z</time>
      </trkpt>
      <trkpt lat="46.66787" lon="5.82305">
        <ele>583.7</ele>
        <time>2021-09-12T11:44:15Z</time>
      </trkpt>
      <trkpt lat="46.66785" lon="5.82311">
        <ele>583.1</ele>
        <time>2021-09-12T11:44:22Z</time>
      </trkpt>
      <trkpt lat="46.66787" lon="5.82304">
        <ele>581.1</ele>
        <time>2021-09-12T11:44:39Z</time>
      </trkpt>
      <trkpt lat="46.66788" lon="5.82298">
        <ele>581.2</ele>
        <time>2021-09-12T11:44:47Z</time>
      </trkpt>
      <trkpt lat="46.66784" lon="5.82293">
        <ele>582.3</ele>
        <time>2021-09-12T11:45:01Z</time>
      </trkpt>
      <trkpt lat="46.66779" lon="5.8229">
        <ele>582.9</ele>
        <time>2021-09-12T11:45:08Z</time>
      </trkpt>
      <trkpt lat="46.66784" lon="5.82289">
        <ele>586</ele>
        <time>2021-09-12T11:46:03Z</time>
      </trkpt>
      <trkpt lat="46.66787" lon="5.82294">
        <ele>585.3</ele>
        <time>2021-09-12T11:46:09Z</time>
      </trkpt>
      <trkpt lat="46.66786" lon="5.82301">
        <ele>585.4</ele>
        <time>2021-09-12T11:46:16Z</time>
      </trkpt>
      <trkpt lat="46.66782" lon="5.82305">
        <ele>585.4</ele>
        <time>2021-09-12T11:46:22Z</time>
      </trkpt>
      <trkpt lat="46.66778" lon="5.82309">
        <ele>585.8</ele>
        <time>2021-09-12T11:46:29Z</time>
      </trkpt>
      <trkpt lat="46.66775" lon="5.82314">
        <ele>586.7</ele>
        <time>2021-09-12T11:46:35Z</time>
      </trkpt>
      <trkpt lat="46.66772" lon="5.82321">
        <ele>586.9</ele>
        <time>2021-09-12T11:46:40Z</time>
      </trkpt>
      <trkpt lat="46.66769" lon="5.82327">
        <ele>586.8</ele>
        <time>2021-09-12T11:46:46Z</time>
      </trkpt>
      <trkpt lat="46.66767" lon="5.82334">
        <ele>586.7</ele>
        <time>2021-09-12T11:46:50Z</time>
      </trkpt>
      <trkpt lat="46.66764" lon="5.82338">
        <ele>586.7</ele>
        <time>2021-09-12T11:46:55Z</time>
      </trkpt>
      <trkpt lat="46.6676" lon="5.82343">
        <ele>587.9</ele>
        <time>2021-09-12T11:47:01Z</time>
      </trkpt>
      <trkpt lat="46.66756" lon="5.82348">
        <ele>588.1</ele>
        <time>2021-09-12T11:47:06Z</time>
      </trkpt>
      <trkpt lat="46.66752" lon="5.82352">
        <ele>587.6</ele>
        <time>2021-09-12T11:47:12Z</time>
      </trkpt>
      <trkpt lat="46.66747" lon="5.82357">
        <ele>587.4</ele>
        <time>2021-09-12T11:47:16Z</time>
      </trkpt>
      <trkpt lat="46.66743" lon="5.82361">
        <ele>587.4</ele>
        <time>2021-09-12T11:47:21Z</time>
      </trkpt>
      <trkpt lat="46.66738" lon="5.82363">
        <ele>587.7</ele>
        <time>2021-09-12T11:47:26Z</time>
      </trkpt>
      <trkpt lat="46.66734" lon="5.82366">
        <ele>588.2</ele>
        <time>2021-09-12T11:47:32Z</time>
      </trkpt>
      <trkpt lat="46.6673" lon="5.82369">
        <ele>587.9</ele>
        <time>2021-09-12T11:47:37Z</time>
      </trkpt>
      <trkpt lat="46.66727" lon="5.82374">
        <ele>587</ele>
        <time>2021-09-12T11:47:44Z</time>
      </trkpt>
      <trkpt lat="46.66722" lon="5.82378">
        <ele>586.4</ele>
        <time>2021-09-12T11:47:49Z</time>
      </trkpt>
      <trkpt lat="46.66718" lon="5.82382">
        <ele>586.2</ele>
        <time>2021-09-12T11:47:53Z</time>
      </trkpt>
      <trkpt lat="46.66714" lon="5.82385">
        <ele>586</ele>
        <time>2021-09-12T11:47:58Z</time>
      </trkpt>
      <trkpt lat="46.6671" lon="5.82388">
        <ele>585.2</ele>
        <time>2021-09-12T11:48:03Z</time>
      </trkpt>
      <trkpt lat="46.66705" lon="5.82393">
        <ele>584.6</ele>
        <time>2021-09-12T11:48:08Z</time>
      </trkpt>
      <trkpt lat="46.66702" lon="5.82398">
        <ele>584.6</ele>
        <time>2021-09-12T11:48:12Z</time>
      </trkpt>
      <trkpt lat="46.66699" lon="5.82405">
        <ele>585.1</ele>
        <time>2021-09-12T11:48:17Z</time>
      </trkpt>
      <trkpt lat="46.66698" lon="5.82412">
        <ele>585.8</ele>
        <time>2021-09-12T11:48:22Z</time>
      </trkpt>
      <trkpt lat="46.66694" lon="5.82416">
        <ele>586.4</ele>
        <time>2021-09-12T11:48:27Z</time>
      </trkpt>
      <trkpt lat="46.66689" lon="5.82418">
        <ele>586.7</ele>
        <time>2021-09-12T11:48:32Z</time>
      </trkpt>
      <trkpt lat="46.66684" lon="5.82419">
        <ele>586.7</ele>
        <time>2021-09-12T11:48:38Z</time>
      </trkpt>
      <trkpt lat="46.66679" lon="5.82422">
        <ele>586.1</ele>
        <time>2021-09-12T11:48:44Z</time>
      </trkpt>
      <trkpt lat="46.66675" lon="5.82426">
        <ele>585.6</ele>
        <time>2021-09-12T11:48:51Z</time>
      </trkpt>
      <trkpt lat="46.66672" lon="5.82431">
        <ele>585.5</ele>
        <time>2021-09-12T11:48:56Z</time>
      </trkpt>
      <trkpt lat="46.66671" lon="5.82438">
        <ele>585.7</ele>
        <time>2021-09-12T11:49:00Z</time>
      </trkpt>
      <trkpt lat="46.66669" lon="5.82445">
        <ele>586.1</ele>
        <time>2021-09-12T11:49:04Z</time>
      </trkpt>
      <trkpt lat="46.66665" lon="5.82449">
        <ele>587.2</ele>
        <time>2021-09-12T11:49:15Z</time>
      </trkpt>
      <trkpt lat="46.66668" lon="5.82442">
        <ele>587</ele>
        <time>2021-09-12T11:49:28Z</time>
      </trkpt>
      <trkpt lat="46.66669" lon="5.82434">
        <ele>586.5</ele>
        <time>2021-09-12T11:49:33Z</time>
      </trkpt>
      <trkpt lat="46.66671" lon="5.82428">
        <ele>586.3</ele>
        <time>2021-09-12T11:49:37Z</time>
      </trkpt>
      <trkpt lat="46.66675" lon="5.82423">
        <ele>585.9</ele>
        <time>2021-09-12T11:49:42Z</time>
      </trkpt>
      <trkpt lat="46.66679" lon="5.82418">
        <ele>585.6</ele>
        <time>2021-09-12T11:49:47Z</time>
      </trkpt>
      <trkpt lat="46.66683" lon="5.82415">
        <ele>585.7</ele>
        <time>2021-09-12T11:49:51Z</time>
      </trkpt>
      <trkpt lat="46.66687" lon="5.82412">
        <ele>585.5</ele>
        <time>2021-09-12T11:49:56Z</time>
      </trkpt>
      <trkpt lat="46.66691" lon="5.82406">
        <ele>583.7</ele>
        <time>2021-09-12T11:50:02Z</time>
      </trkpt>
      <trkpt lat="46.66695" lon="5.82402">
        <ele>582</ele>
        <time>2021-09-12T11:50:06Z</time>
      </trkpt>
      <trkpt lat="46.667" lon="5.82398">
        <ele>581.4</ele>
        <time>2021-09-12T11:50:10Z</time>
      </trkpt>
      <trkpt lat="46.66703" lon="5.82393">
        <ele>581.9</ele>
        <time>2021-09-12T11:50:15Z</time>
      </trkpt>
      <trkpt lat="46.66708" lon="5.82388">
        <ele>583.3</ele>
        <time>2021-09-12T11:50:20Z</time>
      </trkpt>
      <trkpt lat="46.66713" lon="5.82385">
        <ele>584.5</ele>
        <time>2021-09-12T11:50:24Z</time>
      </trkpt>
      <trkpt lat="46.66718" lon="5.82382">
        <ele>584.8</ele>
        <time>2021-09-12T11:50:29Z</time>
      </trkpt>
      <trkpt lat="46.66722" lon="5.8238">
        <ele>584.6</ele>
        <time>2021-09-12T11:50:33Z</time>
      </trkpt>
      <trkpt lat="46.66726" lon="5.82376">
        <ele>583.8</ele>
        <time>2021-09-12T11:50:37Z</time>
      </trkpt>
      <trkpt lat="46.6673" lon="5.82372">
        <ele>582.5</ele>
        <time>2021-09-12T11:50:41Z</time>
      </trkpt>
      <trkpt lat="46.66733" lon="5.82366">
        <ele>581.7</ele>
        <time>2021-09-12T11:50:45Z</time>
      </trkpt>
      <trkpt lat="46.66736" lon="5.82361">
        <ele>581.2</ele>
        <time>2021-09-12T11:50:49Z</time>
      </trkpt>
      <trkpt lat="46.6674" lon="5.8236">
        <ele>579.7</ele>
        <time>2021-09-12T11:51:11Z</time>
      </trkpt>
      <trkpt lat="46.66745" lon="5.82357">
        <ele>579.8</ele>
        <time>2021-09-12T11:51:15Z</time>
      </trkpt>
      <trkpt lat="46.6675" lon="5.82354">
        <ele>579.9</ele>
        <time>2021-09-12T11:51:19Z</time>
      </trkpt>
      <trkpt lat="46.66754" lon="5.8235">
        <ele>580.2</ele>
        <time>2021-09-12T11:51:23Z</time>
      </trkpt>
      <trkpt lat="46.66758" lon="5.82346">
        <ele>580.5</ele>
        <time>2021-09-12T11:51:27Z</time>
      </trkpt>
      <trkpt lat="46.66761" lon="5.8234">
        <ele>581.1</ele>
        <time>2021-09-12T11:51:31Z</time>
      </trkpt>
      <trkpt lat="46.66764" lon="5.82333">
        <ele>582</ele>
        <time>2021-09-12T11:51:35Z</time>
      </trkpt>
      <trkpt lat="46.66768" lon="5.82328">
        <ele>583</ele>
        <time>2021-09-12T11:51:39Z</time>
      </trkpt>
      <trkpt lat="46.66771" lon="5.82323">
        <ele>584.1</ele>
        <time>2021-09-12T11:51:43Z</time>
      </trkpt>
      <trkpt lat="46.66774" lon="5.82318">
        <ele>585.2</ele>
        <time>2021-09-12T11:51:47Z</time>
      </trkpt>
      <trkpt lat="46.66778" lon="5.82312">
        <ele>586.2</ele>
        <time>2021-09-12T11:51:51Z</time>
      </trkpt>
      <trkpt lat="46.66782" lon="5.82306">
        <ele>587.1</ele>
        <time>2021-09-12T11:51:55Z</time>
      </trkpt>
      <trkpt lat="46.66786" lon="5.82302">
        <ele>587.5</ele>
        <time>2021-09-12T11:51:59Z</time>
      </trkpt>
      <trkpt lat="46.66789" lon="5.82298">
        <ele>587.5</ele>
        <time>2021-09-12T11:52:04Z</time>
      </trkpt>
      <trkpt lat="46.66787" lon="5.82293">
        <ele>586.6</ele>
        <time>2021-09-12T11:52:10Z</time>
      </trkpt>
      <trkpt lat="46.66782" lon="5.8229">
        <ele>585.7</ele>
        <time>2021-09-12T11:52:15Z</time>
      </trkpt>
      <trkpt lat="46.66777" lon="5.82289">
        <ele>583.9</ele>
        <time>2021-09-12T11:52:47Z</time>
      </trkpt>
      <trkpt lat="46.66773" lon="5.8229">
        <ele>584</ele>
        <time>2021-09-12T11:53:35Z</time>
      </trkpt>
      <trkpt lat="46.66775" lon="5.82284">
        <ele>586.3</ele>
        <time>2021-09-12T11:54:37Z</time>
      </trkpt>
      <trkpt lat="46.66775" lon="5.82277">
        <ele>586.6</ele>
        <time>2021-09-12T11:54:42Z</time>
      </trkpt>
      <trkpt lat="46.66773" lon="5.82271">
        <ele>586.4</ele>
        <time>2021-09-12T11:54:47Z</time>
      </trkpt>
      <trkpt lat="46.66769" lon="5.82267">
        <ele>585.6</ele>
        <time>2021-09-12T11:54:55Z</time>
      </trkpt>
      <trkpt lat="46.66769" lon="5.8226">
        <ele>585.4</ele>
        <time>2021-09-12T11:55:02Z</time>
      </trkpt>
      <trkpt lat="46.66771" lon="5.82254">
        <ele>585.2</ele>
        <time>2021-09-12T11:55:07Z</time>
      </trkpt>
      <trkpt lat="46.66772" lon="5.82247">
        <ele>584.9</ele>
        <time>2021-09-12T11:55:12Z</time>
      </trkpt>
      <trkpt lat="46.66772" lon="5.82239">
        <ele>584.2</ele>
        <time>2021-09-12T11:55:19Z</time>
      </trkpt>
      <trkpt lat="46.66774" lon="5.82232">
        <ele>583.9</ele>
        <time>2021-09-12T11:55:24Z</time>
      </trkpt>
      <trkpt lat="46.66774" lon="5.82226">
        <ele>583.8</ele>
        <time>2021-09-12T11:55:29Z</time>
      </trkpt>
      <trkpt lat="46.66773" lon="5.82219">
        <ele>583.7</ele>
        <time>2021-09-12T11:55:34Z</time>
      </trkpt>
      <trkpt lat="46.66771" lon="5.82212">
        <ele>583.7</ele>
        <time>2021-09-12T11:55:41Z</time>
      </trkpt>
      <trkpt lat="46.66768" lon="5.82205">
        <ele>583.9</ele>
        <time>2021-09-12T11:55:47Z</time>
      </trkpt>
      <trkpt lat="46.66765" lon="5.82201">
        <ele>583.5</ele>
        <time>2021-09-12T11:55:53Z</time>
      </trkpt>
      <trkpt lat="46.66765" lon="5.82194">
        <ele>582.6</ele>
        <time>2021-09-12T11:56:00Z</time>
      </trkpt>
      <trkpt lat="46.66765" lon="5.82187">
        <ele>581.8</ele>
        <time>2021-09-12T11:56:04Z</time>
      </trkpt>
      <trkpt lat="46.66765" lon="5.8218">
        <ele>580.6</ele>
        <time>2021-09-12T11:56:08Z</time>
      </trkpt>
      <trkpt lat="46.66766" lon="5.82174">
        <ele>579.4</ele>
        <time>2021-09-12T11:56:12Z</time>
      </trkpt>
      <trkpt lat="46.66768" lon="5.82166">
        <ele>578</ele>
        <time>2021-09-12T11:56:17Z</time>
      </trkpt>
      <trkpt lat="46.66771" lon="5.82159">
        <ele>577.5</ele>
        <time>2021-09-12T11:56:22Z</time>
      </trkpt>
      <trkpt lat="46.66773" lon="5.82152">
        <ele>577.3</ele>
        <time>2021-09-12T11:56:27Z</time>
      </trkpt>
      <trkpt lat="46.66776" lon="5.82147">
        <ele>577.7</ele>
        <time>2021-09-12T11:56:32Z</time>
      </trkpt>
      <trkpt lat="46.66779" lon="5.82142">
        <ele>577.9</ele>
        <time>2021-09-12T11:56:36Z</time>
      </trkpt>
      <trkpt lat="46.66782" lon="5.82135">
        <ele>578.1</ele>
        <time>2021-09-12T11:56:41Z</time>
      </trkpt>
      <trkpt lat="46.66783" lon="5.82128">
        <ele>578</ele>
        <time>2021-09-12T11:56:47Z</time>
      </trkpt>
      <trkpt lat="46.66785" lon="5.82122">
        <ele>577.4</ele>
        <time>2021-09-12T11:56:58Z</time>
      </trkpt>
      <trkpt lat="46.66787" lon="5.82116">
        <ele>577.1</ele>
        <time>2021-09-12T11:57:04Z</time>
      </trkpt>
      <trkpt lat="46.66789" lon="5.82109">
        <ele>576.7</ele>
        <time>2021-09-12T11:57:10Z</time>
      </trkpt>
      <trkpt lat="46.66792" lon="5.82103">
        <ele>576.6</ele>
        <time>2021-09-12T11:57:15Z</time>
      </trkpt>
      <trkpt lat="46.66795" lon="5.82097">
        <ele>576.4</ele>
        <time>2021-09-12T11:57:19Z</time>
      </trkpt>
      <trkpt lat="46.66798" lon="5.82092">
        <ele>576.4</ele>
        <time>2021-09-12T11:57:24Z</time>
      </trkpt>
      <trkpt lat="46.66801" lon="5.82086">
        <ele>576.3</ele>
        <time>2021-09-12T11:57:31Z</time>
      </trkpt>
      <trkpt lat="46.66803" lon="5.82079">
        <ele>575.4</ele>
        <time>2021-09-12T11:57:37Z</time>
      </trkpt>
      <trkpt lat="46.66805" lon="5.82073">
        <ele>575</ele>
        <time>2021-09-12T11:57:44Z</time>
      </trkpt>
      <trkpt lat="46.66807" lon="5.82066">
        <ele>575</ele>
        <time>2021-09-12T11:57:49Z</time>
      </trkpt>
      <trkpt lat="46.66807" lon="5.82058">
        <ele>574.6</ele>
        <time>2021-09-12T11:57:53Z</time>
      </trkpt>
      <trkpt lat="46.66807" lon="5.82051">
        <ele>574.3</ele>
        <time>2021-09-12T11:57:56Z</time>
      </trkpt>
      <trkpt lat="46.66807" lon="5.82044">
        <ele>573.6</ele>
        <time>2021-09-12T11:58:00Z</time>
      </trkpt>
      <trkpt lat="46.66804" lon="5.82038">
        <ele>572.7</ele>
        <time>2021-09-12T11:58:04Z</time>
      </trkpt>
      <trkpt lat="46.66802" lon="5.82032">
        <ele>572.3</ele>
        <time>2021-09-12T11:58:08Z</time>
      </trkpt>
      <trkpt lat="46.668" lon="5.82025">
        <ele>572.4</ele>
        <time>2021-09-12T11:58:12Z</time>
      </trkpt>
      <trkpt lat="46.66799" lon="5.82018">
        <ele>572.2</ele>
        <time>2021-09-12T11:58:18Z</time>
      </trkpt>
      <trkpt lat="46.66797" lon="5.82012">
        <ele>571.6</ele>
        <time>2021-09-12T11:58:24Z</time>
      </trkpt>
      <trkpt lat="46.66797" lon="5.82004">
        <ele>571.3</ele>
        <time>2021-09-12T11:58:31Z</time>
      </trkpt>
      <trkpt lat="46.66795" lon="5.81997">
        <ele>571.4</ele>
        <time>2021-09-12T11:58:37Z</time>
      </trkpt>
      <trkpt lat="46.66793" lon="5.81991">
        <ele>571.5</ele>
        <time>2021-09-12T11:58:41Z</time>
      </trkpt>
      <trkpt lat="46.66792" lon="5.81984">
        <ele>571.5</ele>
        <time>2021-09-12T11:58:45Z</time>
      </trkpt>
      <trkpt lat="46.6679" lon="5.81977">
        <ele>572.1</ele>
        <time>2021-09-12T11:58:49Z</time>
      </trkpt>
      <trkpt lat="46.66788" lon="5.8197">
        <ele>573.3</ele>
        <time>2021-09-12T11:58:54Z</time>
      </trkpt>
      <trkpt lat="46.66786" lon="5.81964">
        <ele>575.3</ele>
        <time>2021-09-12T11:59:02Z</time>
      </trkpt>
      <trkpt lat="46.66786" lon="5.81957">
        <ele>577.2</ele>
        <time>2021-09-12T11:59:07Z</time>
      </trkpt>
      <trkpt lat="46.66783" lon="5.81951">
        <ele>579.7</ele>
        <time>2021-09-12T11:59:13Z</time>
      </trkpt>
      <trkpt lat="46.66782" lon="5.81944">
        <ele>581.3</ele>
        <time>2021-09-12T11:59:18Z</time>
      </trkpt>
      <trkpt lat="46.66782" lon="5.81938">
        <ele>582.5</ele>
        <time>2021-09-12T11:59:22Z</time>
      </trkpt>
      <trkpt lat="46.66783" lon="5.81931">
        <ele>583</ele>
        <time>2021-09-12T11:59:27Z</time>
      </trkpt>
      <trkpt lat="46.66783" lon="5.81924">
        <ele>583.1</ele>
        <time>2021-09-12T11:59:31Z</time>
      </trkpt>
      <trkpt lat="46.66786" lon="5.81916">
        <ele>582.4</ele>
        <time>2021-09-12T11:59:35Z</time>
      </trkpt>
      <trkpt lat="46.66786" lon="5.81908">
        <ele>581.6</ele>
        <time>2021-09-12T11:59:40Z</time>
      </trkpt>
      <trkpt lat="46.66787" lon="5.81901">
        <ele>581.2</ele>
        <time>2021-09-12T11:59:45Z</time>
      </trkpt>
      <trkpt lat="46.66789" lon="5.81895">
        <ele>581.6</ele>
        <time>2021-09-12T11:59:50Z</time>
      </trkpt>
      <trkpt lat="46.66789" lon="5.81887">
        <ele>582.5</ele>
        <time>2021-09-12T11:59:55Z</time>
      </trkpt>
      <trkpt lat="46.66789" lon="5.81879">
        <ele>582.9</ele>
        <time>2021-09-12T11:59:59Z</time>
      </trkpt>
      <trkpt lat="46.66789" lon="5.81872">
        <ele>582.9</ele>
        <time>2021-09-12T12:00:04Z</time>
      </trkpt>
      <trkpt lat="46.66791" lon="5.81865">
        <ele>582.7</ele>
        <time>2021-09-12T12:00:09Z</time>
      </trkpt>
      <trkpt lat="46.66793" lon="5.81858">
        <ele>582.4</ele>
        <time>2021-09-12T12:00:13Z</time>
      </trkpt>
      <trkpt lat="46.66794" lon="5.8185">
        <ele>582.5</ele>
        <time>2021-09-12T12:00:17Z</time>
      </trkpt>
      <trkpt lat="46.66794" lon="5.81842">
        <ele>584</ele>
        <time>2021-09-12T12:00:22Z</time>
      </trkpt>
      <trkpt lat="46.66797" lon="5.81836">
        <ele>586.7</ele>
        <time>2021-09-12T12:00:28Z</time>
      </trkpt>
      <trkpt lat="46.66799" lon="5.8183">
        <ele>588.9</ele>
        <time>2021-09-12T12:00:33Z</time>
      </trkpt>
      <trkpt lat="46.668" lon="5.81823">
        <ele>590.7</ele>
        <time>2021-09-12T12:00:39Z</time>
      </trkpt>
      <trkpt lat="46.66801" lon="5.81815">
        <ele>591.7</ele>
        <time>2021-09-12T12:00:46Z</time>
      </trkpt>
      <trkpt lat="46.66801" lon="5.81808">
        <ele>591.7</ele>
        <time>2021-09-12T12:00:50Z</time>
      </trkpt>
      <trkpt lat="46.66803" lon="5.81802">
        <ele>592</ele>
        <time>2021-09-12T12:00:55Z</time>
      </trkpt>
      <trkpt lat="46.66806" lon="5.81795">
        <ele>592.1</ele>
        <time>2021-09-12T12:01:01Z</time>
      </trkpt>
      <trkpt lat="46.66808" lon="5.81789">
        <ele>592.2</ele>
        <time>2021-09-12T12:01:06Z</time>
      </trkpt>
      <trkpt lat="46.6681" lon="5.81782">
        <ele>592.4</ele>
        <time>2021-09-12T12:01:10Z</time>
      </trkpt>
      <trkpt lat="46.6681" lon="5.81775">
        <ele>592.6</ele>
        <time>2021-09-12T12:01:14Z</time>
      </trkpt>
      <trkpt lat="46.6681" lon="5.81768">
        <ele>592.4</ele>
        <time>2021-09-12T12:01:18Z</time>
      </trkpt>
      <trkpt lat="46.66811" lon="5.81761">
        <ele>592.3</ele>
        <time>2021-09-12T12:01:24Z</time>
      </trkpt>
      <trkpt lat="46.66811" lon="5.81754">
        <ele>592.6</ele>
        <time>2021-09-12T12:01:28Z</time>
      </trkpt>
      <trkpt lat="46.6681" lon="5.81747">
        <ele>593.5</ele>
        <time>2021-09-12T12:01:33Z</time>
      </trkpt>
      <trkpt lat="46.6681" lon="5.8174">
        <ele>594.4</ele>
        <time>2021-09-12T12:01:37Z</time>
      </trkpt>
      <trkpt lat="46.66811" lon="5.81733">
        <ele>595.6</ele>
        <time>2021-09-12T12:01:42Z</time>
      </trkpt>
      <trkpt lat="46.66811" lon="5.81725">
        <ele>596.7</ele>
        <time>2021-09-12T12:01:46Z</time>
      </trkpt>
      <trkpt lat="46.66812" lon="5.81718">
        <ele>597.5</ele>
        <time>2021-09-12T12:01:51Z</time>
      </trkpt>
      <trkpt lat="46.66815" lon="5.81712">
        <ele>598.3</ele>
        <time>2021-09-12T12:01:57Z</time>
      </trkpt>
      <trkpt lat="46.66818" lon="5.81705">
        <ele>599.3</ele>
        <time>2021-09-12T12:02:03Z</time>
      </trkpt>
      <trkpt lat="46.6682" lon="5.81699">
        <ele>599.9</ele>
        <time>2021-09-12T12:02:07Z</time>
      </trkpt>
      <trkpt lat="46.66824" lon="5.81694">
        <ele>600.5</ele>
        <time>2021-09-12T12:02:11Z</time>
      </trkpt>
      <trkpt lat="46.66828" lon="5.81688">
        <ele>601.3</ele>
        <time>2021-09-12T12:02:16Z</time>
      </trkpt>
      <trkpt lat="46.66831" lon="5.81684">
        <ele>601.6</ele>
        <time>2021-09-12T12:02:20Z</time>
      </trkpt>
      <trkpt lat="46.66835" lon="5.81682">
        <ele>598.9</ele>
        <time>2021-09-12T12:02:35Z</time>
      </trkpt>
      <trkpt lat="46.6684" lon="5.81684">
        <ele>598.4</ele>
        <time>2021-09-12T12:04:19Z</time>
      </trkpt>
      <trkpt lat="46.66843" lon="5.81679">
        <ele>598.7</ele>
        <time>2021-09-12T12:04:38Z</time>
      </trkpt>
      <trkpt lat="46.66845" lon="5.81672">
        <ele>598.2</ele>
        <time>2021-09-12T12:04:45Z</time>
      </trkpt>
      <trkpt lat="46.66847" lon="5.81665">
        <ele>597</ele>
        <time>2021-09-12T12:04:51Z</time>
      </trkpt>
      <trkpt lat="46.6685" lon="5.81659">
        <ele>595.9</ele>
        <time>2021-09-12T12:04:55Z</time>
      </trkpt>
      <trkpt lat="46.66854" lon="5.81654">
        <ele>594.9</ele>
        <time>2021-09-12T12:05:00Z</time>
      </trkpt>
      <trkpt lat="46.66856" lon="5.81648">
        <ele>594.7</ele>
        <time>2021-09-12T12:05:05Z</time>
      </trkpt>
      <trkpt lat="46.66859" lon="5.81642">
        <ele>595.1</ele>
        <time>2021-09-12T12:05:10Z</time>
      </trkpt>
      <trkpt lat="46.66862" lon="5.81636">
        <ele>595.4</ele>
        <time>2021-09-12T12:05:15Z</time>
      </trkpt>
      <trkpt lat="46.66863" lon="5.8163">
        <ele>595.3</ele>
        <time>2021-09-12T12:05:20Z</time>
      </trkpt>
      <trkpt lat="46.66865" lon="5.81623">
        <ele>594.8</ele>
        <time>2021-09-12T12:05:27Z</time>
      </trkpt>
      <trkpt lat="46.66868" lon="5.81618">
        <ele>594.2</ele>
        <time>2021-09-12T12:05:31Z</time>
      </trkpt>
      <trkpt lat="46.66872" lon="5.81613">
        <ele>593.6</ele>
        <time>2021-09-12T12:05:35Z</time>
      </trkpt>
      <trkpt lat="46.66875" lon="5.81608">
        <ele>593.1</ele>
        <time>2021-09-12T12:05:39Z</time>
      </trkpt>
      <trkpt lat="46.66879" lon="5.81604">
        <ele>592.7</ele>
        <time>2021-09-12T12:05:43Z</time>
      </trkpt>
      <trkpt lat="46.66883" lon="5.816">
        <ele>592.3</ele>
        <time>2021-09-12T12:05:47Z</time>
      </trkpt>
      <trkpt lat="46.66887" lon="5.81595">
        <ele>592.1</ele>
        <time>2021-09-12T12:05:51Z</time>
      </trkpt>
      <trkpt lat="46.6689" lon="5.81589">
        <ele>592.5</ele>
        <time>2021-09-12T12:05:56Z</time>
      </trkpt>
      <trkpt lat="46.66893" lon="5.81584">
        <ele>593.4</ele>
        <time>2021-09-12T12:06:00Z</time>
      </trkpt>
      <trkpt lat="46.66898" lon="5.81579">
        <ele>594.2</ele>
        <time>2021-09-12T12:06:04Z</time>
      </trkpt>
      <trkpt lat="46.66902" lon="5.81574">
        <ele>594.7</ele>
        <time>2021-09-12T12:06:08Z</time>
      </trkpt>
      <trkpt lat="46.66904" lon="5.81568">
        <ele>595</ele>
        <time>2021-09-12T12:06:12Z</time>
      </trkpt>
      <trkpt lat="46.66906" lon="5.81561">
        <ele>595.4</ele>
        <time>2021-09-12T12:06:17Z</time>
      </trkpt>
      <trkpt lat="46.66909" lon="5.81556">
        <ele>595.7</ele>
        <time>2021-09-12T12:06:23Z</time>
      </trkpt>
      <trkpt lat="46.66912" lon="5.8155">
        <ele>596</ele>
        <time>2021-09-12T12:06:28Z</time>
      </trkpt>
      <trkpt lat="46.66914" lon="5.81544">
        <ele>596.3</ele>
        <time>2021-09-12T12:06:33Z</time>
      </trkpt>
      <trkpt lat="46.66917" lon="5.81537">
        <ele>596.1</ele>
        <time>2021-09-12T12:06:38Z</time>
      </trkpt>
      <trkpt lat="46.66921" lon="5.81531">
        <ele>595.7</ele>
        <time>2021-09-12T12:06:42Z</time>
      </trkpt>
      <trkpt lat="46.66924" lon="5.81526">
        <ele>595.1</ele>
        <time>2021-09-12T12:06:46Z</time>
      </trkpt>
      <trkpt lat="46.66927" lon="5.81522">
        <ele>594.4</ele>
        <time>2021-09-12T12:06:51Z</time>
      </trkpt>
      <trkpt lat="46.66931" lon="5.81517">
        <ele>593.8</ele>
        <time>2021-09-12T12:06:57Z</time>
      </trkpt>
      <trkpt lat="46.66934" lon="5.81511">
        <ele>593.7</ele>
        <time>2021-09-12T12:07:02Z</time>
      </trkpt>
      <trkpt lat="46.66937" lon="5.81505">
        <ele>594.1</ele>
        <time>2021-09-12T12:07:07Z</time>
      </trkpt>
      <trkpt lat="46.6694" lon="5.815">
        <ele>594.8</ele>
        <time>2021-09-12T12:07:11Z</time>
      </trkpt>
      <trkpt lat="46.66945" lon="5.81494">
        <ele>595.5</ele>
        <time>2021-09-12T12:07:15Z</time>
      </trkpt>
      <trkpt lat="46.66948" lon="5.8149">
        <ele>596.2</ele>
        <time>2021-09-12T12:07:18Z</time>
      </trkpt>
      <trkpt lat="46.66952" lon="5.81485">
        <ele>597</ele>
        <time>2021-09-12T12:07:22Z</time>
      </trkpt>
      <trkpt lat="46.66956" lon="5.81479">
        <ele>597.8</ele>
        <time>2021-09-12T12:07:27Z</time>
      </trkpt>
      <trkpt lat="46.66958" lon="5.81473">
        <ele>598.4</ele>
        <time>2021-09-12T12:07:35Z</time>
      </trkpt>
      <trkpt lat="46.6696" lon="5.81466">
        <ele>598.3</ele>
        <time>2021-09-12T12:07:43Z</time>
      </trkpt>
      <trkpt lat="46.66961" lon="5.81458">
        <ele>597.7</ele>
        <time>2021-09-12T12:07:49Z</time>
      </trkpt>
      <trkpt lat="46.66962" lon="5.81451">
        <ele>596.9</ele>
        <time>2021-09-12T12:07:55Z</time>
      </trkpt>
      <trkpt lat="46.66963" lon="5.81444">
        <ele>596.1</ele>
        <time>2021-09-12T12:08:01Z</time>
      </trkpt>
      <trkpt lat="46.66964" lon="5.81436">
        <ele>595.7</ele>
        <time>2021-09-12T12:08:07Z</time>
      </trkpt>
      <trkpt lat="46.66965" lon="5.81429">
        <ele>595.4</ele>
        <time>2021-09-12T12:08:13Z</time>
      </trkpt>
      <trkpt lat="46.66966" lon="5.81422">
        <ele>595.2</ele>
        <time>2021-09-12T12:08:18Z</time>
      </trkpt>
      <trkpt lat="46.66967" lon="5.81415">
        <ele>595.4</ele>
        <time>2021-09-12T12:08:24Z</time>
      </trkpt>
      <trkpt lat="46.66968" lon="5.81408">
        <ele>596.5</ele>
        <time>2021-09-12T12:08:43Z</time>
      </trkpt>
      <trkpt lat="46.6697" lon="5.81402">
        <ele>597.6</ele>
        <time>2021-09-12T12:10:04Z</time>
      </trkpt>
      <trkpt lat="46.66972" lon="5.81395">
        <ele>597.5</ele>
        <time>2021-09-12T12:10:09Z</time>
      </trkpt>
      <trkpt lat="46.66973" lon="5.81388">
        <ele>597.9</ele>
        <time>2021-09-12T12:10:15Z</time>
      </trkpt>
      <trkpt lat="46.66975" lon="5.8138">
        <ele>598.7</ele>
        <time>2021-09-12T12:10:20Z</time>
      </trkpt>
      <trkpt lat="46.66979" lon="5.81375">
        <ele>599.5</ele>
        <time>2021-09-12T12:10:25Z</time>
      </trkpt>
      <trkpt lat="46.66982" lon="5.8137">
        <ele>600.2</ele>
        <time>2021-09-12T12:10:30Z</time>
      </trkpt>
      <trkpt lat="46.66984" lon="5.81364">
        <ele>600.5</ele>
        <time>2021-09-12T12:10:35Z</time>
      </trkpt>
      <trkpt lat="46.66986" lon="5.81357">
        <ele>600.8</ele>
        <time>2021-09-12T12:10:40Z</time>
      </trkpt>
      <trkpt lat="46.66989" lon="5.81351">
        <ele>600.8</ele>
        <time>2021-09-12T12:10:45Z</time>
      </trkpt>
      <trkpt lat="46.66993" lon="5.81347">
        <ele>601.4</ele>
        <time>2021-09-12T12:10:51Z</time>
      </trkpt>
      <trkpt lat="46.66998" lon="5.81344">
        <ele>602.5</ele>
        <time>2021-09-12T12:10:57Z</time>
      </trkpt>
      <trkpt lat="46.67002" lon="5.8134">
        <ele>603.2</ele>
        <time>2021-09-12T12:11:20Z</time>
      </trkpt>
      <trkpt lat="46.67004" lon="5.81334">
        <ele>602.4</ele>
        <time>2021-09-12T12:11:48Z</time>
      </trkpt>
      <trkpt lat="46.67007" lon="5.81328">
        <ele>602.4</ele>
        <time>2021-09-12T12:11:54Z</time>
      </trkpt>
      <trkpt lat="46.6701" lon="5.81323">
        <ele>602.4</ele>
        <time>2021-09-12T12:12:00Z</time>
      </trkpt>
      <trkpt lat="46.67015" lon="5.8132">
        <ele>602.6</ele>
        <time>2021-09-12T12:12:14Z</time>
      </trkpt>
      <trkpt lat="46.67017" lon="5.81313">
        <ele>602.5</ele>
        <time>2021-09-12T12:12:21Z</time>
      </trkpt>
      <trkpt lat="46.67019" lon="5.81307">
        <ele>603</ele>
        <time>2021-09-12T12:12:27Z</time>
      </trkpt>
      <trkpt lat="46.67022" lon="5.81301">
        <ele>603.8</ele>
        <time>2021-09-12T12:12:33Z</time>
      </trkpt>
      <trkpt lat="46.67026" lon="5.81295">
        <ele>604.2</ele>
        <time>2021-09-12T12:12:38Z</time>
      </trkpt>
      <trkpt lat="46.6703" lon="5.8129">
        <ele>604.3</ele>
        <time>2021-09-12T12:12:43Z</time>
      </trkpt>
      <trkpt lat="46.67033" lon="5.81285">
        <ele>604.4</ele>
        <time>2021-09-12T12:12:53Z</time>
      </trkpt>
      <trkpt lat="46.67036" lon="5.8128">
        <ele>601.9</ele>
        <time>2021-09-12T12:13:53Z</time>
      </trkpt>
      <trkpt lat="46.6704" lon="5.81277">
        <ele>600.4</ele>
        <time>2021-09-12T12:14:00Z</time>
      </trkpt>
      <trkpt lat="46.67044" lon="5.81273">
        <ele>599.9</ele>
        <time>2021-09-12T12:14:07Z</time>
      </trkpt>
      <trkpt lat="46.67048" lon="5.81267">
        <ele>599.6</ele>
        <time>2021-09-12T12:14:13Z</time>
      </trkpt>
      <trkpt lat="46.67051" lon="5.81262">
        <ele>599.4</ele>
        <time>2021-09-12T12:14:19Z</time>
      </trkpt>
      <trkpt lat="46.67054" lon="5.81256">
        <ele>599.7</ele>
        <time>2021-09-12T12:14:28Z</time>
      </trkpt>
      <trkpt lat="46.67058" lon="5.81253">
        <ele>599</ele>
        <time>2021-09-12T12:15:03Z</time>
      </trkpt>
      <trkpt lat="46.67063" lon="5.81253">
        <ele>599.1</ele>
        <time>2021-09-12T12:15:07Z</time>
      </trkpt>
      <trkpt lat="46.6706" lon="5.81258">
        <ele>600.2</ele>
        <time>2021-09-12T12:16:13Z</time>
      </trkpt>
      <trkpt lat="46.67063" lon="5.81262">
        <ele>599.3</ele>
        <time>2021-09-12T12:16:42Z</time>
      </trkpt>
      <trkpt lat="46.67068" lon="5.81265">
        <ele>599.1</ele>
        <time>2021-09-12T12:16:50Z</time>
      </trkpt>
      <trkpt lat="46.67072" lon="5.81268">
        <ele>599.4</ele>
        <time>2021-09-12T12:16:55Z</time>
      </trkpt>
      <trkpt lat="46.67077" lon="5.81268">
        <ele>599.9</ele>
        <time>2021-09-12T12:17:02Z</time>
      </trkpt>
      <trkpt lat="46.67082" lon="5.8127">
        <ele>599.4</ele>
        <time>2021-09-12T12:17:11Z</time>
      </trkpt>
      <trkpt lat="46.67087" lon="5.81267">
        <ele>598.6</ele>
        <time>2021-09-12T12:17:17Z</time>
      </trkpt>
      <trkpt lat="46.67091" lon="5.81265">
        <ele>597.1</ele>
        <time>2021-09-12T12:17:23Z</time>
      </trkpt>
      <trkpt lat="46.67096" lon="5.81265">
        <ele>595.7</ele>
        <time>2021-09-12T12:17:29Z</time>
      </trkpt>
      <trkpt lat="46.671" lon="5.81264">
        <ele>593.8</ele>
        <time>2021-09-12T12:17:44Z</time>
      </trkpt>
      <trkpt lat="46.67102" lon="5.81256">
        <ele>594</ele>
        <time>2021-09-12T12:18:06Z</time>
      </trkpt>
      <trkpt lat="46.67107" lon="5.81254">
        <ele>593.8</ele>
        <time>2021-09-12T12:18:10Z</time>
      </trkpt>
      <trkpt lat="46.67112" lon="5.81252">
        <ele>593.3</ele>
        <time>2021-09-12T12:18:15Z</time>
      </trkpt>
      <trkpt lat="46.67116" lon="5.81249">
        <ele>592.7</ele>
        <time>2021-09-12T12:18:21Z</time>
      </trkpt>
      <trkpt lat="46.6712" lon="5.81246">
        <ele>592.3</ele>
        <time>2021-09-12T12:18:26Z</time>
      </trkpt>
      <trkpt lat="46.67124" lon="5.81242">
        <ele>592</ele>
        <time>2021-09-12T12:18:30Z</time>
      </trkpt>
      <trkpt lat="46.67129" lon="5.81237">
        <ele>591.7</ele>
        <time>2021-09-12T12:18:34Z</time>
      </trkpt>
      <trkpt lat="46.67133" lon="5.81233">
        <ele>591.5</ele>
        <time>2021-09-12T12:18:37Z</time>
      </trkpt>
      <trkpt lat="46.67137" lon="5.81228">
        <ele>591.7</ele>
        <time>2021-09-12T12:18:42Z</time>
      </trkpt>
      <trkpt lat="46.67141" lon="5.81225">
        <ele>591.7</ele>
        <time>2021-09-12T12:18:47Z</time>
      </trkpt>
      <trkpt lat="46.67147" lon="5.81222">
        <ele>591.7</ele>
        <time>2021-09-12T12:18:51Z</time>
      </trkpt>
      <trkpt lat="46.67152" lon="5.8122">
        <ele>591.8</ele>
        <time>2021-09-12T12:18:55Z</time>
      </trkpt>
      <trkpt lat="46.67157" lon="5.8122">
        <ele>591.9</ele>
        <time>2021-09-12T12:18:58Z</time>
      </trkpt>
      <trkpt lat="46.67161" lon="5.81217">
        <ele>591.8</ele>
        <time>2021-09-12T12:19:02Z</time>
      </trkpt>
      <trkpt lat="46.67164" lon="5.81213">
        <ele>592.2</ele>
        <time>2021-09-12T12:19:07Z</time>
      </trkpt>
      <trkpt lat="46.6717" lon="5.81209">
        <ele>592.8</ele>
        <time>2021-09-12T12:19:12Z</time>
      </trkpt>
      <trkpt lat="46.67174" lon="5.81205">
        <ele>593.3</ele>
        <time>2021-09-12T12:19:16Z</time>
      </trkpt>
      <trkpt lat="46.67178" lon="5.81201">
        <ele>594</ele>
        <time>2021-09-12T12:19:21Z</time>
      </trkpt>
      <trkpt lat="46.67181" lon="5.81206">
        <ele>591.2</ele>
        <time>2021-09-12T12:20:31Z</time>
      </trkpt>
      <trkpt lat="46.67186" lon="5.81203">
        <ele>586.5</ele>
        <time>2021-09-12T12:21:14Z</time>
      </trkpt>
      <trkpt lat="46.67188" lon="5.81197">
        <ele>585.3</ele>
        <time>2021-09-12T12:21:23Z</time>
      </trkpt>
      <trkpt lat="46.67188" lon="5.8119">
        <ele>582.8</ele>
        <time>2021-09-12T12:21:49Z</time>
      </trkpt>
      <trkpt lat="46.67192" lon="5.81185">
        <ele>582.4</ele>
        <time>2021-09-12T12:21:56Z</time>
      </trkpt>
      <trkpt lat="46.67195" lon="5.81179">
        <ele>582.3</ele>
        <time>2021-09-12T12:22:02Z</time>
      </trkpt>
      <trkpt lat="46.67196" lon="5.81172">
        <ele>582.4</ele>
        <time>2021-09-12T12:22:07Z</time>
      </trkpt>
      <trkpt lat="46.67199" lon="5.81165">
        <ele>582.4</ele>
        <time>2021-09-12T12:22:13Z</time>
      </trkpt>
      <trkpt lat="46.67201" lon="5.81159">
        <ele>582.5</ele>
        <time>2021-09-12T12:22:18Z</time>
      </trkpt>
      <trkpt lat="46.67204" lon="5.81154">
        <ele>582.6</ele>
        <time>2021-09-12T12:22:23Z</time>
      </trkpt>
      <trkpt lat="46.67206" lon="5.81148">
        <ele>582.7</ele>
        <time>2021-09-12T12:22:28Z</time>
      </trkpt>
      <trkpt lat="46.67209" lon="5.81141">
        <ele>583.4</ele>
        <time>2021-09-12T12:22:33Z</time>
      </trkpt>
      <trkpt lat="46.67212" lon="5.81136">
        <ele>584.2</ele>
        <time>2021-09-12T12:22:38Z</time>
      </trkpt>
      <trkpt lat="46.67214" lon="5.81129">
        <ele>585</ele>
        <time>2021-09-12T12:22:43Z</time>
      </trkpt>
      <trkpt lat="46.67217" lon="5.81123">
        <ele>585.5</ele>
        <time>2021-09-12T12:22:47Z</time>
      </trkpt>
      <trkpt lat="46.67217" lon="5.81116">
        <ele>586.3</ele>
        <time>2021-09-12T12:22:51Z</time>
      </trkpt>
      <trkpt lat="46.67218" lon="5.81108">
        <ele>586.7</ele>
        <time>2021-09-12T12:22:56Z</time>
      </trkpt>
      <trkpt lat="46.67221" lon="5.81102">
        <ele>587.3</ele>
        <time>2021-09-12T12:23:03Z</time>
      </trkpt>
      <trkpt lat="46.67222" lon="5.81096">
        <ele>588.1</ele>
        <time>2021-09-12T12:23:08Z</time>
      </trkpt>
      <trkpt lat="46.67226" lon="5.8109">
        <ele>588.8</ele>
        <time>2021-09-12T12:23:12Z</time>
      </trkpt>
      <trkpt lat="46.6723" lon="5.81086">
        <ele>589.3</ele>
        <time>2021-09-12T12:23:17Z</time>
      </trkpt>
      <trkpt lat="46.67233" lon="5.81081">
        <ele>588.7</ele>
        <time>2021-09-12T12:23:22Z</time>
      </trkpt>
      <trkpt lat="46.67235" lon="5.81074">
        <ele>588.2</ele>
        <time>2021-09-12T12:23:26Z</time>
      </trkpt>
      <trkpt lat="46.67236" lon="5.81068">
        <ele>587.5</ele>
        <time>2021-09-12T12:23:30Z</time>
      </trkpt>
      <trkpt lat="46.67238" lon="5.8106">
        <ele>586.7</ele>
        <time>2021-09-12T12:23:35Z</time>
      </trkpt>
      <trkpt lat="46.67239" lon="5.81053">
        <ele>586.4</ele>
        <time>2021-09-12T12:23:39Z</time>
      </trkpt>
      <trkpt lat="46.6724" lon="5.81047">
        <ele>586.5</ele>
        <time>2021-09-12T12:23:43Z</time>
      </trkpt>
      <trkpt lat="46.67243" lon="5.81041">
        <ele>586.9</ele>
        <time>2021-09-12T12:23:47Z</time>
      </trkpt>
      <trkpt lat="46.67245" lon="5.81035">
        <ele>587.1</ele>
        <time>2021-09-12T12:23:51Z</time>
      </trkpt>
      <trkpt lat="46.67247" lon="5.81029">
        <ele>587.3</ele>
        <time>2021-09-12T12:23:56Z</time>
      </trkpt>
      <trkpt lat="46.67251" lon="5.81023">
        <ele>587.8</ele>
        <time>2021-09-12T12:24:02Z</time>
      </trkpt>
      <trkpt lat="46.67252" lon="5.81016">
        <ele>587.9</ele>
        <time>2021-09-12T12:24:07Z</time>
      </trkpt>
      <trkpt lat="46.67255" lon="5.8101">
        <ele>587.7</ele>
        <time>2021-09-12T12:24:12Z</time>
      </trkpt>
      <trkpt lat="46.67258" lon="5.81005">
        <ele>587</ele>
        <time>2021-09-12T12:24:16Z</time>
      </trkpt>
      <trkpt lat="46.6726" lon="5.80998">
        <ele>585.7</ele>
        <time>2021-09-12T12:24:21Z</time>
      </trkpt>
      <trkpt lat="46.67258" lon="5.81004">
        <ele>584.9</ele>
        <time>2021-09-12T12:24:30Z</time>
      </trkpt>
      <trkpt lat="46.67263" lon="5.81003">
        <ele>587.4</ele>
        <time>2021-09-12T12:24:44Z</time>
      </trkpt>
      <trkpt lat="46.67264" lon="5.8101">
        <ele>589.1</ele>
        <time>2021-09-12T12:24:55Z</time>
      </trkpt>
      <trkpt lat="46.67263" lon="5.81017">
        <ele>590.9</ele>
        <time>2021-09-12T12:25:13Z</time>
      </trkpt>
      <trkpt lat="46.67258" lon="5.81016">
        <ele>591.2</ele>
        <time>2021-09-12T12:25:19Z</time>
      </trkpt>
      <trkpt lat="46.67253" lon="5.81017">
        <ele>591.1</ele>
        <time>2021-09-12T12:25:22Z</time>
      </trkpt>
      <trkpt lat="46.67256" lon="5.81008">
        <ele>590.9</ele>
        <time>2021-09-12T12:25:25Z</time>
      </trkpt>
      <trkpt lat="46.6726" lon="5.81002">
        <ele>590.8</ele>
        <time>2021-09-12T12:25:28Z</time>
      </trkpt>
      <trkpt lat="46.6726" lon="5.80995">
        <ele>590.3</ele>
        <time>2021-09-12T12:25:32Z</time>
      </trkpt>
      <trkpt lat="46.67261" lon="5.80987">
        <ele>588.8</ele>
        <time>2021-09-12T12:25:37Z</time>
      </trkpt>
      <trkpt lat="46.67262" lon="5.80981">
        <ele>587.9</ele>
        <time>2021-09-12T12:25:40Z</time>
      </trkpt>
      <trkpt lat="46.67262" lon="5.80974">
        <ele>587.2</ele>
        <time>2021-09-12T12:25:43Z</time>
      </trkpt>
      <trkpt lat="46.67264" lon="5.80967">
        <ele>586.8</ele>
        <time>2021-09-12T12:25:46Z</time>
      </trkpt>
      <trkpt lat="46.67264" lon="5.80959">
        <ele>586.1</ele>
        <time>2021-09-12T12:25:50Z</time>
      </trkpt>
      <trkpt lat="46.67268" lon="5.80951">
        <ele>585.7</ele>
        <time>2021-09-12T12:25:54Z</time>
      </trkpt>
      <trkpt lat="46.6727" lon="5.80945">
        <ele>585.3</ele>
        <time>2021-09-12T12:25:58Z</time>
      </trkpt>
      <trkpt lat="46.67273" lon="5.80937">
        <ele>584.9</ele>
        <time>2021-09-12T12:26:02Z</time>
      </trkpt>
      <trkpt lat="46.67274" lon="5.80929">
        <ele>584.4</ele>
        <time>2021-09-12T12:26:06Z</time>
      </trkpt>
      <trkpt lat="46.67276" lon="5.80921">
        <ele>584.2</ele>
        <time>2021-09-12T12:26:10Z</time>
      </trkpt>
      <trkpt lat="46.67276" lon="5.80914">
        <ele>584.1</ele>
        <time>2021-09-12T12:26:13Z</time>
      </trkpt>
      <trkpt lat="46.67276" lon="5.80908">
        <ele>584.2</ele>
        <time>2021-09-12T12:26:16Z</time>
      </trkpt>
      <trkpt lat="46.67277" lon="5.80901">
        <ele>584.1</ele>
        <time>2021-09-12T12:26:19Z</time>
      </trkpt>
      <trkpt lat="46.67277" lon="5.80893">
        <ele>584.1</ele>
        <time>2021-09-12T12:26:23Z</time>
      </trkpt>
      <trkpt lat="46.67279" lon="5.80886">
        <ele>584.2</ele>
        <time>2021-09-12T12:26:27Z</time>
      </trkpt>
      <trkpt lat="46.6728" lon="5.80879">
        <ele>584.2</ele>
        <time>2021-09-12T12:26:31Z</time>
      </trkpt>
      <trkpt lat="46.6728" lon="5.80873">
        <ele>584.1</ele>
        <time>2021-09-12T12:26:35Z</time>
      </trkpt>
      <trkpt lat="46.6728" lon="5.80866">
        <ele>584.3</ele>
        <time>2021-09-12T12:26:39Z</time>
      </trkpt>
      <trkpt lat="46.6728" lon="5.80859">
        <ele>584.7</ele>
        <time>2021-09-12T12:26:43Z</time>
      </trkpt>
      <trkpt lat="46.67281" lon="5.80852">
        <ele>585.2</ele>
        <time>2021-09-12T12:26:47Z</time>
      </trkpt>
      <trkpt lat="46.67282" lon="5.80845">
        <ele>585.8</ele>
        <time>2021-09-12T12:26:51Z</time>
      </trkpt>
      <trkpt lat="46.67284" lon="5.80838">
        <ele>586.7</ele>
        <time>2021-09-12T12:26:56Z</time>
      </trkpt>
      <trkpt lat="46.67285" lon="5.80832">
        <ele>587.6</ele>
        <time>2021-09-12T12:27:00Z</time>
      </trkpt>
      <trkpt lat="46.67287" lon="5.80824">
        <ele>588.9</ele>
        <time>2021-09-12T12:27:05Z</time>
      </trkpt>
      <trkpt lat="46.67288" lon="5.80818">
        <ele>589.7</ele>
        <time>2021-09-12T12:27:09Z</time>
      </trkpt>
      <trkpt lat="46.6729" lon="5.80812">
        <ele>590.5</ele>
        <time>2021-09-12T12:27:13Z</time>
      </trkpt>
      <trkpt lat="46.67293" lon="5.80807">
        <ele>591.3</ele>
        <time>2021-09-12T12:27:18Z</time>
      </trkpt>
      <trkpt lat="46.67296" lon="5.808">
        <ele>591.5</ele>
        <time>2021-09-12T12:27:23Z</time>
      </trkpt>
      <trkpt lat="46.67299" lon="5.80793">
        <ele>590.7</ele>
        <time>2021-09-12T12:27:28Z</time>
      </trkpt>
      <trkpt lat="46.67301" lon="5.80786">
        <ele>589.7</ele>
        <time>2021-09-12T12:27:32Z</time>
      </trkpt>
      <trkpt lat="46.67302" lon="5.80779">
        <ele>588.7</ele>
        <time>2021-09-12T12:27:36Z</time>
      </trkpt>
      <trkpt lat="46.67304" lon="5.80773">
        <ele>588.1</ele>
        <time>2021-09-12T12:27:40Z</time>
      </trkpt>
      <trkpt lat="46.67306" lon="5.80765">
        <ele>587.9</ele>
        <time>2021-09-12T12:27:44Z</time>
      </trkpt>
      <trkpt lat="46.6731" lon="5.8076">
        <ele>587.9</ele>
        <time>2021-09-12T12:27:48Z</time>
      </trkpt>
      <trkpt lat="46.67313" lon="5.80753">
        <ele>587.5</ele>
        <time>2021-09-12T12:27:53Z</time>
      </trkpt>
      <trkpt lat="46.67315" lon="5.80745">
        <ele>587</ele>
        <time>2021-09-12T12:27:58Z</time>
      </trkpt>
      <trkpt lat="46.67317" lon="5.80738">
        <ele>586.9</ele>
        <time>2021-09-12T12:28:02Z</time>
      </trkpt>
      <trkpt lat="46.6732" lon="5.80733">
        <ele>587.2</ele>
        <time>2021-09-12T12:28:06Z</time>
      </trkpt>
      <trkpt lat="46.67322" lon="5.80726">
        <ele>588.1</ele>
        <time>2021-09-12T12:28:10Z</time>
      </trkpt>
      <trkpt lat="46.67325" lon="5.8072">
        <ele>589</ele>
        <time>2021-09-12T12:28:14Z</time>
      </trkpt>
      <trkpt lat="46.67327" lon="5.80713">
        <ele>589.8</ele>
        <time>2021-09-12T12:28:18Z</time>
      </trkpt>
      <trkpt lat="46.67327" lon="5.80707">
        <ele>590.3</ele>
        <time>2021-09-12T12:28:22Z</time>
      </trkpt>
      <trkpt lat="46.67328" lon="5.807">
        <ele>589.9</ele>
        <time>2021-09-12T12:28:27Z</time>
      </trkpt>
      <trkpt lat="46.67331" lon="5.80694">
        <ele>589.3</ele>
        <time>2021-09-12T12:28:32Z</time>
      </trkpt>
      <trkpt lat="46.67333" lon="5.80687">
        <ele>588.7</ele>
        <time>2021-09-12T12:28:37Z</time>
      </trkpt>
      <trkpt lat="46.67337" lon="5.80682">
        <ele>588.4</ele>
        <time>2021-09-12T12:28:41Z</time>
      </trkpt>
      <trkpt lat="46.67341" lon="5.80677">
        <ele>587.4</ele>
        <time>2021-09-12T12:28:45Z</time>
      </trkpt>
      <trkpt lat="46.67344" lon="5.80671">
        <ele>586.1</ele>
        <time>2021-09-12T12:28:49Z</time>
      </trkpt>
      <trkpt lat="46.67348" lon="5.80666">
        <ele>585</ele>
        <time>2021-09-12T12:28:53Z</time>
      </trkpt>
      <trkpt lat="46.67349" lon="5.80658">
        <ele>584.2</ele>
        <time>2021-09-12T12:28:57Z</time>
      </trkpt>
      <trkpt lat="46.67351" lon="5.8065">
        <ele>584</ele>
        <time>2021-09-12T12:29:01Z</time>
      </trkpt>
      <trkpt lat="46.67353" lon="5.80643">
        <ele>584.2</ele>
        <time>2021-09-12T12:29:06Z</time>
      </trkpt>
      <trkpt lat="46.67355" lon="5.80636">
        <ele>584.4</ele>
        <time>2021-09-12T12:29:11Z</time>
      </trkpt>
      <trkpt lat="46.67358" lon="5.8063">
        <ele>584.8</ele>
        <time>2021-09-12T12:29:14Z</time>
      </trkpt>
      <trkpt lat="46.67359" lon="5.80624">
        <ele>585.4</ele>
        <time>2021-09-12T12:29:17Z</time>
      </trkpt>
      <trkpt lat="46.6736" lon="5.80617">
        <ele>586</ele>
        <time>2021-09-12T12:29:21Z</time>
      </trkpt>
      <trkpt lat="46.67363" lon="5.80611">
        <ele>586.8</ele>
        <time>2021-09-12T12:29:26Z</time>
      </trkpt>
      <trkpt lat="46.67366" lon="5.80603">
        <ele>587.6</ele>
        <time>2021-09-12T12:29:31Z</time>
      </trkpt>
      <trkpt lat="46.67367" lon="5.80597">
        <ele>588.5</ele>
        <time>2021-09-12T12:29:35Z</time>
      </trkpt>
      <trkpt lat="46.6737" lon="5.80589">
        <ele>589.1</ele>
        <time>2021-09-12T12:29:39Z</time>
      </trkpt>
      <trkpt lat="46.67371" lon="5.80582">
        <ele>589.2</ele>
        <time>2021-09-12T12:29:43Z</time>
      </trkpt>
      <trkpt lat="46.67373" lon="5.80576">
        <ele>589.1</ele>
        <time>2021-09-12T12:29:47Z</time>
      </trkpt>
      <trkpt lat="46.67376" lon="5.8057">
        <ele>588.9</ele>
        <time>2021-09-12T12:29:52Z</time>
      </trkpt>
      <trkpt lat="46.6738" lon="5.80564">
        <ele>587.8</ele>
        <time>2021-09-12T12:29:58Z</time>
      </trkpt>
      <trkpt lat="46.67382" lon="5.80559">
        <ele>586.8</ele>
        <time>2021-09-12T12:30:02Z</time>
      </trkpt>
      <trkpt lat="46.67383" lon="5.80551">
        <ele>585.8</ele>
        <time>2021-09-12T12:30:06Z</time>
      </trkpt>
      <trkpt lat="46.67385" lon="5.80543">
        <ele>585.2</ele>
        <time>2021-09-12T12:30:10Z</time>
      </trkpt>
      <trkpt lat="46.67387" lon="5.80537">
        <ele>584.5</ele>
        <time>2021-09-12T12:30:14Z</time>
      </trkpt>
      <trkpt lat="46.6739" lon="5.80532">
        <ele>583.8</ele>
        <time>2021-09-12T12:30:18Z</time>
      </trkpt>
      <trkpt lat="46.67392" lon="5.80525">
        <ele>583.5</ele>
        <time>2021-09-12T12:30:22Z</time>
      </trkpt>
      <trkpt lat="46.67393" lon="5.80519">
        <ele>583.4</ele>
        <time>2021-09-12T12:30:26Z</time>
      </trkpt>
      <trkpt lat="46.67394" lon="5.80512">
        <ele>583.3</ele>
        <time>2021-09-12T12:30:30Z</time>
      </trkpt>
      <trkpt lat="46.67396" lon="5.80505">
        <ele>583.3</ele>
        <time>2021-09-12T12:30:34Z</time>
      </trkpt>
      <trkpt lat="46.67397" lon="5.80498">
        <ele>583.2</ele>
        <time>2021-09-12T12:30:37Z</time>
      </trkpt>
      <trkpt lat="46.674" lon="5.80491">
        <ele>582.7</ele>
        <time>2021-09-12T12:30:41Z</time>
      </trkpt>
      <trkpt lat="46.67401" lon="5.80484">
        <ele>582.1</ele>
        <time>2021-09-12T12:30:45Z</time>
      </trkpt>
      <trkpt lat="46.67403" lon="5.80477">
        <ele>581.3</ele>
        <time>2021-09-12T12:30:50Z</time>
      </trkpt>
      <trkpt lat="46.67404" lon="5.8047">
        <ele>580.6</ele>
        <time>2021-09-12T12:30:55Z</time>
      </trkpt>
      <trkpt lat="46.67407" lon="5.80463">
        <ele>580.3</ele>
        <time>2021-09-12T12:31:00Z</time>
      </trkpt>
      <trkpt lat="46.6741" lon="5.80457">
        <ele>580.1</ele>
        <time>2021-09-12T12:31:04Z</time>
      </trkpt>
      <trkpt lat="46.67413" lon="5.8045">
        <ele>579.8</ele>
        <time>2021-09-12T12:31:08Z</time>
      </trkpt>
      <trkpt lat="46.67417" lon="5.80445">
        <ele>579.4</ele>
        <time>2021-09-12T12:31:12Z</time>
      </trkpt>
      <trkpt lat="46.67419" lon="5.80439">
        <ele>579.5</ele>
        <time>2021-09-12T12:31:17Z</time>
      </trkpt>
      <trkpt lat="46.67421" lon="5.80433">
        <ele>580.2</ele>
        <time>2021-09-12T12:31:21Z</time>
      </trkpt>
      <trkpt lat="46.67424" lon="5.80427">
        <ele>580.9</ele>
        <time>2021-09-12T12:31:26Z</time>
      </trkpt>
      <trkpt lat="46.67427" lon="5.8042">
        <ele>580.7</ele>
        <time>2021-09-12T12:31:31Z</time>
      </trkpt>
      <trkpt lat="46.67429" lon="5.80413">
        <ele>579.7</ele>
        <time>2021-09-12T12:31:36Z</time>
      </trkpt>
      <trkpt lat="46.67432" lon="5.80407">
        <ele>579.2</ele>
        <time>2021-09-12T12:31:40Z</time>
      </trkpt>
      <trkpt lat="46.67434" lon="5.804">
        <ele>579</ele>
        <time>2021-09-12T12:31:45Z</time>
      </trkpt>
      <trkpt lat="46.67437" lon="5.80395">
        <ele>578.5</ele>
        <time>2021-09-12T12:31:50Z</time>
      </trkpt>
      <trkpt lat="46.67441" lon="5.8039">
        <ele>578</ele>
        <time>2021-09-12T12:31:54Z</time>
      </trkpt>
      <trkpt lat="46.67445" lon="5.80385">
        <ele>577.8</ele>
        <time>2021-09-12T12:31:58Z</time>
      </trkpt>
      <trkpt lat="46.67449" lon="5.80381">
        <ele>577.4</ele>
        <time>2021-09-12T12:32:02Z</time>
      </trkpt>
      <trkpt lat="46.6745" lon="5.80373">
        <ele>576.8</ele>
        <time>2021-09-12T12:32:07Z</time>
      </trkpt>
      <trkpt lat="46.67452" lon="5.80365">
        <ele>576.5</ele>
        <time>2021-09-12T12:32:11Z</time>
      </trkpt>
      <trkpt lat="46.67453" lon="5.80356">
        <ele>576.1</ele>
        <time>2021-09-12T12:32:15Z</time>
      </trkpt>
      <trkpt lat="46.67453" lon="5.80349">
        <ele>576.3</ele>
        <time>2021-09-12T12:32:19Z</time>
      </trkpt>
      <trkpt lat="46.67456" lon="5.80342">
        <ele>577.6</ele>
        <time>2021-09-12T12:32:24Z</time>
      </trkpt>
      <trkpt lat="46.67457" lon="5.80336">
        <ele>578.4</ele>
        <time>2021-09-12T12:32:28Z</time>
      </trkpt>
      <trkpt lat="46.67459" lon="5.8033">
        <ele>578.6</ele>
        <time>2021-09-12T12:32:33Z</time>
      </trkpt>
      <trkpt lat="46.67461" lon="5.80323">
        <ele>578.4</ele>
        <time>2021-09-12T12:32:40Z</time>
      </trkpt>
      <trkpt lat="46.67462" lon="5.80317">
        <ele>578.1</ele>
        <time>2021-09-12T12:32:44Z</time>
      </trkpt>
      <trkpt lat="46.67463" lon="5.80309">
        <ele>578.2</ele>
        <time>2021-09-12T12:32:49Z</time>
      </trkpt>
      <trkpt lat="46.67466" lon="5.80303">
        <ele>578.1</ele>
        <time>2021-09-12T12:32:54Z</time>
      </trkpt>
      <trkpt lat="46.67468" lon="5.80296">
        <ele>577.8</ele>
        <time>2021-09-12T12:33:00Z</time>
      </trkpt>
      <trkpt lat="46.67471" lon="5.8029">
        <ele>578.1</ele>
        <time>2021-09-12T12:33:04Z</time>
      </trkpt>
      <trkpt lat="46.67474" lon="5.80285">
        <ele>578.5</ele>
        <time>2021-09-12T12:33:08Z</time>
      </trkpt>
      <trkpt lat="46.67477" lon="5.80279">
        <ele>578.8</ele>
        <time>2021-09-12T12:33:12Z</time>
      </trkpt>
      <trkpt lat="46.6748" lon="5.80273">
        <ele>579.2</ele>
        <time>2021-09-12T12:33:15Z</time>
      </trkpt>
      <trkpt lat="46.67481" lon="5.80267">
        <ele>580.3</ele>
        <time>2021-09-12T12:33:19Z</time>
      </trkpt>
      <trkpt lat="46.67484" lon="5.8026">
        <ele>581.5</ele>
        <time>2021-09-12T12:33:23Z</time>
      </trkpt>
      <trkpt lat="46.67486" lon="5.80254">
        <ele>582.7</ele>
        <time>2021-09-12T12:33:27Z</time>
      </trkpt>
      <trkpt lat="46.67489" lon="5.80249">
        <ele>583.1</ele>
        <time>2021-09-12T12:33:30Z</time>
      </trkpt>
      <trkpt lat="46.67493" lon="5.80243">
        <ele>583.3</ele>
        <time>2021-09-12T12:33:34Z</time>
      </trkpt>
      <trkpt lat="46.67494" lon="5.80235">
        <ele>583.7</ele>
        <time>2021-09-12T12:33:39Z</time>
      </trkpt>
      <trkpt lat="46.67497" lon="5.80228">
        <ele>583.9</ele>
        <time>2021-09-12T12:33:43Z</time>
      </trkpt>
      <trkpt lat="46.67498" lon="5.8022">
        <ele>583.9</ele>
        <time>2021-09-12T12:33:47Z</time>
      </trkpt>
      <trkpt lat="46.67499" lon="5.80212">
        <ele>583.9</ele>
        <time>2021-09-12T12:33:51Z</time>
      </trkpt>
      <trkpt lat="46.67499" lon="5.80205">
        <ele>584.1</ele>
        <time>2021-09-12T12:33:55Z</time>
      </trkpt>
      <trkpt lat="46.67501" lon="5.80199">
        <ele>584.9</ele>
        <time>2021-09-12T12:34:01Z</time>
      </trkpt>
      <trkpt lat="46.67504" lon="5.80193">
        <ele>586.2</ele>
        <time>2021-09-12T12:34:07Z</time>
      </trkpt>
      <trkpt lat="46.67508" lon="5.80187">
        <ele>586.6</ele>
        <time>2021-09-12T12:34:13Z</time>
      </trkpt>
      <trkpt lat="46.67509" lon="5.8018">
        <ele>586.5</ele>
        <time>2021-09-12T12:34:17Z</time>
      </trkpt>
      <trkpt lat="46.67509" lon="5.80173">
        <ele>586.2</ele>
        <time>2021-09-12T12:34:22Z</time>
      </trkpt>
      <trkpt lat="46.67512" lon="5.80167">
        <ele>585.8</ele>
        <time>2021-09-12T12:34:28Z</time>
      </trkpt>
      <trkpt lat="46.67513" lon="5.8016">
        <ele>585.6</ele>
        <time>2021-09-12T12:34:34Z</time>
      </trkpt>
      <trkpt lat="46.67512" lon="5.80153">
        <ele>585.7</ele>
        <time>2021-09-12T12:34:38Z</time>
      </trkpt>
      <trkpt lat="46.67513" lon="5.80147">
        <ele>586.2</ele>
        <time>2021-09-12T12:34:42Z</time>
      </trkpt>
      <trkpt lat="46.67514" lon="5.80139">
        <ele>587.3</ele>
        <time>2021-09-12T12:34:48Z</time>
      </trkpt>
      <trkpt lat="46.67515" lon="5.8013">
        <ele>588.4</ele>
        <time>2021-09-12T12:34:53Z</time>
      </trkpt>
      <trkpt lat="46.67516" lon="5.80123">
        <ele>589.2</ele>
        <time>2021-09-12T12:34:57Z</time>
      </trkpt>
      <trkpt lat="46.67517" lon="5.80116">
        <ele>590.1</ele>
        <time>2021-09-12T12:35:03Z</time>
      </trkpt>
      <trkpt lat="46.67518" lon="5.80109">
        <ele>591.5</ele>
        <time>2021-09-12T12:35:08Z</time>
      </trkpt>
      <trkpt lat="46.67521" lon="5.80104">
        <ele>592.5</ele>
        <time>2021-09-12T12:35:13Z</time>
      </trkpt>
      <trkpt lat="46.67525" lon="5.80098">
        <ele>593.6</ele>
        <time>2021-09-12T12:35:19Z</time>
      </trkpt>
      <trkpt lat="46.6752" lon="5.80101">
        <ele>597</ele>
        <time>2021-09-12T12:35:53Z</time>
      </trkpt>
      <trkpt lat="46.67525" lon="5.80099">
        <ele>601.2</ele>
        <time>2021-09-12T12:36:39Z</time>
      </trkpt>
      <trkpt lat="46.6752" lon="5.80097">
        <ele>597.6</ele>
        <time>2021-09-12T12:37:44Z</time>
      </trkpt>
      <trkpt lat="46.6752" lon="5.8009">
        <ele>594.5</ele>
        <time>2021-09-12T12:37:53Z</time>
      </trkpt>
      <trkpt lat="46.67525" lon="5.80087">
        <ele>593.3</ele>
        <time>2021-09-12T12:37:59Z</time>
      </trkpt>
      <trkpt lat="46.67528" lon="5.80081">
        <ele>594</ele>
        <time>2021-09-12T12:38:56Z</time>
      </trkpt>
      <trkpt lat="46.67533" lon="5.80077">
        <ele>594.4</ele>
        <time>2021-09-12T12:39:01Z</time>
      </trkpt>
      <trkpt lat="46.67537" lon="5.80072">
        <ele>594.6</ele>
        <time>2021-09-12T12:39:06Z</time>
      </trkpt>
      <trkpt lat="46.6754" lon="5.80066">
        <ele>594.7</ele>
        <time>2021-09-12T12:39:11Z</time>
      </trkpt>
      <trkpt lat="46.67542" lon="5.80059">
        <ele>594.8</ele>
        <time>2021-09-12T12:39:16Z</time>
      </trkpt>
      <trkpt lat="46.67545" lon="5.80052">
        <ele>595</ele>
        <time>2021-09-12T12:39:21Z</time>
      </trkpt>
      <trkpt lat="46.67548" lon="5.80046">
        <ele>595.4</ele>
        <time>2021-09-12T12:39:25Z</time>
      </trkpt>
      <trkpt lat="46.6755" lon="5.8004">
        <ele>595.9</ele>
        <time>2021-09-12T12:39:29Z</time>
      </trkpt>
      <trkpt lat="46.67551" lon="5.80032">
        <ele>595.9</ele>
        <time>2021-09-12T12:39:34Z</time>
      </trkpt>
      <trkpt lat="46.67552" lon="5.80025">
        <ele>596</ele>
        <time>2021-09-12T12:39:38Z</time>
      </trkpt>
      <trkpt lat="46.67555" lon="5.80019">
        <ele>595.7</ele>
        <time>2021-09-12T12:39:42Z</time>
      </trkpt>
      <trkpt lat="46.67557" lon="5.80012">
        <ele>595.1</ele>
        <time>2021-09-12T12:39:45Z</time>
      </trkpt>
      <trkpt lat="46.67559" lon="5.80005">
        <ele>594.6</ele>
        <time>2021-09-12T12:39:48Z</time>
      </trkpt>
      <trkpt lat="46.6756" lon="5.79997">
        <ele>594.5</ele>
        <time>2021-09-12T12:39:52Z</time>
      </trkpt>
      <trkpt lat="46.67561" lon="5.7999">
        <ele>594.8</ele>
        <time>2021-09-12T12:39:56Z</time>
      </trkpt>
      <trkpt lat="46.67564" lon="5.79985">
        <ele>594.3</ele>
        <time>2021-09-12T12:40:02Z</time>
      </trkpt>
      <trkpt lat="46.67566" lon="5.79978">
        <ele>594</ele>
        <time>2021-09-12T12:40:06Z</time>
      </trkpt>
      <trkpt lat="46.67569" lon="5.79972">
        <ele>593.8</ele>
        <time>2021-09-12T12:40:09Z</time>
      </trkpt>
      <trkpt lat="46.67573" lon="5.79969">
        <ele>594.1</ele>
        <time>2021-09-12T12:40:13Z</time>
      </trkpt>
      <trkpt lat="46.67577" lon="5.79965">
        <ele>594.8</ele>
        <time>2021-09-12T12:40:18Z</time>
      </trkpt>
      <trkpt lat="46.67582" lon="5.79961">
        <ele>594.6</ele>
        <time>2021-09-12T12:40:22Z</time>
      </trkpt>
      <trkpt lat="46.67587" lon="5.79958">
        <ele>594.4</ele>
        <time>2021-09-12T12:40:26Z</time>
      </trkpt>
      <trkpt lat="46.67591" lon="5.79956">
        <ele>594.1</ele>
        <time>2021-09-12T12:40:31Z</time>
      </trkpt>
      <trkpt lat="46.67595" lon="5.79951">
        <ele>593.5</ele>
        <time>2021-09-12T12:40:37Z</time>
      </trkpt>
      <trkpt lat="46.67599" lon="5.79947">
        <ele>593.3</ele>
        <time>2021-09-12T12:40:41Z</time>
      </trkpt>
      <trkpt lat="46.67603" lon="5.79942">
        <ele>593.5</ele>
        <time>2021-09-12T12:40:44Z</time>
      </trkpt>
      <trkpt lat="46.67607" lon="5.79937">
        <ele>594.1</ele>
        <time>2021-09-12T12:40:48Z</time>
      </trkpt>
      <trkpt lat="46.67611" lon="5.79935">
        <ele>594.7</ele>
        <time>2021-09-12T12:40:52Z</time>
      </trkpt>
      <trkpt lat="46.67617" lon="5.79934">
        <ele>595.3</ele>
        <time>2021-09-12T12:40:57Z</time>
      </trkpt>
      <trkpt lat="46.67622" lon="5.79934">
        <ele>595.2</ele>
        <time>2021-09-12T12:41:01Z</time>
      </trkpt>
      <trkpt lat="46.67626" lon="5.79931">
        <ele>594.7</ele>
        <time>2021-09-12T12:41:06Z</time>
      </trkpt>
      <trkpt lat="46.6763" lon="5.79929">
        <ele>594.7</ele>
        <time>2021-09-12T12:41:10Z</time>
      </trkpt>
      <trkpt lat="46.67634" lon="5.79925">
        <ele>594.8</ele>
        <time>2021-09-12T12:41:15Z</time>
      </trkpt>
      <trkpt lat="46.67638" lon="5.79921">
        <ele>594.5</ele>
        <time>2021-09-12T12:41:20Z</time>
      </trkpt>
      <trkpt lat="46.67642" lon="5.79916">
        <ele>594.3</ele>
        <time>2021-09-12T12:41:24Z</time>
      </trkpt>
      <trkpt lat="46.67646" lon="5.79911">
        <ele>594.1</ele>
        <time>2021-09-12T12:41:29Z</time>
      </trkpt>
      <trkpt lat="46.67649" lon="5.79905">
        <ele>594.1</ele>
        <time>2021-09-12T12:41:32Z</time>
      </trkpt>
      <trkpt lat="46.67654" lon="5.799">
        <ele>593.9</ele>
        <time>2021-09-12T12:41:36Z</time>
      </trkpt>
      <trkpt lat="46.67656" lon="5.79894">
        <ele>593.5</ele>
        <time>2021-09-12T12:41:43Z</time>
      </trkpt>
      <trkpt lat="46.67654" lon="5.79887">
        <ele>590.7</ele>
        <time>2021-09-12T12:41:54Z</time>
      </trkpt>
      <trkpt lat="46.67655" lon="5.79881">
        <ele>582.2</ele>
        <time>2021-09-12T12:42:21Z</time>
      </trkpt>
      <trkpt lat="46.67657" lon="5.79874">
        <ele>581.1</ele>
        <time>2021-09-12T12:42:27Z</time>
      </trkpt>
      <trkpt lat="46.6766" lon="5.79868">
        <ele>580.6</ele>
        <time>2021-09-12T12:42:33Z</time>
      </trkpt>
      <trkpt lat="46.67662" lon="5.79861">
        <ele>580.3</ele>
        <time>2021-09-12T12:42:39Z</time>
      </trkpt>
      <trkpt lat="46.67666" lon="5.79854">
        <ele>581.9</ele>
        <time>2021-09-12T12:42:47Z</time>
      </trkpt>
      <trkpt lat="46.67661" lon="5.79848">
        <ele>583.1</ele>
        <time>2021-09-12T12:42:50Z</time>
      </trkpt>
      <trkpt lat="46.67656" lon="5.79858">
        <ele>584.3</ele>
        <time>2021-09-12T12:42:53Z</time>
      </trkpt>
      <trkpt lat="46.67652" lon="5.79864">
        <ele>585.3</ele>
        <time>2021-09-12T12:42:56Z</time>
      </trkpt>
      <trkpt lat="46.67649" lon="5.79869">
        <ele>586.9</ele>
        <time>2021-09-12T12:43:02Z</time>
      </trkpt>
      <trkpt lat="46.67651" lon="5.79862">
        <ele>587.7</ele>
        <time>2021-09-12T12:43:05Z</time>
      </trkpt>
      <trkpt lat="46.67655" lon="5.79848">
        <ele>588.7</ele>
        <time>2021-09-12T12:43:09Z</time>
      </trkpt>
      <trkpt lat="46.67657" lon="5.79832">
        <ele>590.2</ele>
        <time>2021-09-12T12:43:12Z</time>
      </trkpt>
      <trkpt lat="46.67657" lon="5.79825">
        <ele>591.7</ele>
        <time>2021-09-12T12:43:17Z</time>
      </trkpt>
      <trkpt lat="46.67657" lon="5.79817">
        <ele>591.6</ele>
        <time>2021-09-12T12:43:20Z</time>
      </trkpt>
      <trkpt lat="46.67657" lon="5.7981">
        <ele>591.1</ele>
        <time>2021-09-12T12:43:23Z</time>
      </trkpt>
      <trkpt lat="46.67654" lon="5.79804">
        <ele>589.1</ele>
        <time>2021-09-12T12:43:28Z</time>
      </trkpt>
      <trkpt lat="46.6765" lon="5.79801">
        <ele>586.6</ele>
        <time>2021-09-12T12:43:32Z</time>
      </trkpt>
      <trkpt lat="46.67648" lon="5.79795">
        <ele>582.6</ele>
        <time>2021-09-12T12:43:40Z</time>
      </trkpt>
      <trkpt lat="46.67646" lon="5.79786">
        <ele>580.2</ele>
        <time>2021-09-12T12:43:49Z</time>
      </trkpt>
      <trkpt lat="46.67646" lon="5.79779">
        <ele>579.8</ele>
        <time>2021-09-12T12:43:55Z</time>
      </trkpt>
      <trkpt lat="46.67643" lon="5.79773">
        <ele>580.1</ele>
        <time>2021-09-12T12:44:01Z</time>
      </trkpt>
      <trkpt lat="46.67638" lon="5.7977">
        <ele>580</ele>
        <time>2021-09-12T12:44:07Z</time>
      </trkpt>
      <trkpt lat="46.67635" lon="5.79767">
        <ele>579.1</ele>
        <time>2021-09-12T12:44:13Z</time>
      </trkpt>
      <trkpt lat="46.67632" lon="5.79761">
        <ele>575.5</ele>
        <time>2021-09-12T12:44:20Z</time>
      </trkpt>
      <trkpt lat="46.67628" lon="5.79757">
        <ele>572.2</ele>
        <time>2021-09-12T12:44:27Z</time>
      </trkpt>
      <trkpt lat="46.67625" lon="5.79751">
        <ele>569.6</ele>
        <time>2021-09-12T12:44:33Z</time>
      </trkpt>
      <trkpt lat="46.67623" lon="5.79744">
        <ele>567.9</ele>
        <time>2021-09-12T12:44:38Z</time>
      </trkpt>
      <trkpt lat="46.67621" lon="5.79737">
        <ele>567</ele>
        <time>2021-09-12T12:44:42Z</time>
      </trkpt>
      <trkpt lat="46.67619" lon="5.79731">
        <ele>566.7</ele>
        <time>2021-09-12T12:44:47Z</time>
      </trkpt>
      <trkpt lat="46.67616" lon="5.79726">
        <ele>565.4</ele>
        <time>2021-09-12T12:44:56Z</time>
      </trkpt>
      <trkpt lat="46.67614" lon="5.79717">
        <ele>562.4</ele>
        <time>2021-09-12T12:45:09Z</time>
      </trkpt>
      <trkpt lat="46.67614" lon="5.79708">
        <ele>561.6</ele>
        <time>2021-09-12T12:45:13Z</time>
      </trkpt>
      <trkpt lat="46.67613" lon="5.79702">
        <ele>558.9</ele>
        <time>2021-09-12T12:45:25Z</time>
      </trkpt>
      <trkpt lat="46.67612" lon="5.79695">
        <ele>557.6</ele>
        <time>2021-09-12T12:45:31Z</time>
      </trkpt>
      <trkpt lat="46.67609" lon="5.7969">
        <ele>555.6</ele>
        <time>2021-09-12T12:45:37Z</time>
      </trkpt>
      <trkpt lat="46.67606" lon="5.79684">
        <ele>553.5</ele>
        <time>2021-09-12T12:45:43Z</time>
      </trkpt>
      <trkpt lat="46.67603" lon="5.79679">
        <ele>552.2</ele>
        <time>2021-09-12T12:45:48Z</time>
      </trkpt>
      <trkpt lat="46.676" lon="5.79674">
        <ele>550.9</ele>
        <time>2021-09-12T12:45:55Z</time>
      </trkpt>
      <trkpt lat="46.67598" lon="5.79668">
        <ele>550.1</ele>
        <time>2021-09-12T12:46:00Z</time>
      </trkpt>
      <trkpt lat="46.67595" lon="5.79662">
        <ele>549.2</ele>
        <time>2021-09-12T12:46:05Z</time>
      </trkpt>
      <trkpt lat="46.67594" lon="5.79655">
        <ele>548.5</ele>
        <time>2021-09-12T12:46:10Z</time>
      </trkpt>
      <trkpt lat="46.67592" lon="5.79649">
        <ele>548.1</ele>
        <time>2021-09-12T12:46:16Z</time>
      </trkpt>
      <trkpt lat="46.6759" lon="5.79642">
        <ele>548.3</ele>
        <time>2021-09-12T12:46:21Z</time>
      </trkpt>
      <trkpt lat="46.67588" lon="5.79635">
        <ele>548.9</ele>
        <time>2021-09-12T12:46:25Z</time>
      </trkpt>
      <trkpt lat="46.67585" lon="5.79629">
        <ele>549.9</ele>
        <time>2021-09-12T12:46:29Z</time>
      </trkpt>
      <trkpt lat="46.67584" lon="5.79623">
        <ele>551.3</ele>
        <time>2021-09-12T12:46:37Z</time>
      </trkpt>
      <trkpt lat="46.67579" lon="5.79621">
        <ele>550.4</ele>
        <time>2021-09-12T12:46:46Z</time>
      </trkpt>
      <trkpt lat="46.67578" lon="5.79614">
        <ele>549.6</ele>
        <time>2021-09-12T12:46:53Z</time>
      </trkpt>
      <trkpt lat="46.67578" lon="5.79607">
        <ele>549.4</ele>
        <time>2021-09-12T12:46:58Z</time>
      </trkpt>
      <trkpt lat="46.67578" lon="5.796">
        <ele>549.5</ele>
        <time>2021-09-12T12:47:03Z</time>
      </trkpt>
      <trkpt lat="46.67576" lon="5.79593">
        <ele>550</ele>
        <time>2021-09-12T12:47:08Z</time>
      </trkpt>
      <trkpt lat="46.67574" lon="5.79586">
        <ele>550.4</ele>
        <time>2021-09-12T12:47:15Z</time>
      </trkpt>
      <trkpt lat="46.67571" lon="5.79582">
        <ele>550.4</ele>
        <time>2021-09-12T12:47:22Z</time>
      </trkpt>
      <trkpt lat="46.67569" lon="5.79574">
        <ele>550.8</ele>
        <time>2021-09-12T12:47:26Z</time>
      </trkpt>
      <trkpt lat="46.67568" lon="5.79567">
        <ele>551.6</ele>
        <time>2021-09-12T12:47:31Z</time>
      </trkpt>
      <trkpt lat="46.67566" lon="5.79561">
        <ele>552.1</ele>
        <time>2021-09-12T12:47:37Z</time>
      </trkpt>
      <trkpt lat="46.67563" lon="5.79555">
        <ele>551.1</ele>
        <time>2021-09-12T12:47:45Z</time>
      </trkpt>
      <trkpt lat="46.67562" lon="5.79549">
        <ele>549.1</ele>
        <time>2021-09-12T12:47:51Z</time>
      </trkpt>
      <trkpt lat="46.67559" lon="5.79542">
        <ele>546.6</ele>
        <time>2021-09-12T12:47:57Z</time>
      </trkpt>
      <trkpt lat="46.67557" lon="5.79536">
        <ele>545</ele>
        <time>2021-09-12T12:48:03Z</time>
      </trkpt>
      <trkpt lat="46.67555" lon="5.7953">
        <ele>543.6</ele>
        <time>2021-09-12T12:48:08Z</time>
      </trkpt>
      <trkpt lat="46.67555" lon="5.79523">
        <ele>541.4</ele>
        <time>2021-09-12T12:48:14Z</time>
      </trkpt>
      <trkpt lat="46.67555" lon="5.79515">
        <ele>540.5</ele>
        <time>2021-09-12T12:48:19Z</time>
      </trkpt>
      <trkpt lat="46.67558" lon="5.79509">
        <ele>540.5</ele>
        <time>2021-09-12T12:48:24Z</time>
      </trkpt>
      <trkpt lat="46.67559" lon="5.79502">
        <ele>540.9</ele>
        <time>2021-09-12T12:48:28Z</time>
      </trkpt>
      <trkpt lat="46.67562" lon="5.79496">
        <ele>538.9</ele>
        <time>2021-09-12T12:48:38Z</time>
      </trkpt>
      <trkpt lat="46.67563" lon="5.79489">
        <ele>538.7</ele>
        <time>2021-09-12T12:48:42Z</time>
      </trkpt>
      <trkpt lat="46.67564" lon="5.7948">
        <ele>538.2</ele>
        <time>2021-09-12T12:48:46Z</time>
      </trkpt>
      <trkpt lat="46.67565" lon="5.79472">
        <ele>538.2</ele>
        <time>2021-09-12T12:48:49Z</time>
      </trkpt>
      <trkpt lat="46.67564" lon="5.79465">
        <ele>538.5</ele>
        <time>2021-09-12T12:48:55Z</time>
      </trkpt>
      <trkpt lat="46.6756" lon="5.7947">
        <ele>537.1</ele>
        <time>2021-09-12T12:49:06Z</time>
      </trkpt>
      <trkpt lat="46.67556" lon="5.79466">
        <ele>535.3</ele>
        <time>2021-09-12T12:49:23Z</time>
      </trkpt>
      <trkpt lat="46.6756" lon="5.79465">
        <ele>534.6</ele>
        <time>2021-09-12T12:51:07Z</time>
      </trkpt>
      <trkpt lat="46.67557" lon="5.79435">
        <ele>536.5</ele>
        <time>2021-09-12T12:51:10Z</time>
      </trkpt>
      <trkpt lat="46.67558" lon="5.79425">
        <ele>537.7</ele>
        <time>2021-09-12T12:51:13Z</time>
      </trkpt>
      <trkpt lat="46.67563" lon="5.79417">
        <ele>539.1</ele>
        <time>2021-09-12T12:51:16Z</time>
      </trkpt>
      <trkpt lat="46.67568" lon="5.79412">
        <ele>541.2</ele>
        <time>2021-09-12T12:51:20Z</time>
      </trkpt>
      <trkpt lat="46.67569" lon="5.79403">
        <ele>542.8</ele>
        <time>2021-09-12T12:51:23Z</time>
      </trkpt>
      <trkpt lat="46.67564" lon="5.794">
        <ele>544.9</ele>
        <time>2021-09-12T12:51:27Z</time>
      </trkpt>
      <trkpt lat="46.67563" lon="5.79408">
        <ele>546.5</ele>
        <time>2021-09-12T12:51:31Z</time>
      </trkpt>
      <trkpt lat="46.67562" lon="5.79419">
        <ele>547.3</ele>
        <time>2021-09-12T12:51:34Z</time>
      </trkpt>
      <trkpt lat="46.67562" lon="5.79436">
        <ele>547.1</ele>
        <time>2021-09-12T12:51:37Z</time>
      </trkpt>
      <trkpt lat="46.67561" lon="5.79447">
        <ele>546.3</ele>
        <time>2021-09-12T12:51:40Z</time>
      </trkpt>
      <trkpt lat="46.67561" lon="5.79453">
        <ele>545.2</ele>
        <time>2021-09-12T12:51:43Z</time>
      </trkpt>
      <trkpt lat="46.67559" lon="5.7946">
        <ele>542.8</ele>
        <time>2021-09-12T12:52:06Z</time>
      </trkpt>
      <trkpt lat="46.67554" lon="5.79462">
        <ele>542.6</ele>
        <time>2021-09-12T12:52:10Z</time>
      </trkpt>
      <trkpt lat="46.6755" lon="5.79466">
        <ele>542.6</ele>
        <time>2021-09-12T12:52:17Z</time>
      </trkpt>
      <trkpt lat="46.67547" lon="5.79472">
        <ele>542.1</ele>
        <time>2021-09-12T12:52:21Z</time>
      </trkpt>
      <trkpt lat="46.67551" lon="5.79476">
        <ele>540.8</ele>
        <time>2021-09-12T12:52:30Z</time>
      </trkpt>
      <trkpt lat="46.67556" lon="5.79478">
        <ele>540</ele>
        <time>2021-09-12T12:52:35Z</time>
      </trkpt>
      <trkpt lat="46.67558" lon="5.7947">
        <ele>534.4</ele>
        <time>2021-09-12T12:53:07Z</time>
      </trkpt>
      <trkpt lat="46.67556" lon="5.79476">
        <ele>530.5</ele>
        <time>2021-09-12T12:54:03Z</time>
      </trkpt>
      <trkpt lat="46.6755" lon="5.79475">
        <ele>529.1</ele>
        <time>2021-09-12T12:54:18Z</time>
      </trkpt>
      <trkpt lat="46.67545" lon="5.79475">
        <ele>528.5</ele>
        <time>2021-09-12T12:54:24Z</time>
      </trkpt>
      <trkpt lat="46.67541" lon="5.79473">
        <ele>527.6</ele>
        <time>2021-09-12T12:54:29Z</time>
      </trkpt>
      <trkpt lat="46.67536" lon="5.79472">
        <ele>527.2</ele>
        <time>2021-09-12T12:54:33Z</time>
      </trkpt>
      <trkpt lat="46.67531" lon="5.79473">
        <ele>526.8</ele>
        <time>2021-09-12T12:54:37Z</time>
      </trkpt>
      <trkpt lat="46.67526" lon="5.79472">
        <ele>526.8</ele>
        <time>2021-09-12T12:54:42Z</time>
      </trkpt>
      <trkpt lat="46.67521" lon="5.79468">
        <ele>526.7</ele>
        <time>2021-09-12T12:54:49Z</time>
      </trkpt>
      <trkpt lat="46.67517" lon="5.79464">
        <ele>526.4</ele>
        <time>2021-09-12T12:54:54Z</time>
      </trkpt>
      <trkpt lat="46.67512" lon="5.79461">
        <ele>526</ele>
        <time>2021-09-12T12:54:58Z</time>
      </trkpt>
      <trkpt lat="46.67507" lon="5.79458">
        <ele>525.8</ele>
        <time>2021-09-12T12:55:03Z</time>
      </trkpt>
      <trkpt lat="46.67503" lon="5.79456">
        <ele>525.8</ele>
        <time>2021-09-12T12:55:08Z</time>
      </trkpt>
      <trkpt lat="46.67498" lon="5.79457">
        <ele>525.4</ele>
        <time>2021-09-12T12:55:12Z</time>
      </trkpt>
      <trkpt lat="46.67494" lon="5.79454">
        <ele>525.2</ele>
        <time>2021-09-12T12:55:17Z</time>
      </trkpt>
      <trkpt lat="46.67493" lon="5.79448">
        <ele>524.7</ele>
        <time>2021-09-12T12:55:24Z</time>
      </trkpt>
      <trkpt lat="46.67494" lon="5.7944">
        <ele>524.1</ele>
        <time>2021-09-12T12:55:32Z</time>
      </trkpt>
      <trkpt lat="46.67495" lon="5.79433">
        <ele>523.4</ele>
        <time>2021-09-12T12:55:38Z</time>
      </trkpt>
      <trkpt lat="46.67496" lon="5.79426">
        <ele>522.3</ele>
        <time>2021-09-12T12:55:44Z</time>
      </trkpt>
      <trkpt lat="46.67497" lon="5.79419">
        <ele>521.3</ele>
        <time>2021-09-12T12:55:50Z</time>
      </trkpt>
      <trkpt lat="46.67497" lon="5.79412">
        <ele>519.9</ele>
        <time>2021-09-12T12:55:58Z</time>
      </trkpt>
      <trkpt lat="46.675" lon="5.79405">
        <ele>518.9</ele>
        <time>2021-09-12T12:56:05Z</time>
      </trkpt>
      <trkpt lat="46.67501" lon="5.79398">
        <ele>518.5</ele>
        <time>2021-09-12T12:56:10Z</time>
      </trkpt>
      <trkpt lat="46.67502" lon="5.79391">
        <ele>518.4</ele>
        <time>2021-09-12T12:56:16Z</time>
      </trkpt>
      <trkpt lat="46.67504" lon="5.79384">
        <ele>519</ele>
        <time>2021-09-12T12:56:21Z</time>
      </trkpt>
      <trkpt lat="46.67506" lon="5.79378">
        <ele>519.8</ele>
        <time>2021-09-12T12:56:26Z</time>
      </trkpt>
      <trkpt lat="46.67506" lon="5.79371">
        <ele>520</ele>
        <time>2021-09-12T12:56:32Z</time>
      </trkpt>
      <trkpt lat="46.67506" lon="5.79364">
        <ele>519.6</ele>
        <time>2021-09-12T12:56:39Z</time>
      </trkpt>
      <trkpt lat="46.67507" lon="5.79356">
        <ele>519</ele>
        <time>2021-09-12T12:56:44Z</time>
      </trkpt>
      <trkpt lat="46.67509" lon="5.7935">
        <ele>518.4</ele>
        <time>2021-09-12T12:56:48Z</time>
      </trkpt>
      <trkpt lat="46.67511" lon="5.79344">
        <ele>517.5</ele>
        <time>2021-09-12T12:56:52Z</time>
      </trkpt>
      <trkpt lat="46.67512" lon="5.79337">
        <ele>516.4</ele>
        <time>2021-09-12T12:56:58Z</time>
      </trkpt>
      <trkpt lat="46.67515" lon="5.7933">
        <ele>515.3</ele>
        <time>2021-09-12T12:57:04Z</time>
      </trkpt>
      <trkpt lat="46.67515" lon="5.79323">
        <ele>514</ele>
        <time>2021-09-12T12:57:10Z</time>
      </trkpt>
      <trkpt lat="46.67516" lon="5.79316">
        <ele>513.3</ele>
        <time>2021-09-12T12:57:14Z</time>
      </trkpt>
      <trkpt lat="46.67518" lon="5.7931">
        <ele>513</ele>
        <time>2021-09-12T12:57:17Z</time>
      </trkpt>
      <trkpt lat="46.6752" lon="5.79303">
        <ele>512.4</ele>
        <time>2021-09-12T12:57:21Z</time>
      </trkpt>
      <trkpt lat="46.67523" lon="5.79296">
        <ele>511.3</ele>
        <time>2021-09-12T12:57:27Z</time>
      </trkpt>
      <trkpt lat="46.67525" lon="5.7929">
        <ele>510</ele>
        <time>2021-09-12T12:57:33Z</time>
      </trkpt>
      <trkpt lat="46.67527" lon="5.79284">
        <ele>507.8</ele>
        <time>2021-09-12T12:57:40Z</time>
      </trkpt>
      <trkpt lat="46.67528" lon="5.79277">
        <ele>505.8</ele>
        <time>2021-09-12T12:57:45Z</time>
      </trkpt>
      <trkpt lat="46.67528" lon="5.79268">
        <ele>503.8</ele>
        <time>2021-09-12T12:57:50Z</time>
      </trkpt>
      <trkpt lat="46.67529" lon="5.79261">
        <ele>502.1</ele>
        <time>2021-09-12T12:57:54Z</time>
      </trkpt>
      <trkpt lat="46.6753" lon="5.79254">
        <ele>500.6</ele>
        <time>2021-09-12T12:57:58Z</time>
      </trkpt>
      <trkpt lat="46.6753" lon="5.79247">
        <ele>500</ele>
        <time>2021-09-12T12:58:02Z</time>
      </trkpt>
      <trkpt lat="46.6753" lon="5.79238">
        <ele>500.1</ele>
        <time>2021-09-12T12:58:07Z</time>
      </trkpt>
      <trkpt lat="46.67531" lon="5.79231">
        <ele>500.8</ele>
        <time>2021-09-12T12:58:12Z</time>
      </trkpt>
      <trkpt lat="46.67533" lon="5.79223">
        <ele>501.7</ele>
        <time>2021-09-12T12:58:17Z</time>
      </trkpt>
      <trkpt lat="46.67535" lon="5.79216">
        <ele>502.6</ele>
        <time>2021-09-12T12:58:21Z</time>
      </trkpt>
      <trkpt lat="46.67538" lon="5.79209">
        <ele>502.9</ele>
        <time>2021-09-12T12:58:24Z</time>
      </trkpt>
      <trkpt lat="46.67539" lon="5.79203">
        <ele>503.1</ele>
        <time>2021-09-12T12:58:29Z</time>
      </trkpt>
      <trkpt lat="46.6754" lon="5.79195">
        <ele>503.5</ele>
        <time>2021-09-12T12:58:34Z</time>
      </trkpt>
      <trkpt lat="46.67541" lon="5.79189">
        <ele>503.6</ele>
        <time>2021-09-12T12:58:38Z</time>
      </trkpt>
      <trkpt lat="46.67545" lon="5.79183">
        <ele>503.4</ele>
        <time>2021-09-12T12:58:45Z</time>
      </trkpt>
      <trkpt lat="46.67547" lon="5.79177">
        <ele>502.8</ele>
        <time>2021-09-12T12:58:50Z</time>
      </trkpt>
      <trkpt lat="46.67549" lon="5.7917">
        <ele>502.6</ele>
        <time>2021-09-12T12:58:55Z</time>
      </trkpt>
      <trkpt lat="46.67551" lon="5.79162">
        <ele>502.5</ele>
        <time>2021-09-12T12:59:00Z</time>
      </trkpt>
      <trkpt lat="46.67552" lon="5.79156">
        <ele>502.6</ele>
        <time>2021-09-12T12:59:05Z</time>
      </trkpt>
      <trkpt lat="46.67554" lon="5.79149">
        <ele>502.2</ele>
        <time>2021-09-12T12:59:09Z</time>
      </trkpt>
      <trkpt lat="46.67557" lon="5.79142">
        <ele>501.8</ele>
        <time>2021-09-12T12:59:13Z</time>
      </trkpt>
      <trkpt lat="46.67559" lon="5.79136">
        <ele>502.3</ele>
        <time>2021-09-12T12:59:18Z</time>
      </trkpt>
      <trkpt lat="46.67561" lon="5.79129">
        <ele>502.7</ele>
        <time>2021-09-12T12:59:22Z</time>
      </trkpt>
      <trkpt lat="46.67564" lon="5.79122">
        <ele>503.5</ele>
        <time>2021-09-12T12:59:27Z</time>
      </trkpt>
      <trkpt lat="46.67567" lon="5.79117">
        <ele>504.4</ele>
        <time>2021-09-12T12:59:31Z</time>
      </trkpt>
      <trkpt lat="46.67569" lon="5.79111">
        <ele>505.1</ele>
        <time>2021-09-12T12:59:35Z</time>
      </trkpt>
      <trkpt lat="46.67571" lon="5.79104">
        <ele>505.8</ele>
        <time>2021-09-12T12:59:39Z</time>
      </trkpt>
      <trkpt lat="46.67573" lon="5.79098">
        <ele>506.6</ele>
        <time>2021-09-12T12:59:44Z</time>
      </trkpt>
      <trkpt lat="46.67575" lon="5.79091">
        <ele>507.5</ele>
        <time>2021-09-12T12:59:49Z</time>
      </trkpt>
      <trkpt lat="46.67578" lon="5.79085">
        <ele>507.7</ele>
        <time>2021-09-12T12:59:53Z</time>
      </trkpt>
      <trkpt lat="46.67581" lon="5.79079">
        <ele>507.6</ele>
        <time>2021-09-12T12:59:57Z</time>
      </trkpt>
      <trkpt lat="46.67584" lon="5.79074">
        <ele>507.2</ele>
        <time>2021-09-12T13:00:02Z</time>
      </trkpt>
      <trkpt lat="46.67588" lon="5.79072">
        <ele>506.5</ele>
        <time>2021-09-12T13:00:08Z</time>
      </trkpt>
      <trkpt lat="46.67593" lon="5.79068">
        <ele>506.7</ele>
        <time>2021-09-12T13:00:14Z</time>
      </trkpt>
      <trkpt lat="46.67597" lon="5.79064">
        <ele>507.1</ele>
        <time>2021-09-12T13:00:19Z</time>
      </trkpt>
      <trkpt lat="46.676" lon="5.79058">
        <ele>507.4</ele>
        <time>2021-09-12T13:00:24Z</time>
      </trkpt>
      <trkpt lat="46.67604" lon="5.79055">
        <ele>507.5</ele>
        <time>2021-09-12T13:00:28Z</time>
      </trkpt>
      <trkpt lat="46.67609" lon="5.79052">
        <ele>507.7</ele>
        <time>2021-09-12T13:00:32Z</time>
      </trkpt>
      <trkpt lat="46.67611" lon="5.79046">
        <ele>508.4</ele>
        <time>2021-09-12T13:00:39Z</time>
      </trkpt>
      <trkpt lat="46.67615" lon="5.7904">
        <ele>509.1</ele>
        <time>2021-09-12T13:00:45Z</time>
      </trkpt>
      <trkpt lat="46.67619" lon="5.79036">
        <ele>509.6</ele>
        <time>2021-09-12T13:00:49Z</time>
      </trkpt>
      <trkpt lat="46.67622" lon="5.79029">
        <ele>509.8</ele>
        <time>2021-09-12T13:00:54Z</time>
      </trkpt>
      <trkpt lat="46.67624" lon="5.79023">
        <ele>509.6</ele>
        <time>2021-09-12T13:00:59Z</time>
      </trkpt>
      <trkpt lat="46.67626" lon="5.79016">
        <ele>508.3</ele>
        <time>2021-09-12T13:01:04Z</time>
      </trkpt>
      <trkpt lat="46.67627" lon="5.79009">
        <ele>507.3</ele>
        <time>2021-09-12T13:01:09Z</time>
      </trkpt>
      <trkpt lat="46.67628" lon="5.79002">
        <ele>506.4</ele>
        <time>2021-09-12T13:01:14Z</time>
      </trkpt>
      <trkpt lat="46.6763" lon="5.78996">
        <ele>506.1</ele>
        <time>2021-09-12T13:01:18Z</time>
      </trkpt>
      <trkpt lat="46.67633" lon="5.7899">
        <ele>505.9</ele>
        <time>2021-09-12T13:01:21Z</time>
      </trkpt>
      <trkpt lat="46.67635" lon="5.78984">
        <ele>505.4</ele>
        <time>2021-09-12T13:01:25Z</time>
      </trkpt>
      <trkpt lat="46.67637" lon="5.78977">
        <ele>504.7</ele>
        <time>2021-09-12T13:01:30Z</time>
      </trkpt>
      <trkpt lat="46.6764" lon="5.78971">
        <ele>504.7</ele>
        <time>2021-09-12T13:01:36Z</time>
      </trkpt>
      <trkpt lat="46.67643" lon="5.78965">
        <ele>504.6</ele>
        <time>2021-09-12T13:01:42Z</time>
      </trkpt>
      <trkpt lat="46.67646" lon="5.78959">
        <ele>504.7</ele>
        <time>2021-09-12T13:01:49Z</time>
      </trkpt>
      <trkpt lat="46.67649" lon="5.78954">
        <ele>504.8</ele>
        <time>2021-09-12T13:01:53Z</time>
      </trkpt>
      <trkpt lat="46.67652" lon="5.78948">
        <ele>505.5</ele>
        <time>2021-09-12T13:01:58Z</time>
      </trkpt>
      <trkpt lat="46.67654" lon="5.78942">
        <ele>506</ele>
        <time>2021-09-12T13:02:02Z</time>
      </trkpt>
      <trkpt lat="46.67658" lon="5.78936">
        <ele>506.4</ele>
        <time>2021-09-12T13:02:06Z</time>
      </trkpt>
      <trkpt lat="46.6766" lon="5.78929">
        <ele>506.9</ele>
        <time>2021-09-12T13:02:10Z</time>
      </trkpt>
      <trkpt lat="46.67663" lon="5.78923">
        <ele>507.3</ele>
        <time>2021-09-12T13:02:14Z</time>
      </trkpt>
      <trkpt lat="46.67667" lon="5.78919">
        <ele>507.8</ele>
        <time>2021-09-12T13:02:19Z</time>
      </trkpt>
      <trkpt lat="46.67668" lon="5.78911">
        <ele>507.3</ele>
        <time>2021-09-12T13:02:44Z</time>
      </trkpt>
      <trkpt lat="46.6767" lon="5.78906">
        <ele>509.4</ele>
        <time>2021-09-12T13:03:13Z</time>
      </trkpt>
      <trkpt lat="46.67673" lon="5.78899">
        <ele>509.8</ele>
        <time>2021-09-12T13:03:19Z</time>
      </trkpt>
      <trkpt lat="46.67676" lon="5.78894">
        <ele>509.9</ele>
        <time>2021-09-12T13:03:23Z</time>
      </trkpt>
      <trkpt lat="46.6768" lon="5.78888">
        <ele>509.7</ele>
        <time>2021-09-12T13:03:28Z</time>
      </trkpt>
      <trkpt lat="46.67682" lon="5.78881">
        <ele>510</ele>
        <time>2021-09-12T13:03:34Z</time>
      </trkpt>
      <trkpt lat="46.67686" lon="5.78876">
        <ele>509.7</ele>
        <time>2021-09-12T13:03:39Z</time>
      </trkpt>
      <trkpt lat="46.6769" lon="5.78872">
        <ele>507.9</ele>
        <time>2021-09-12T13:03:44Z</time>
      </trkpt>
      <trkpt lat="46.67694" lon="5.78866">
        <ele>506.7</ele>
        <time>2021-09-12T13:03:49Z</time>
      </trkpt>
      <trkpt lat="46.67697" lon="5.7886">
        <ele>506.3</ele>
        <time>2021-09-12T13:03:53Z</time>
      </trkpt>
      <trkpt lat="46.677" lon="5.78852">
        <ele>505.9</ele>
        <time>2021-09-12T13:03:57Z</time>
      </trkpt>
      <trkpt lat="46.67702" lon="5.78846">
        <ele>505.6</ele>
        <time>2021-09-12T13:04:01Z</time>
      </trkpt>
      <trkpt lat="46.67705" lon="5.7884">
        <ele>505.4</ele>
        <time>2021-09-12T13:04:05Z</time>
      </trkpt>
      <trkpt lat="46.67706" lon="5.78833">
        <ele>505.3</ele>
        <time>2021-09-12T13:04:10Z</time>
      </trkpt>
      <trkpt lat="46.67708" lon="5.78826">
        <ele>505.3</ele>
        <time>2021-09-12T13:04:14Z</time>
      </trkpt>
      <trkpt lat="46.6771" lon="5.78819">
        <ele>505.1</ele>
        <time>2021-09-12T13:04:18Z</time>
      </trkpt>
      <trkpt lat="46.67712" lon="5.78812">
        <ele>504.8</ele>
        <time>2021-09-12T13:04:23Z</time>
      </trkpt>
      <trkpt lat="46.67713" lon="5.78804">
        <ele>505.2</ele>
        <time>2021-09-12T13:04:28Z</time>
      </trkpt>
      <trkpt lat="46.67714" lon="5.78797">
        <ele>506.3</ele>
        <time>2021-09-12T13:04:33Z</time>
      </trkpt>
      <trkpt lat="46.67715" lon="5.7879">
        <ele>507.6</ele>
        <time>2021-09-12T13:04:38Z</time>
      </trkpt>
      <trkpt lat="46.67714" lon="5.78784">
        <ele>508.1</ele>
        <time>2021-09-12T13:04:42Z</time>
      </trkpt>
      <trkpt lat="46.67714" lon="5.78777">
        <ele>508.3</ele>
        <time>2021-09-12T13:04:45Z</time>
      </trkpt>
      <trkpt lat="46.67714" lon="5.78769">
        <ele>508.5</ele>
        <time>2021-09-12T13:04:49Z</time>
      </trkpt>
      <trkpt lat="46.67714" lon="5.78762">
        <ele>508.6</ele>
        <time>2021-09-12T13:04:53Z</time>
      </trkpt>
      <trkpt lat="46.67715" lon="5.78754">
        <ele>508.3</ele>
        <time>2021-09-12T13:04:57Z</time>
      </trkpt>
      <trkpt lat="46.67715" lon="5.78747">
        <ele>507.7</ele>
        <time>2021-09-12T13:05:01Z</time>
      </trkpt>
      <trkpt lat="46.67715" lon="5.78741">
        <ele>507.3</ele>
        <time>2021-09-12T13:05:05Z</time>
      </trkpt>
      <trkpt lat="46.67715" lon="5.78733">
        <ele>507.3</ele>
        <time>2021-09-12T13:05:10Z</time>
      </trkpt>
      <trkpt lat="46.67714" lon="5.78725">
        <ele>506.9</ele>
        <time>2021-09-12T13:05:16Z</time>
      </trkpt>
      <trkpt lat="46.67716" lon="5.78718">
        <ele>506.1</ele>
        <time>2021-09-12T13:05:20Z</time>
      </trkpt>
      <trkpt lat="46.67717" lon="5.78712">
        <ele>504.7</ele>
        <time>2021-09-12T13:05:24Z</time>
      </trkpt>
      <trkpt lat="46.67719" lon="5.78705">
        <ele>503.3</ele>
        <time>2021-09-12T13:05:28Z</time>
      </trkpt>
      <trkpt lat="46.6772" lon="5.78697">
        <ele>502</ele>
        <time>2021-09-12T13:05:32Z</time>
      </trkpt>
      <trkpt lat="46.67721" lon="5.7869">
        <ele>501.3</ele>
        <time>2021-09-12T13:05:36Z</time>
      </trkpt>
      <trkpt lat="46.67722" lon="5.78683">
        <ele>500.4</ele>
        <time>2021-09-12T13:05:40Z</time>
      </trkpt>
      <trkpt lat="46.67723" lon="5.78676">
        <ele>499.2</ele>
        <time>2021-09-12T13:05:44Z</time>
      </trkpt>
      <trkpt lat="46.67723" lon="5.78669">
        <ele>498.3</ele>
        <time>2021-09-12T13:05:48Z</time>
      </trkpt>
      <trkpt lat="46.67723" lon="5.78662">
        <ele>498.2</ele>
        <time>2021-09-12T13:05:52Z</time>
      </trkpt>
      <trkpt lat="46.67723" lon="5.78654">
        <ele>498.6</ele>
        <time>2021-09-12T13:05:56Z</time>
      </trkpt>
      <trkpt lat="46.67721" lon="5.78647">
        <ele>499</ele>
        <time>2021-09-12T13:06:00Z</time>
      </trkpt>
      <trkpt lat="46.67721" lon="5.7864">
        <ele>499.8</ele>
        <time>2021-09-12T13:06:04Z</time>
      </trkpt>
      <trkpt lat="46.67723" lon="5.78632">
        <ele>500.8</ele>
        <time>2021-09-12T13:06:09Z</time>
      </trkpt>
      <trkpt lat="46.67724" lon="5.78625">
        <ele>501.2</ele>
        <time>2021-09-12T13:06:12Z</time>
      </trkpt>
      <trkpt lat="46.67724" lon="5.78617">
        <ele>501.3</ele>
        <time>2021-09-12T13:06:16Z</time>
      </trkpt>
      <trkpt lat="46.67725" lon="5.7861">
        <ele>501.6</ele>
        <time>2021-09-12T13:06:20Z</time>
      </trkpt>
      <trkpt lat="46.67726" lon="5.78603">
        <ele>501.9</ele>
        <time>2021-09-12T13:06:24Z</time>
      </trkpt>
      <trkpt lat="46.67726" lon="5.78596">
        <ele>501.1</ele>
        <time>2021-09-12T13:06:29Z</time>
      </trkpt>
      <trkpt lat="46.67729" lon="5.7859">
        <ele>499.8</ele>
        <time>2021-09-12T13:06:34Z</time>
      </trkpt>
      <trkpt lat="46.67731" lon="5.78583">
        <ele>499.2</ele>
        <time>2021-09-12T13:06:38Z</time>
      </trkpt>
      <trkpt lat="46.67732" lon="5.78576">
        <ele>498.2</ele>
        <time>2021-09-12T13:06:42Z</time>
      </trkpt>
      <trkpt lat="46.67732" lon="5.78568">
        <ele>497.2</ele>
        <time>2021-09-12T13:06:47Z</time>
      </trkpt>
      <trkpt lat="46.67732" lon="5.7856">
        <ele>496.7</ele>
        <time>2021-09-12T13:06:51Z</time>
      </trkpt>
      <trkpt lat="46.67732" lon="5.78553">
        <ele>496.8</ele>
        <time>2021-09-12T13:06:55Z</time>
      </trkpt>
      <trkpt lat="46.67733" lon="5.78545">
        <ele>497.1</ele>
        <time>2021-09-12T13:07:00Z</time>
      </trkpt>
      <trkpt lat="46.67735" lon="5.78538">
        <ele>496.5</ele>
        <time>2021-09-12T13:07:05Z</time>
      </trkpt>
      <trkpt lat="46.67736" lon="5.78531">
        <ele>496.2</ele>
        <time>2021-09-12T13:07:09Z</time>
      </trkpt>
      <trkpt lat="46.67737" lon="5.78523">
        <ele>496.1</ele>
        <time>2021-09-12T13:07:13Z</time>
      </trkpt>
      <trkpt lat="46.67738" lon="5.78517">
        <ele>495.9</ele>
        <time>2021-09-12T13:07:17Z</time>
      </trkpt>
      <trkpt lat="46.67739" lon="5.78509">
        <ele>495.9</ele>
        <time>2021-09-12T13:07:22Z</time>
      </trkpt>
      <trkpt lat="46.67741" lon="5.78502">
        <ele>496.1</ele>
        <time>2021-09-12T13:07:27Z</time>
      </trkpt>
      <trkpt lat="46.67743" lon="5.78495">
        <ele>496.7</ele>
        <time>2021-09-12T13:07:31Z</time>
      </trkpt>
      <trkpt lat="46.67746" lon="5.78487">
        <ele>497.4</ele>
        <time>2021-09-12T13:07:35Z</time>
      </trkpt>
      <trkpt lat="46.67748" lon="5.78481">
        <ele>497.8</ele>
        <time>2021-09-12T13:07:38Z</time>
      </trkpt>
      <trkpt lat="46.6775" lon="5.78475">
        <ele>498.4</ele>
        <time>2021-09-12T13:07:41Z</time>
      </trkpt>
      <trkpt lat="46.67752" lon="5.78467">
        <ele>499.6</ele>
        <time>2021-09-12T13:07:45Z</time>
      </trkpt>
      <trkpt lat="46.67754" lon="5.7846">
        <ele>500.4</ele>
        <time>2021-09-12T13:07:49Z</time>
      </trkpt>
      <trkpt lat="46.67755" lon="5.78454">
        <ele>500.9</ele>
        <time>2021-09-12T13:07:53Z</time>
      </trkpt>
      <trkpt lat="46.67756" lon="5.78447">
        <ele>501</ele>
        <time>2021-09-12T13:07:57Z</time>
      </trkpt>
      <trkpt lat="46.67758" lon="5.78439">
        <ele>500.6</ele>
        <time>2021-09-12T13:08:01Z</time>
      </trkpt>
      <trkpt lat="46.6776" lon="5.78432">
        <ele>500.5</ele>
        <time>2021-09-12T13:08:05Z</time>
      </trkpt>
      <trkpt lat="46.67762" lon="5.78426">
        <ele>500.8</ele>
        <time>2021-09-12T13:08:09Z</time>
      </trkpt>
      <trkpt lat="46.67764" lon="5.78419">
        <ele>501.2</ele>
        <time>2021-09-12T13:08:13Z</time>
      </trkpt>
      <trkpt lat="46.67767" lon="5.78414">
        <ele>501.8</ele>
        <time>2021-09-12T13:08:17Z</time>
      </trkpt>
      <trkpt lat="46.6777" lon="5.78407">
        <ele>502.7</ele>
        <time>2021-09-12T13:08:21Z</time>
      </trkpt>
      <trkpt lat="46.67771" lon="5.784">
        <ele>503.3</ele>
        <time>2021-09-12T13:08:25Z</time>
      </trkpt>
      <trkpt lat="46.67774" lon="5.78393">
        <ele>503.4</ele>
        <time>2021-09-12T13:08:30Z</time>
      </trkpt>
      <trkpt lat="46.67776" lon="5.78386">
        <ele>503.5</ele>
        <time>2021-09-12T13:08:34Z</time>
      </trkpt>
      <trkpt lat="46.6778" lon="5.7838">
        <ele>503.9</ele>
        <time>2021-09-12T13:08:38Z</time>
      </trkpt>
      <trkpt lat="46.67784" lon="5.78376">
        <ele>504.1</ele>
        <time>2021-09-12T13:08:42Z</time>
      </trkpt>
      <trkpt lat="46.67788" lon="5.78371">
        <ele>504.2</ele>
        <time>2021-09-12T13:08:47Z</time>
      </trkpt>
      <trkpt lat="46.67791" lon="5.78366">
        <ele>504.3</ele>
        <time>2021-09-12T13:08:51Z</time>
      </trkpt>
      <trkpt lat="46.67794" lon="5.78359">
        <ele>504.1</ele>
        <time>2021-09-12T13:08:56Z</time>
      </trkpt>
      <trkpt lat="46.67797" lon="5.78353">
        <ele>503.4</ele>
        <time>2021-09-12T13:09:01Z</time>
      </trkpt>
      <trkpt lat="46.678" lon="5.78346">
        <ele>503.1</ele>
        <time>2021-09-12T13:09:06Z</time>
      </trkpt>
      <trkpt lat="46.67803" lon="5.78341">
        <ele>503.2</ele>
        <time>2021-09-12T13:09:10Z</time>
      </trkpt>
      <trkpt lat="46.67806" lon="5.78336">
        <ele>503.7</ele>
        <time>2021-09-12T13:09:15Z</time>
      </trkpt>
      <trkpt lat="46.6781" lon="5.7833">
        <ele>503.4</ele>
        <time>2021-09-12T13:09:21Z</time>
      </trkpt>
      <trkpt lat="46.67815" lon="5.78324">
        <ele>503.5</ele>
        <time>2021-09-12T13:09:25Z</time>
      </trkpt>
      <trkpt lat="46.67818" lon="5.78318">
        <ele>503.9</ele>
        <time>2021-09-12T13:09:29Z</time>
      </trkpt>
      <trkpt lat="46.67822" lon="5.78312">
        <ele>503.9</ele>
        <time>2021-09-12T13:09:33Z</time>
      </trkpt>
      <trkpt lat="46.67826" lon="5.78308">
        <ele>503.5</ele>
        <time>2021-09-12T13:09:38Z</time>
      </trkpt>
      <trkpt lat="46.6783" lon="5.78304">
        <ele>503.3</ele>
        <time>2021-09-12T13:09:42Z</time>
      </trkpt>
      <trkpt lat="46.67833" lon="5.78299">
        <ele>503.3</ele>
        <time>2021-09-12T13:09:46Z</time>
      </trkpt>
      <trkpt lat="46.67837" lon="5.78295">
        <ele>503.4</ele>
        <time>2021-09-12T13:09:50Z</time>
      </trkpt>
      <trkpt lat="46.67842" lon="5.78291">
        <ele>503.3</ele>
        <time>2021-09-12T13:09:55Z</time>
      </trkpt>
      <trkpt lat="46.67846" lon="5.78287">
        <ele>502.5</ele>
        <time>2021-09-12T13:10:00Z</time>
      </trkpt>
      <trkpt lat="46.67851" lon="5.78284">
        <ele>501.4</ele>
        <time>2021-09-12T13:10:05Z</time>
      </trkpt>
      <trkpt lat="46.67855" lon="5.7828">
        <ele>499.6</ele>
        <time>2021-09-12T13:10:10Z</time>
      </trkpt>
      <trkpt lat="46.67859" lon="5.78276">
        <ele>498.5</ele>
        <time>2021-09-12T13:10:14Z</time>
      </trkpt>
      <trkpt lat="46.67863" lon="5.78272">
        <ele>497.8</ele>
        <time>2021-09-12T13:10:18Z</time>
      </trkpt>
      <trkpt lat="46.67866" lon="5.78267">
        <ele>497.1</ele>
        <time>2021-09-12T13:10:23Z</time>
      </trkpt>
      <trkpt lat="46.6787" lon="5.78262">
        <ele>496.9</ele>
        <time>2021-09-12T13:10:27Z</time>
      </trkpt>
      <trkpt lat="46.67873" lon="5.78257">
        <ele>496.5</ele>
        <time>2021-09-12T13:10:31Z</time>
      </trkpt>
      <trkpt lat="46.67877" lon="5.78251">
        <ele>495.9</ele>
        <time>2021-09-12T13:10:36Z</time>
      </trkpt>
      <trkpt lat="46.67879" lon="5.78245">
        <ele>495</ele>
        <time>2021-09-12T13:10:41Z</time>
      </trkpt>
      <trkpt lat="46.67881" lon="5.78238">
        <ele>494.2</ele>
        <time>2021-09-12T13:10:46Z</time>
      </trkpt>
      <trkpt lat="46.67883" lon="5.78232">
        <ele>493.6</ele>
        <time>2021-09-12T13:10:51Z</time>
      </trkpt>
      <trkpt lat="46.67886" lon="5.78226">
        <ele>493.5</ele>
        <time>2021-09-12T13:10:57Z</time>
      </trkpt>
      <trkpt lat="46.67888" lon="5.78219">
        <ele>493.3</ele>
        <time>2021-09-12T13:11:05Z</time>
      </trkpt>
      <trkpt lat="46.67891" lon="5.78214">
        <ele>495</ele>
        <time>2021-09-12T13:11:34Z</time>
      </trkpt>
      <trkpt lat="46.67892" lon="5.78207">
        <ele>496.1</ele>
        <time>2021-09-12T13:11:39Z</time>
      </trkpt>
      <trkpt lat="46.67893" lon="5.782">
        <ele>496.6</ele>
        <time>2021-09-12T13:11:45Z</time>
      </trkpt>
      <trkpt lat="46.67894" lon="5.78193">
        <ele>496.4</ele>
        <time>2021-09-12T13:11:51Z</time>
      </trkpt>
      <trkpt lat="46.67895" lon="5.78186">
        <ele>495.6</ele>
        <time>2021-09-12T13:11:59Z</time>
      </trkpt>
      <trkpt lat="46.67898" lon="5.7818">
        <ele>495.1</ele>
        <time>2021-09-12T13:12:04Z</time>
      </trkpt>
      <trkpt lat="46.67901" lon="5.78173">
        <ele>494.5</ele>
        <time>2021-09-12T13:12:08Z</time>
      </trkpt>
      <trkpt lat="46.67902" lon="5.78166">
        <ele>494.2</ele>
        <time>2021-09-12T13:12:13Z</time>
      </trkpt>
      <trkpt lat="46.67902" lon="5.78159">
        <ele>493.5</ele>
        <time>2021-09-12T13:12:19Z</time>
      </trkpt>
      <trkpt lat="46.67903" lon="5.78151">
        <ele>492.3</ele>
        <time>2021-09-12T13:12:24Z</time>
      </trkpt>
      <trkpt lat="46.67904" lon="5.78144">
        <ele>491.3</ele>
        <time>2021-09-12T13:12:28Z</time>
      </trkpt>
      <trkpt lat="46.67903" lon="5.78137">
        <ele>490.4</ele>
        <time>2021-09-12T13:12:32Z</time>
      </trkpt>
      <trkpt lat="46.67902" lon="5.7813">
        <ele>489.4</ele>
        <time>2021-09-12T13:12:37Z</time>
      </trkpt>
      <trkpt lat="46.67902" lon="5.78123">
        <ele>488.4</ele>
        <time>2021-09-12T13:12:42Z</time>
      </trkpt>
      <trkpt lat="46.67901" lon="5.78116">
        <ele>487.4</ele>
        <time>2021-09-12T13:12:47Z</time>
      </trkpt>
      <trkpt lat="46.67902" lon="5.78109">
        <ele>486.6</ele>
        <time>2021-09-12T13:12:52Z</time>
      </trkpt>
      <trkpt lat="46.67902" lon="5.78102">
        <ele>485.6</ele>
        <time>2021-09-12T13:12:57Z</time>
      </trkpt>
      <trkpt lat="46.67902" lon="5.78095">
        <ele>484.8</ele>
        <time>2021-09-12T13:13:01Z</time>
      </trkpt>
      <trkpt lat="46.67904" lon="5.78089">
        <ele>484.2</ele>
        <time>2021-09-12T13:13:05Z</time>
      </trkpt>
      <trkpt lat="46.67906" lon="5.78082">
        <ele>483.6</ele>
        <time>2021-09-12T13:13:10Z</time>
      </trkpt>
      <trkpt lat="46.67908" lon="5.78075">
        <ele>482.9</ele>
        <time>2021-09-12T13:13:15Z</time>
      </trkpt>
      <trkpt lat="46.67911" lon="5.78068">
        <ele>482.3</ele>
        <time>2021-09-12T13:13:20Z</time>
      </trkpt>
      <trkpt lat="46.67913" lon="5.78062">
        <ele>481.6</ele>
        <time>2021-09-12T13:13:25Z</time>
      </trkpt>
      <trkpt lat="46.67915" lon="5.78055">
        <ele>481.7</ele>
        <time>2021-09-12T13:13:29Z</time>
      </trkpt>
      <trkpt lat="46.67917" lon="5.78048">
        <ele>481.9</ele>
        <time>2021-09-12T13:13:33Z</time>
      </trkpt>
      <trkpt lat="46.6792" lon="5.78041">
        <ele>482</ele>
        <time>2021-09-12T13:13:38Z</time>
      </trkpt>
      <trkpt lat="46.67923" lon="5.78035">
        <ele>482.2</ele>
        <time>2021-09-12T13:13:42Z</time>
      </trkpt>
      <trkpt lat="46.67926" lon="5.78029">
        <ele>482.3</ele>
        <time>2021-09-12T13:13:46Z</time>
      </trkpt>
      <trkpt lat="46.67928" lon="5.78022">
        <ele>482.6</ele>
        <time>2021-09-12T13:13:51Z</time>
      </trkpt>
      <trkpt lat="46.6793" lon="5.78016">
        <ele>482.5</ele>
        <time>2021-09-12T13:13:55Z</time>
      </trkpt>
      <trkpt lat="46.67931" lon="5.78008">
        <ele>482.3</ele>
        <time>2021-09-12T13:14:00Z</time>
      </trkpt>
      <trkpt lat="46.67932" lon="5.78001">
        <ele>484.1</ele>
        <time>2021-09-12T13:14:22Z</time>
      </trkpt>
      <trkpt lat="46.67928" lon="5.77997">
        <ele>484.6</ele>
        <time>2021-09-12T13:14:34Z</time>
      </trkpt>
      <trkpt lat="46.67924" lon="5.77999">
        <ele>484.7</ele>
        <time>2021-09-12T13:14:40Z</time>
      </trkpt>
      <trkpt lat="46.6792" lon="5.78005">
        <ele>485.2</ele>
        <time>2021-09-12T13:14:45Z</time>
      </trkpt>
      <trkpt lat="46.67916" lon="5.78009">
        <ele>485.4</ele>
        <time>2021-09-12T13:14:49Z</time>
      </trkpt>
      <trkpt lat="46.67913" lon="5.78014">
        <ele>485.7</ele>
        <time>2021-09-12T13:14:54Z</time>
      </trkpt>
      <trkpt lat="46.67908" lon="5.78017">
        <ele>485.8</ele>
        <time>2021-09-12T13:14:59Z</time>
      </trkpt>
      <trkpt lat="46.67903" lon="5.78014">
        <ele>484.5</ele>
        <time>2021-09-12T13:15:07Z</time>
      </trkpt>
      <trkpt lat="46.67901" lon="5.78008">
        <ele>483</ele>
        <time>2021-09-12T13:15:12Z</time>
      </trkpt>
      <trkpt lat="46.67901" lon="5.78001">
        <ele>482</ele>
        <time>2021-09-12T13:15:18Z</time>
      </trkpt>
      <trkpt lat="46.67902" lon="5.77995">
        <ele>480.9</ele>
        <time>2021-09-12T13:15:27Z</time>
      </trkpt>
      <trkpt lat="46.67902" lon="5.77987">
        <ele>479.9</ele>
        <time>2021-09-12T13:15:33Z</time>
      </trkpt>
      <trkpt lat="46.679" lon="5.77981">
        <ele>480.4</ele>
        <time>2021-09-12T13:15:36Z</time>
      </trkpt>
      <trkpt lat="46.67899" lon="5.77974">
        <ele>480.4</ele>
        <time>2021-09-12T13:15:39Z</time>
      </trkpt>
      <trkpt lat="46.67898" lon="5.77966">
        <ele>480.3</ele>
        <time>2021-09-12T13:15:43Z</time>
      </trkpt>
      <trkpt lat="46.67897" lon="5.77959">
        <ele>479.5</ele>
        <time>2021-09-12T13:15:48Z</time>
      </trkpt>
      <trkpt lat="46.67895" lon="5.77952">
        <ele>478.6</ele>
        <time>2021-09-12T13:15:53Z</time>
      </trkpt>
      <trkpt lat="46.67891" lon="5.77947">
        <ele>478.2</ele>
        <time>2021-09-12T13:15:58Z</time>
      </trkpt>
      <trkpt lat="46.67889" lon="5.77941">
        <ele>478</ele>
        <time>2021-09-12T13:16:03Z</time>
      </trkpt>
      <trkpt lat="46.67884" lon="5.77942">
        <ele>479.5</ele>
        <time>2021-09-12T13:16:12Z</time>
      </trkpt>
      <trkpt lat="46.67879" lon="5.77945">
        <ele>480.6</ele>
        <time>2021-09-12T13:16:17Z</time>
      </trkpt>
      <trkpt lat="46.67874" lon="5.77948">
        <ele>482.1</ele>
        <time>2021-09-12T13:16:22Z</time>
      </trkpt>
      <trkpt lat="46.67871" lon="5.77952">
        <ele>484.1</ele>
        <time>2021-09-12T13:16:27Z</time>
      </trkpt>
      <trkpt lat="46.67866" lon="5.77954">
        <ele>485.8</ele>
        <time>2021-09-12T13:16:34Z</time>
      </trkpt>
      <trkpt lat="46.67861" lon="5.77959">
        <ele>485.9</ele>
        <time>2021-09-12T13:17:22Z</time>
      </trkpt>
    </trkseg>
  </trk>
</gpx>